<?xml version="1.0" encoding="UTF-8" standalone="yes"?>
<gpx
 xmlns="http://www.topografix.com/GPX/1/1"
 creator="OziExplorer Version 3956f - http://www.oziexplorer.com"
 version="1.1"
 xmlns:xsi="http://www.w3.org/2001/XMLSchema-instance"
 xsi:schemaLocation="http://www.topografix.com/GPX/1/1 http://www.topografix.com/GPX/1/1/gpx.xsd">
<metadata>
 <time>2024-04-03T09:55:37Z</time>
 <bounds minlat="32.505850" minlon="35.338650" maxlat="32.549560" maxlon="35.415390"/>
</metadata>
<wpt lat="32.5442000" lon="35.3497000">
 <time>2024-04-03T11:44:44.113Z</time>
 <name>1-StFin</name>
 <sym>Bike Trail</sym>
</wpt>
<wpt lat="32.5351416" lon="35.3755515">
 <time>2024-04-03T11:44:44.146Z</time>
 <name>3-Tatspit</name>
 <sym>Flag, Red</sym>
</wpt>
<wpt lat="32.5101761" lon="35.4083763">
 <time>2024-04-03T11:44:44.151Z</time>
 <name>4-Stoliki</name>
 <sym>Flag, Red</sym>
</wpt>
<wpt lat="32.5089201" lon="35.3991656">
 <time>2024-04-03T11:44:44.156Z</time>
 <name>5-Singl</name>
 <sym>Flag, Red</sym>
</wpt>
<wpt lat="32.5167640" lon="35.3780352">
 <time>2024-04-03T11:44:44.161Z</time>
 <name>6-VarJip1</name>
 <sym>Flag, Red</sym>
</wpt>
<wpt lat="32.5197622" lon="35.3733896">
 <time>2024-04-03T11:44:44.167Z</time>
 <name>7-VarJip2</name>
 <sym>Flag, Red</sym>
</wpt>
<wpt lat="32.5253532" lon="35.3640663">
 <time>2024-04-03T11:44:44.172Z</time>
 <name>8-VarJip3</name>
 <sym>Flag, Red</sym>
</wpt>
<wpt lat="32.5216301" lon="35.3425013">
 <time>2024-04-03T11:44:44.178Z</time>
 <name>9-VarJip4</name>
 <sym>Flag, Red</sym>
</wpt>
<trk>
 <name>Jip+Sin_Gilboa_36km.1000m</name>
 <desc>Jip+Sin_Gilboa_36km.1000m</desc>
<trkseg>
<trkpt lat="32.5442100" lon="35.3496900">
<ele>75.879997</ele>
<time>2024-04-03T11:44:44.178Z</time>
</trkpt>
<trkpt lat="32.5442500" lon="35.3496200">
<ele>75.630005</ele>
<time>2024-04-03T11:44:44.178Z</time>
</trkpt>
<trkpt lat="32.5443000" lon="35.3494000">
<ele>74.669998</ele>
<time>2024-04-03T11:44:44.178Z</time>
</trkpt>
<trkpt lat="32.5443600" lon="35.3492700">
<ele>73.989998</ele>
<time>2024-04-03T11:44:44.178Z</time>
</trkpt>
<trkpt lat="32.5443600" lon="35.3491900">
<ele>73.529999</ele>
<time>2024-04-03T11:44:44.178Z</time>
</trkpt>
<trkpt lat="32.5444200" lon="35.3490700">
<ele>73.449997</ele>
<time>2024-04-03T11:44:44.178Z</time>
</trkpt>
<trkpt lat="32.5444700" lon="35.3489800">
<ele>73.209999</ele>
<time>2024-04-03T11:44:44.178Z</time>
</trkpt>
<trkpt lat="32.5445000" lon="35.3489100">
<ele>72.860001</ele>
<time>2024-04-03T11:44:44.178Z</time>
</trkpt>
<trkpt lat="32.5445800" lon="35.3487800">
<ele>71.919998</ele>
<time>2024-04-03T11:44:44.178Z</time>
</trkpt>
<trkpt lat="32.5448900" lon="35.3485300">
<ele>70.279999</ele>
<time>2024-04-03T11:44:44.178Z</time>
</trkpt>
<trkpt lat="32.5451000" lon="35.3482400">
<ele>70.599998</ele>
<time>2024-04-03T11:44:44.178Z</time>
</trkpt>
<trkpt lat="32.5453200" lon="35.3480200">
<ele>71.269997</ele>
<time>2024-04-03T11:44:44.178Z</time>
</trkpt>
<trkpt lat="32.5454400" lon="35.3479200">
<ele>71.599998</ele>
<time>2024-04-03T11:44:44.178Z</time>
</trkpt>
<trkpt lat="32.5455600" lon="35.3478500">
<ele>71.550003</ele>
<time>2024-04-03T11:44:44.178Z</time>
</trkpt>
<trkpt lat="32.5456000" lon="35.3477800">
<ele>71.029999</ele>
<time>2024-04-03T11:44:44.178Z</time>
</trkpt>
<trkpt lat="32.5456200" lon="35.3479300">
<ele>73.110001</ele>
<time>2024-04-03T11:44:44.178Z</time>
</trkpt>
<trkpt lat="32.5457000" lon="35.3479300">
<ele>74.379997</ele>
<time>2024-04-03T11:44:44.178Z</time>
</trkpt>
<trkpt lat="32.5457800" lon="35.3478800">
<ele>74.110001</ele>
<time>2024-04-03T11:44:44.178Z</time>
</trkpt>
<trkpt lat="32.5459200" lon="35.3478100">
<ele>73.540001</ele>
<time>2024-04-03T11:44:44.178Z</time>
</trkpt>
<trkpt lat="32.5460400" lon="35.3476900">
<ele>72.349998</ele>
<time>2024-04-03T11:44:44.178Z</time>
</trkpt>
<trkpt lat="32.5462200" lon="35.3476000">
<ele>71.770004</ele>
<time>2024-04-03T11:44:44.178Z</time>
</trkpt>
<trkpt lat="32.5465100" lon="35.3473400">
<ele>71.930000</ele>
<time>2024-04-03T11:44:44.178Z</time>
</trkpt>
<trkpt lat="32.5466500" lon="35.3472400">
<ele>73.900002</ele>
<time>2024-04-03T11:44:44.178Z</time>
</trkpt>
<trkpt lat="32.5469000" lon="35.3470500">
<ele>74.580002</ele>
<time>2024-04-03T11:44:44.178Z</time>
</trkpt>
<trkpt lat="32.5470600" lon="35.3468500">
<ele>72.139999</ele>
<time>2024-04-03T11:44:44.178Z</time>
</trkpt>
<trkpt lat="32.5472200" lon="35.3467300">
<ele>71.129997</ele>
<time>2024-04-03T11:44:44.178Z</time>
</trkpt>
<trkpt lat="32.5474300" lon="35.3465200">
<ele>74.669998</ele>
<time>2024-04-03T11:44:44.178Z</time>
</trkpt>
<trkpt lat="32.5476200" lon="35.3463900">
<ele>76.739998</ele>
<time>2024-04-03T11:44:44.178Z</time>
</trkpt>
<trkpt lat="32.5477800" lon="35.3462800">
<ele>77.840004</ele>
<time>2024-04-03T11:44:44.178Z</time>
</trkpt>
<trkpt lat="32.5479800" lon="35.3462000">
<ele>78.180000</ele>
<time>2024-04-03T11:44:44.178Z</time>
</trkpt>
<trkpt lat="32.5482000" lon="35.3461600">
<ele>77.310005</ele>
<time>2024-04-03T11:44:44.178Z</time>
</trkpt>
<trkpt lat="32.5483300" lon="35.3461900">
<ele>76.589996</ele>
<time>2024-04-03T11:44:44.178Z</time>
</trkpt>
<trkpt lat="32.5484900" lon="35.3462300">
<ele>76.610001</ele>
<time>2024-04-03T11:44:44.178Z</time>
</trkpt>
<trkpt lat="32.5486100" lon="35.3462400">
<ele>76.470001</ele>
<time>2024-04-03T11:44:44.178Z</time>
</trkpt>
<trkpt lat="32.5487800" lon="35.3463700">
<ele>76.320000</ele>
<time>2024-04-03T11:44:44.178Z</time>
</trkpt>
<trkpt lat="32.5488700" lon="35.3465100">
<ele>76.589996</ele>
<time>2024-04-03T11:44:44.178Z</time>
</trkpt>
<trkpt lat="32.5489400" lon="35.3465700">
<ele>76.959999</ele>
<time>2024-04-03T11:44:44.178Z</time>
</trkpt>
<trkpt lat="32.5490100" lon="35.3466400">
<ele>77.730003</ele>
<time>2024-04-03T11:44:44.178Z</time>
</trkpt>
<trkpt lat="32.5491700" lon="35.3467300">
<ele>79.409996</ele>
<time>2024-04-03T11:44:44.178Z</time>
</trkpt>
<trkpt lat="32.5492300" lon="35.3467800">
<ele>78.809998</ele>
<time>2024-04-03T11:44:44.178Z</time>
</trkpt>
<trkpt lat="32.5493400" lon="35.3469500">
<ele>77.900002</ele>
<time>2024-04-03T11:44:44.178Z</time>
</trkpt>
<trkpt lat="32.5494100" lon="35.3471000">
<ele>77.180000</ele>
<time>2024-04-03T11:44:44.178Z</time>
</trkpt>
<trkpt lat="32.5494200" lon="35.3471900">
<ele>77.320000</ele>
<time>2024-04-03T11:44:44.178Z</time>
</trkpt>
<trkpt lat="32.5494200" lon="35.3474900">
<ele>79.370003</ele>
<time>2024-04-03T11:44:44.178Z</time>
</trkpt>
<trkpt lat="32.5494300" lon="35.3475700">
<ele>79.750000</ele>
<time>2024-04-03T11:44:44.178Z</time>
</trkpt>
<trkpt lat="32.5495500" lon="35.3479800">
<ele>79.000000</ele>
<time>2024-04-03T11:44:44.178Z</time>
</trkpt>
<trkpt lat="32.5495600" lon="35.3482700">
<ele>80.400002</ele>
<time>2024-04-03T11:44:44.178Z</time>
</trkpt>
<trkpt lat="32.5494500" lon="35.3486400">
<ele>80.610001</ele>
<time>2024-04-03T11:44:44.178Z</time>
</trkpt>
<trkpt lat="32.5494000" lon="35.3489300">
<ele>79.630005</ele>
<time>2024-04-03T11:44:44.178Z</time>
</trkpt>
<trkpt lat="32.5490500" lon="35.3499200">
<ele>84.769997</ele>
<time>2024-04-03T11:44:44.178Z</time>
</trkpt>
<trkpt lat="32.5490000" lon="35.3500300">
<ele>85.760002</ele>
<time>2024-04-03T11:44:44.178Z</time>
</trkpt>
<trkpt lat="32.5487400" lon="35.3503900">
<ele>89.500000</ele>
<time>2024-04-03T11:44:44.178Z</time>
</trkpt>
<trkpt lat="32.5485600" lon="35.3507600">
<ele>85.389999</ele>
<time>2024-04-03T11:44:44.178Z</time>
</trkpt>
<trkpt lat="32.5484400" lon="35.3509200">
<ele>85.869995</ele>
<time>2024-04-03T11:44:44.178Z</time>
</trkpt>
<trkpt lat="32.5483200" lon="35.3511800">
<ele>87.720001</ele>
<time>2024-04-03T11:44:44.178Z</time>
</trkpt>
<trkpt lat="32.5481800" lon="35.3514300">
<ele>91.619995</ele>
<time>2024-04-03T11:44:44.178Z</time>
</trkpt>
<trkpt lat="32.5481300" lon="35.3514900">
<ele>93.290001</ele>
<time>2024-04-03T11:44:44.178Z</time>
</trkpt>
<trkpt lat="32.5479300" lon="35.3518000">
<ele>98.949997</ele>
<time>2024-04-03T11:44:44.178Z</time>
</trkpt>
<trkpt lat="32.5478300" lon="35.3519800">
<ele>98.500000</ele>
<time>2024-04-03T11:44:44.178Z</time>
</trkpt>
<trkpt lat="32.5477500" lon="35.3520400">
<ele>98.610001</ele>
<time>2024-04-03T11:44:44.178Z</time>
</trkpt>
<trkpt lat="32.5477400" lon="35.3521300">
<ele>98.990005</ele>
<time>2024-04-03T11:44:44.178Z</time>
</trkpt>
<trkpt lat="32.5476600" lon="35.3523200">
<ele>99.849998</ele>
<time>2024-04-03T11:44:44.178Z</time>
</trkpt>
<trkpt lat="32.5475000" lon="35.3525500">
<ele>101.180000</ele>
<time>2024-04-03T11:44:44.178Z</time>
</trkpt>
<trkpt lat="32.5473100" lon="35.3529100">
<ele>103.040001</ele>
<time>2024-04-03T11:44:44.178Z</time>
</trkpt>
<trkpt lat="32.5472000" lon="35.3531800">
<ele>103.199997</ele>
<time>2024-04-03T11:44:44.178Z</time>
</trkpt>
<trkpt lat="32.5471700" lon="35.3533100">
<ele>103.549995</ele>
<time>2024-04-03T11:44:44.178Z</time>
</trkpt>
<trkpt lat="32.5469200" lon="35.3537800">
<ele>107.199997</ele>
<time>2024-04-03T11:44:44.178Z</time>
</trkpt>
<trkpt lat="32.5468100" lon="35.3541400">
<ele>107.959999</ele>
<time>2024-04-03T11:44:44.178Z</time>
</trkpt>
<trkpt lat="32.5467200" lon="35.3542800">
<ele>108.950005</ele>
<time>2024-04-03T11:44:44.178Z</time>
</trkpt>
<trkpt lat="32.5465100" lon="35.3545100">
<ele>110.010002</ele>
<time>2024-04-03T11:44:44.178Z</time>
</trkpt>
<trkpt lat="32.5463300" lon="35.3546500">
<ele>111.580002</ele>
<time>2024-04-03T11:44:44.178Z</time>
</trkpt>
<trkpt lat="32.5462200" lon="35.3548200">
<ele>111.139999</ele>
<time>2024-04-03T11:44:44.178Z</time>
</trkpt>
<trkpt lat="32.5461400" lon="35.3549100">
<ele>111.030006</ele>
<time>2024-04-03T11:44:44.178Z</time>
</trkpt>
<trkpt lat="32.5458400" lon="35.3551300">
<ele>114.400002</ele>
<time>2024-04-03T11:44:44.178Z</time>
</trkpt>
<trkpt lat="32.5458000" lon="35.3551300">
<ele>114.180000</ele>
<time>2024-04-03T11:44:44.178Z</time>
</trkpt>
<trkpt lat="32.5455900" lon="35.3549600">
<ele>113.750000</ele>
<time>2024-04-03T11:44:44.178Z</time>
</trkpt>
<trkpt lat="32.5455200" lon="35.3549400">
<ele>114.290001</ele>
<time>2024-04-03T11:44:44.178Z</time>
</trkpt>
<trkpt lat="32.5454500" lon="35.3549400">
<ele>115.140007</ele>
<time>2024-04-03T11:44:44.178Z</time>
</trkpt>
<trkpt lat="32.5454100" lon="35.3549700">
<ele>115.360001</ele>
<time>2024-04-03T11:44:44.178Z</time>
</trkpt>
<trkpt lat="32.5452800" lon="35.3551000">
<ele>116.250000</ele>
<time>2024-04-03T11:44:44.178Z</time>
</trkpt>
<trkpt lat="32.5451700" lon="35.3552700">
<ele>116.949997</ele>
<time>2024-04-03T11:44:44.178Z</time>
</trkpt>
<trkpt lat="32.5449600" lon="35.3557200">
<ele>120.430000</ele>
<time>2024-04-03T11:44:44.178Z</time>
</trkpt>
<trkpt lat="32.5449000" lon="35.3559200">
<ele>120.279999</ele>
<time>2024-04-03T11:44:44.178Z</time>
</trkpt>
<trkpt lat="32.5447500" lon="35.3562100">
<ele>120.630005</ele>
<time>2024-04-03T11:44:44.178Z</time>
</trkpt>
<trkpt lat="32.5446500" lon="35.3563900">
<ele>118.759995</ele>
<time>2024-04-03T11:44:44.178Z</time>
</trkpt>
<trkpt lat="32.5445700" lon="35.3565800">
<ele>117.399994</ele>
<time>2024-04-03T11:44:44.178Z</time>
</trkpt>
<trkpt lat="32.5444800" lon="35.3567200">
<ele>118.520004</ele>
<time>2024-04-03T11:44:44.178Z</time>
</trkpt>
<trkpt lat="32.5444200" lon="35.3568700">
<ele>117.890007</ele>
<time>2024-04-03T11:44:44.178Z</time>
</trkpt>
<trkpt lat="32.5443600" lon="35.3571200">
<ele>116.230003</ele>
<time>2024-04-03T11:44:44.178Z</time>
</trkpt>
<trkpt lat="32.5441700" lon="35.3576300">
<ele>113.620003</ele>
<time>2024-04-03T11:44:44.178Z</time>
</trkpt>
<trkpt lat="32.5441000" lon="35.3578700">
<ele>110.199997</ele>
<time>2024-04-03T11:44:44.178Z</time>
</trkpt>
<trkpt lat="32.5440800" lon="35.3579500">
<ele>108.729996</ele>
<time>2024-04-03T11:44:44.178Z</time>
</trkpt>
<trkpt lat="32.5440400" lon="35.3580500">
<ele>107.320000</ele>
<time>2024-04-03T11:44:44.178Z</time>
</trkpt>
<trkpt lat="32.5440300" lon="35.3581600">
<ele>106.690002</ele>
<time>2024-04-03T11:44:44.178Z</time>
</trkpt>
<trkpt lat="32.5439700" lon="35.3582500">
<ele>107.560005</ele>
<time>2024-04-03T11:44:44.178Z</time>
</trkpt>
<trkpt lat="32.5437700" lon="35.3586500">
<ele>107.700005</ele>
<time>2024-04-03T11:44:44.178Z</time>
</trkpt>
<trkpt lat="32.5437200" lon="35.3587500">
<ele>108.279999</ele>
<time>2024-04-03T11:44:44.178Z</time>
</trkpt>
<trkpt lat="32.5437200" lon="35.3589100">
<ele>106.160004</ele>
<time>2024-04-03T11:44:44.178Z</time>
</trkpt>
<trkpt lat="32.5437700" lon="35.3589500">
<ele>104.810005</ele>
<time>2024-04-03T11:44:44.178Z</time>
</trkpt>
<trkpt lat="32.5440100" lon="35.3588600">
<ele>100.750000</ele>
<time>2024-04-03T11:44:44.178Z</time>
</trkpt>
<trkpt lat="32.5442300" lon="35.3590300">
<ele>98.419998</ele>
<time>2024-04-03T11:44:44.178Z</time>
</trkpt>
<trkpt lat="32.5443100" lon="35.3591700">
<ele>96.369995</ele>
<time>2024-04-03T11:44:44.178Z</time>
</trkpt>
<trkpt lat="32.5439000" lon="35.3603200">
<ele>83.650002</ele>
<time>2024-04-03T11:44:44.178Z</time>
</trkpt>
<trkpt lat="32.5437900" lon="35.3604400">
<ele>86.389999</ele>
<time>2024-04-03T11:44:44.178Z</time>
</trkpt>
<trkpt lat="32.5437300" lon="35.3606000">
<ele>87.049995</ele>
<time>2024-04-03T11:44:44.178Z</time>
</trkpt>
<trkpt lat="32.5436300" lon="35.3607800">
<ele>91.199997</ele>
<time>2024-04-03T11:44:44.178Z</time>
</trkpt>
<trkpt lat="32.5434900" lon="35.3608800">
<ele>93.419998</ele>
<time>2024-04-03T11:44:44.178Z</time>
</trkpt>
<trkpt lat="32.5433400" lon="35.3609200">
<ele>95.970001</ele>
<time>2024-04-03T11:44:44.178Z</time>
</trkpt>
<trkpt lat="32.5433500" lon="35.3610800">
<ele>92.209999</ele>
<time>2024-04-03T11:44:44.178Z</time>
</trkpt>
<trkpt lat="32.5433100" lon="35.3614900">
<ele>81.470001</ele>
<time>2024-04-03T11:44:44.178Z</time>
</trkpt>
<trkpt lat="32.5432500" lon="35.3617100">
<ele>80.669998</ele>
<time>2024-04-03T11:44:44.178Z</time>
</trkpt>
<trkpt lat="32.5428300" lon="35.3622600">
<ele>83.770004</ele>
<time>2024-04-03T11:44:44.178Z</time>
</trkpt>
<trkpt lat="32.5422800" lon="35.3626700">
<ele>90.519997</ele>
<time>2024-04-03T11:44:44.178Z</time>
</trkpt>
<trkpt lat="32.5421000" lon="35.3629600">
<ele>82.279999</ele>
<time>2024-04-03T11:44:44.178Z</time>
</trkpt>
<trkpt lat="32.5420300" lon="35.3629700">
<ele>83.349998</ele>
<time>2024-04-03T11:44:44.178Z</time>
</trkpt>
<trkpt lat="32.5417500" lon="35.3629400">
<ele>90.729996</ele>
<time>2024-04-03T11:44:44.178Z</time>
</trkpt>
<trkpt lat="32.5416800" lon="35.3629500">
<ele>91.670006</ele>
<time>2024-04-03T11:44:44.178Z</time>
</trkpt>
<trkpt lat="32.5415100" lon="35.3629400">
<ele>93.159996</ele>
<time>2024-04-03T11:44:44.178Z</time>
</trkpt>
<trkpt lat="32.5411900" lon="35.3629600">
<ele>92.109993</ele>
<time>2024-04-03T11:44:44.178Z</time>
</trkpt>
<trkpt lat="32.5411000" lon="35.3629400">
<ele>91.990005</ele>
<time>2024-04-03T11:44:44.178Z</time>
</trkpt>
<trkpt lat="32.5409400" lon="35.3628900">
<ele>91.870003</ele>
<time>2024-04-03T11:44:44.178Z</time>
</trkpt>
<trkpt lat="32.5408400" lon="35.3628400">
<ele>92.470001</ele>
<time>2024-04-03T11:44:44.178Z</time>
</trkpt>
<trkpt lat="32.5408400" lon="35.3628500">
<ele>92.220001</ele>
<time>2024-04-03T11:44:44.178Z</time>
</trkpt>
<trkpt lat="32.5408400" lon="35.3628500">
<ele>92.220001</ele>
<time>2024-04-03T11:44:44.178Z</time>
</trkpt>
<trkpt lat="32.5405800" lon="35.3626900">
<ele>94.620003</ele>
<time>2024-04-03T11:44:44.178Z</time>
</trkpt>
<trkpt lat="32.5402200" lon="35.3625300">
<ele>97.010002</ele>
<time>2024-04-03T11:44:44.178Z</time>
</trkpt>
<trkpt lat="32.5396900" lon="35.3624500">
<ele>99.620003</ele>
<time>2024-04-03T11:44:44.178Z</time>
</trkpt>
<trkpt lat="32.5393900" lon="35.3624600">
<ele>92.239998</ele>
<time>2024-04-03T11:44:44.178Z</time>
</trkpt>
<trkpt lat="32.5393100" lon="35.3624200">
<ele>90.139999</ele>
<time>2024-04-03T11:44:44.178Z</time>
</trkpt>
<trkpt lat="32.5389600" lon="35.3622700">
<ele>89.180000</ele>
<time>2024-04-03T11:44:44.178Z</time>
</trkpt>
<trkpt lat="32.5384300" lon="35.3620800">
<ele>92.310005</ele>
<time>2024-04-03T11:44:44.178Z</time>
</trkpt>
<trkpt lat="32.5381600" lon="35.3619600">
<ele>97.609993</ele>
<time>2024-04-03T11:44:44.178Z</time>
</trkpt>
<trkpt lat="32.5378900" lon="35.3619200">
<ele>99.349998</ele>
<time>2024-04-03T11:44:44.178Z</time>
</trkpt>
<trkpt lat="32.5377500" lon="35.3619300">
<ele>99.000000</ele>
<time>2024-04-03T11:44:44.178Z</time>
</trkpt>
<trkpt lat="32.5374600" lon="35.3619600">
<ele>97.119995</ele>
<time>2024-04-03T11:44:44.178Z</time>
</trkpt>
<trkpt lat="32.5372600" lon="35.3620600">
<ele>97.480003</ele>
<time>2024-04-03T11:44:44.178Z</time>
</trkpt>
<trkpt lat="32.5371500" lon="35.3621900">
<ele>96.610001</ele>
<time>2024-04-03T11:44:44.178Z</time>
</trkpt>
<trkpt lat="32.5370200" lon="35.3626500">
<ele>96.250008</ele>
<time>2024-04-03T11:44:44.178Z</time>
</trkpt>
<trkpt lat="32.5367900" lon="35.3630000">
<ele>100.709999</ele>
<time>2024-04-03T11:44:44.178Z</time>
</trkpt>
<trkpt lat="32.5367500" lon="35.3633100">
<ele>103.629997</ele>
<time>2024-04-03T11:44:44.178Z</time>
</trkpt>
<trkpt lat="32.5367200" lon="35.3633600">
<ele>104.480003</ele>
<time>2024-04-03T11:44:44.178Z</time>
</trkpt>
<trkpt lat="32.5367600" lon="35.3633400">
<ele>103.730003</ele>
<time>2024-04-03T11:44:44.178Z</time>
</trkpt>
<trkpt lat="32.5370400" lon="35.3631300">
<ele>98.339996</ele>
<time>2024-04-03T11:44:44.178Z</time>
</trkpt>
<trkpt lat="32.5373100" lon="35.3630500">
<ele>94.669998</ele>
<time>2024-04-03T11:44:44.178Z</time>
</trkpt>
<trkpt lat="32.5379300" lon="35.3631300">
<ele>88.350006</ele>
<time>2024-04-03T11:44:44.178Z</time>
</trkpt>
<trkpt lat="32.5380800" lon="35.3632400">
<ele>87.160004</ele>
<time>2024-04-03T11:44:44.178Z</time>
</trkpt>
<trkpt lat="32.5380800" lon="35.3633600">
<ele>90.360001</ele>
<time>2024-04-03T11:44:44.178Z</time>
</trkpt>
<trkpt lat="32.5380800" lon="35.3634700">
<ele>88.669998</ele>
<time>2024-04-03T11:44:44.178Z</time>
</trkpt>
<trkpt lat="32.5378200" lon="35.3637900">
<ele>95.570000</ele>
<time>2024-04-03T11:44:44.178Z</time>
</trkpt>
<trkpt lat="32.5374600" lon="35.3640300">
<ele>103.459999</ele>
<time>2024-04-03T11:44:44.178Z</time>
</trkpt>
<trkpt lat="32.5373300" lon="35.3642000">
<ele>109.789993</ele>
<time>2024-04-03T11:44:44.178Z</time>
</trkpt>
<trkpt lat="32.5372600" lon="35.3645700">
<ele>113.449997</ele>
<time>2024-04-03T11:44:44.178Z</time>
</trkpt>
<trkpt lat="32.5372700" lon="35.3648100">
<ele>112.839996</ele>
<time>2024-04-03T11:44:44.178Z</time>
</trkpt>
<trkpt lat="32.5373200" lon="35.3650000">
<ele>112.130005</ele>
<time>2024-04-03T11:44:44.178Z</time>
</trkpt>
<trkpt lat="32.5376300" lon="35.3656300">
<ele>102.139999</ele>
<time>2024-04-03T11:44:44.178Z</time>
</trkpt>
<trkpt lat="32.5377900" lon="35.3658400">
<ele>98.959999</ele>
<time>2024-04-03T11:44:44.178Z</time>
</trkpt>
<trkpt lat="32.5378800" lon="35.3658800">
<ele>98.720001</ele>
<time>2024-04-03T11:44:44.178Z</time>
</trkpt>
<trkpt lat="32.5382400" lon="35.3658600">
<ele>95.330002</ele>
<time>2024-04-03T11:44:44.178Z</time>
</trkpt>
<trkpt lat="32.5386800" lon="35.3659600">
<ele>92.470001</ele>
<time>2024-04-03T11:44:44.178Z</time>
</trkpt>
<trkpt lat="32.5388000" lon="35.3660500">
<ele>92.529999</ele>
<time>2024-04-03T11:44:44.178Z</time>
</trkpt>
<trkpt lat="32.5388200" lon="35.3661500">
<ele>93.639999</ele>
<time>2024-04-03T11:44:44.178Z</time>
</trkpt>
<trkpt lat="32.5388600" lon="35.3662200">
<ele>93.599998</ele>
<time>2024-04-03T11:44:44.178Z</time>
</trkpt>
<trkpt lat="32.5389500" lon="35.3662600">
<ele>92.040001</ele>
<time>2024-04-03T11:44:44.178Z</time>
</trkpt>
<trkpt lat="32.5391800" lon="35.3662800">
<ele>87.100006</ele>
<time>2024-04-03T11:44:44.178Z</time>
</trkpt>
<trkpt lat="32.5394200" lon="35.3663300">
<ele>86.110001</ele>
<time>2024-04-03T11:44:44.178Z</time>
</trkpt>
<trkpt lat="32.5399200" lon="35.3665500">
<ele>91.619995</ele>
<time>2024-04-03T11:44:44.178Z</time>
</trkpt>
<trkpt lat="32.5399800" lon="35.3665900">
<ele>93.000000</ele>
<time>2024-04-03T11:44:44.178Z</time>
</trkpt>
<trkpt lat="32.5403300" lon="35.3666300">
<ele>103.260002</ele>
<time>2024-04-03T11:44:44.178Z</time>
</trkpt>
<trkpt lat="32.5404600" lon="35.3666300">
<ele>103.849998</ele>
<time>2024-04-03T11:44:44.178Z</time>
</trkpt>
<trkpt lat="32.5405100" lon="35.3666300">
<ele>104.080002</ele>
<time>2024-04-03T11:44:44.178Z</time>
</trkpt>
<trkpt lat="32.5405800" lon="35.3666200">
<ele>104.050003</ele>
<time>2024-04-03T11:44:44.178Z</time>
</trkpt>
<trkpt lat="32.5406500" lon="35.3665400">
<ele>101.369995</ele>
<time>2024-04-03T11:44:44.178Z</time>
</trkpt>
<trkpt lat="32.5408100" lon="35.3664600">
<ele>100.889999</ele>
<time>2024-04-03T11:44:44.178Z</time>
</trkpt>
<trkpt lat="32.5408600" lon="35.3664000">
<ele>99.809998</ele>
<time>2024-04-03T11:44:44.178Z</time>
</trkpt>
<trkpt lat="32.5412100" lon="35.3663100">
<ele>102.960007</ele>
<time>2024-04-03T11:44:44.178Z</time>
</trkpt>
<trkpt lat="32.5413900" lon="35.3662300">
<ele>105.440002</ele>
<time>2024-04-03T11:44:44.178Z</time>
</trkpt>
<trkpt lat="32.5417400" lon="35.3662000">
<ele>109.080002</ele>
<time>2024-04-03T11:44:44.178Z</time>
</trkpt>
<trkpt lat="32.5420400" lon="35.3662000">
<ele>112.700005</ele>
<time>2024-04-03T11:44:44.178Z</time>
</trkpt>
<trkpt lat="32.5421300" lon="35.3662100">
<ele>114.029999</ele>
<time>2024-04-03T11:44:44.178Z</time>
</trkpt>
<trkpt lat="32.5421900" lon="35.3662400">
<ele>115.000000</ele>
<time>2024-04-03T11:44:44.178Z</time>
</trkpt>
<trkpt lat="32.5422500" lon="35.3663000">
<ele>116.049995</ele>
<time>2024-04-03T11:44:44.178Z</time>
</trkpt>
<trkpt lat="32.5424200" lon="35.3667400">
<ele>119.199997</ele>
<time>2024-04-03T11:44:44.178Z</time>
</trkpt>
<trkpt lat="32.5424200" lon="35.3670000">
<ele>118.149994</ele>
<time>2024-04-03T11:44:44.178Z</time>
</trkpt>
<trkpt lat="32.5423300" lon="35.3672100">
<ele>118.110001</ele>
<time>2024-04-03T11:44:44.178Z</time>
</trkpt>
<trkpt lat="32.5421600" lon="35.3674300">
<ele>118.840004</ele>
<time>2024-04-03T11:44:44.178Z</time>
</trkpt>
<trkpt lat="32.5421100" lon="35.3675500">
<ele>117.079994</ele>
<time>2024-04-03T11:44:44.178Z</time>
</trkpt>
<trkpt lat="32.5420700" lon="35.3675900">
<ele>116.029999</ele>
<time>2024-04-03T11:44:44.178Z</time>
</trkpt>
<trkpt lat="32.5420500" lon="35.3676500">
<ele>114.169998</ele>
<time>2024-04-03T11:44:44.178Z</time>
</trkpt>
<trkpt lat="32.5419300" lon="35.3677500">
<ele>112.180000</ele>
<time>2024-04-03T11:44:44.178Z</time>
</trkpt>
<trkpt lat="32.5418100" lon="35.3679200">
<ele>109.810005</ele>
<time>2024-04-03T11:44:44.178Z</time>
</trkpt>
<trkpt lat="32.5415200" lon="35.3680900">
<ele>113.070000</ele>
<time>2024-04-03T11:44:44.178Z</time>
</trkpt>
<trkpt lat="32.5413900" lon="35.3680900">
<ele>117.220001</ele>
<time>2024-04-03T11:44:44.178Z</time>
</trkpt>
<trkpt lat="32.5413500" lon="35.3680900">
<ele>117.450005</ele>
<time>2024-04-03T11:44:44.178Z</time>
</trkpt>
<trkpt lat="32.5412400" lon="35.3680200">
<ele>118.970001</ele>
<time>2024-04-03T11:44:44.178Z</time>
</trkpt>
<trkpt lat="32.5411500" lon="35.3678400">
<ele>120.739998</ele>
<time>2024-04-03T11:44:44.178Z</time>
</trkpt>
<trkpt lat="32.5410400" lon="35.3674900">
<ele>121.209999</ele>
<time>2024-04-03T11:44:44.178Z</time>
</trkpt>
<trkpt lat="32.5409500" lon="35.3673800">
<ele>120.080002</ele>
<time>2024-04-03T11:44:44.178Z</time>
</trkpt>
<trkpt lat="32.5409400" lon="35.3673300">
<ele>119.919998</ele>
<time>2024-04-03T11:44:44.178Z</time>
</trkpt>
<trkpt lat="32.5408900" lon="35.3673200">
<ele>119.480003</ele>
<time>2024-04-03T11:44:44.178Z</time>
</trkpt>
<trkpt lat="32.5407400" lon="35.3673700">
<ele>119.180000</ele>
<time>2024-04-03T11:44:44.178Z</time>
</trkpt>
<trkpt lat="32.5401900" lon="35.3675400">
<ele>121.679993</ele>
<time>2024-04-03T11:44:44.178Z</time>
</trkpt>
<trkpt lat="32.5401000" lon="35.3675600">
<ele>121.560005</ele>
<time>2024-04-03T11:44:44.178Z</time>
</trkpt>
<trkpt lat="32.5397500" lon="35.3675300">
<ele>124.399994</ele>
<time>2024-04-03T11:44:44.178Z</time>
</trkpt>
<trkpt lat="32.5395600" lon="35.3675700">
<ele>128.389999</ele>
<time>2024-04-03T11:44:44.178Z</time>
</trkpt>
<trkpt lat="32.5394100" lon="35.3676300">
<ele>132.089996</ele>
<time>2024-04-03T11:44:44.178Z</time>
</trkpt>
<trkpt lat="32.5393100" lon="35.3677400">
<ele>135.290009</ele>
<time>2024-04-03T11:44:44.178Z</time>
</trkpt>
<trkpt lat="32.5392900" lon="35.3679000">
<ele>139.819992</ele>
<time>2024-04-03T11:44:44.178Z</time>
</trkpt>
<trkpt lat="32.5393000" lon="35.3680700">
<ele>144.279999</ele>
<time>2024-04-03T11:44:44.178Z</time>
</trkpt>
<trkpt lat="32.5393300" lon="35.3682700">
<ele>147.089996</ele>
<time>2024-04-03T11:44:44.178Z</time>
</trkpt>
<trkpt lat="32.5393500" lon="35.3683800">
<ele>148.259995</ele>
<time>2024-04-03T11:44:44.178Z</time>
</trkpt>
<trkpt lat="32.5393800" lon="35.3684900">
<ele>148.980011</ele>
<time>2024-04-03T11:44:44.178Z</time>
</trkpt>
<trkpt lat="32.5393500" lon="35.3694600">
<ele>152.089996</ele>
<time>2024-04-03T11:44:44.178Z</time>
</trkpt>
<trkpt lat="32.5386400" lon="35.3696900">
<ele>177.029999</ele>
<time>2024-04-03T11:44:44.178Z</time>
</trkpt>
<trkpt lat="32.5385500" lon="35.3698800">
<ele>181.020004</ele>
<time>2024-04-03T11:44:44.178Z</time>
</trkpt>
<trkpt lat="32.5381100" lon="35.3697400">
<ele>185.950012</ele>
<time>2024-04-03T11:44:44.178Z</time>
</trkpt>
<trkpt lat="32.5378200" lon="35.3697100">
<ele>189.860001</ele>
<time>2024-04-03T11:44:44.178Z</time>
</trkpt>
<trkpt lat="32.5367700" lon="35.3697200">
<ele>192.039993</ele>
<time>2024-04-03T11:44:44.178Z</time>
</trkpt>
<trkpt lat="32.5367300" lon="35.3697500">
<ele>192.410004</ele>
<time>2024-04-03T11:44:44.178Z</time>
</trkpt>
<trkpt lat="32.5361200" lon="35.3698000">
<ele>190.199997</ele>
<time>2024-04-03T11:44:44.178Z</time>
</trkpt>
<trkpt lat="32.5355100" lon="35.3699600">
<ele>192.209991</ele>
<time>2024-04-03T11:44:44.178Z</time>
</trkpt>
<trkpt lat="32.5354200" lon="35.3700000">
<ele>193.050003</ele>
<time>2024-04-03T11:44:44.178Z</time>
</trkpt>
<trkpt lat="32.5350100" lon="35.3701600">
<ele>190.660004</ele>
<time>2024-04-03T11:44:44.178Z</time>
</trkpt>
<trkpt lat="32.5338900" lon="35.3705000">
<ele>171.619995</ele>
<time>2024-04-03T11:44:44.178Z</time>
</trkpt>
<trkpt lat="32.5338300" lon="35.3705100">
<ele>170.860001</ele>
<time>2024-04-03T11:44:44.178Z</time>
</trkpt>
<trkpt lat="32.5337000" lon="35.3704900">
<ele>168.270004</ele>
<time>2024-04-03T11:44:44.178Z</time>
</trkpt>
<trkpt lat="32.5336400" lon="35.3705100">
<ele>167.670013</ele>
<time>2024-04-03T11:44:44.178Z</time>
</trkpt>
<trkpt lat="32.5334700" lon="35.3706500">
<ele>171.899994</ele>
<time>2024-04-03T11:44:44.178Z</time>
</trkpt>
<trkpt lat="32.5333100" lon="35.3707600">
<ele>175.650009</ele>
<time>2024-04-03T11:44:44.178Z</time>
</trkpt>
<trkpt lat="32.5332000" lon="35.3707800">
<ele>177.080002</ele>
<time>2024-04-03T11:44:44.178Z</time>
</trkpt>
<trkpt lat="32.5330200" lon="35.3707800">
<ele>178.940002</ele>
<time>2024-04-03T11:44:44.178Z</time>
</trkpt>
<trkpt lat="32.5327200" lon="35.3707600">
<ele>184.339996</ele>
<time>2024-04-03T11:44:44.178Z</time>
</trkpt>
<trkpt lat="32.5325300" lon="35.3707200">
<ele>191.059998</ele>
<time>2024-04-03T11:44:44.178Z</time>
</trkpt>
<trkpt lat="32.5323100" lon="35.3707300">
<ele>196.610016</ele>
<time>2024-04-03T11:44:44.178Z</time>
</trkpt>
<trkpt lat="32.5321900" lon="35.3707600">
<ele>198.740005</ele>
<time>2024-04-03T11:44:44.178Z</time>
</trkpt>
<trkpt lat="32.5319800" lon="35.3708900">
<ele>198.250000</ele>
<time>2024-04-03T11:44:44.178Z</time>
</trkpt>
<trkpt lat="32.5318900" lon="35.3710200">
<ele>198.470001</ele>
<time>2024-04-03T11:44:44.178Z</time>
</trkpt>
<trkpt lat="32.5318300" lon="35.3711500">
<ele>198.139999</ele>
<time>2024-04-03T11:44:44.178Z</time>
</trkpt>
<trkpt lat="32.5318000" lon="35.3712600">
<ele>197.659988</ele>
<time>2024-04-03T11:44:44.178Z</time>
</trkpt>
<trkpt lat="32.5317200" lon="35.3717500">
<ele>197.339996</ele>
<time>2024-04-03T11:44:44.178Z</time>
</trkpt>
<trkpt lat="32.5317000" lon="35.3717700">
<ele>197.400009</ele>
<time>2024-04-03T11:44:44.178Z</time>
</trkpt>
<trkpt lat="32.5316400" lon="35.3719300">
<ele>198.570007</ele>
<time>2024-04-03T11:44:44.178Z</time>
</trkpt>
<trkpt lat="32.5315000" lon="35.3721500">
<ele>200.460007</ele>
<time>2024-04-03T11:44:44.178Z</time>
</trkpt>
<trkpt lat="32.5311500" lon="35.3727800">
<ele>213.759995</ele>
<time>2024-04-03T11:44:44.178Z</time>
</trkpt>
<trkpt lat="32.5310100" lon="35.3728700">
<ele>213.960007</ele>
<time>2024-04-03T11:44:44.178Z</time>
</trkpt>
<trkpt lat="32.5309200" lon="35.3728800">
<ele>212.610001</ele>
<time>2024-04-03T11:44:44.178Z</time>
</trkpt>
<trkpt lat="32.5308500" lon="35.3728800">
<ele>211.389999</ele>
<time>2024-04-03T11:44:44.178Z</time>
</trkpt>
<trkpt lat="32.5307700" lon="35.3728600">
<ele>210.959991</ele>
<time>2024-04-03T11:44:44.178Z</time>
</trkpt>
<trkpt lat="32.5307000" lon="35.3728100">
<ele>210.399994</ele>
<time>2024-04-03T11:44:44.178Z</time>
</trkpt>
<trkpt lat="32.5305200" lon="35.3728100">
<ele>211.169998</ele>
<time>2024-04-03T11:44:44.178Z</time>
</trkpt>
<trkpt lat="32.5305000" lon="35.3729000">
<ele>212.610001</ele>
<time>2024-04-03T11:44:44.178Z</time>
</trkpt>
<trkpt lat="32.5305300" lon="35.3732700">
<ele>217.900009</ele>
<time>2024-04-03T11:44:44.178Z</time>
</trkpt>
<trkpt lat="32.5305100" lon="35.3734300">
<ele>221.089996</ele>
<time>2024-04-03T11:44:44.178Z</time>
</trkpt>
<trkpt lat="32.5304900" lon="35.3735100">
<ele>222.819992</ele>
<time>2024-04-03T11:44:44.178Z</time>
</trkpt>
<trkpt lat="32.5304100" lon="35.3736500">
<ele>225.220001</ele>
<time>2024-04-03T11:44:44.178Z</time>
</trkpt>
<trkpt lat="32.5302800" lon="35.3739000">
<ele>227.979996</ele>
<time>2024-04-03T11:44:44.178Z</time>
</trkpt>
<trkpt lat="32.5302400" lon="35.3739400">
<ele>227.909988</ele>
<time>2024-04-03T11:44:44.178Z</time>
</trkpt>
<trkpt lat="32.5301700" lon="35.3739600">
<ele>227.809998</ele>
<time>2024-04-03T11:44:44.178Z</time>
</trkpt>
<trkpt lat="32.5300600" lon="35.3739800">
<ele>227.730011</ele>
<time>2024-04-03T11:44:44.178Z</time>
</trkpt>
<trkpt lat="32.5300200" lon="35.3739800">
<ele>227.680008</ele>
<time>2024-04-03T11:44:44.178Z</time>
</trkpt>
<trkpt lat="32.5299500" lon="35.3739500">
<ele>227.000000</ele>
<time>2024-04-03T11:44:44.178Z</time>
</trkpt>
<trkpt lat="32.5300300" lon="35.3746200">
<ele>230.729996</ele>
<time>2024-04-03T11:44:44.178Z</time>
</trkpt>
<trkpt lat="32.5300400" lon="35.3751600">
<ele>233.009995</ele>
<time>2024-04-03T11:44:44.178Z</time>
</trkpt>
<trkpt lat="32.5300600" lon="35.3754700">
<ele>234.339996</ele>
<time>2024-04-03T11:44:44.178Z</time>
</trkpt>
<trkpt lat="32.5300900" lon="35.3756500">
<ele>234.979996</ele>
<time>2024-04-03T11:44:44.178Z</time>
</trkpt>
<trkpt lat="32.5301500" lon="35.3758300">
<ele>235.010010</ele>
<time>2024-04-03T11:44:44.178Z</time>
</trkpt>
<trkpt lat="32.5303000" lon="35.3759200">
<ele>235.430008</ele>
<time>2024-04-03T11:44:44.178Z</time>
</trkpt>
<trkpt lat="32.5304500" lon="35.3759300">
<ele>234.270004</ele>
<time>2024-04-03T11:44:44.178Z</time>
</trkpt>
<trkpt lat="32.5306200" lon="35.3759200">
<ele>233.889999</ele>
<time>2024-04-03T11:44:44.178Z</time>
</trkpt>
<trkpt lat="32.5308000" lon="35.3758700">
<ele>235.580002</ele>
<time>2024-04-03T11:44:44.178Z</time>
</trkpt>
<trkpt lat="32.5311900" lon="35.3756400">
<ele>237.610001</ele>
<time>2024-04-03T11:44:44.178Z</time>
</trkpt>
<trkpt lat="32.5313600" lon="35.3755400">
<ele>239.429993</ele>
<time>2024-04-03T11:44:44.178Z</time>
</trkpt>
<trkpt lat="32.5317900" lon="35.3753300">
<ele>244.059998</ele>
<time>2024-04-03T11:44:44.178Z</time>
</trkpt>
<trkpt lat="32.5319600" lon="35.3753200">
<ele>246.169998</ele>
<time>2024-04-03T11:44:44.178Z</time>
</trkpt>
<trkpt lat="32.5321400" lon="35.3753500">
<ele>251.199997</ele>
<time>2024-04-03T11:44:44.178Z</time>
</trkpt>
<trkpt lat="32.5324700" lon="35.3757000">
<ele>257.250000</ele>
<time>2024-04-03T11:44:44.178Z</time>
</trkpt>
<trkpt lat="32.5326800" lon="35.3758000">
<ele>257.959991</ele>
<time>2024-04-03T11:44:44.178Z</time>
</trkpt>
<trkpt lat="32.5329400" lon="35.3758200">
<ele>256.279999</ele>
<time>2024-04-03T11:44:44.178Z</time>
</trkpt>
<trkpt lat="32.5333700" lon="35.3757000">
<ele>255.320007</ele>
<time>2024-04-03T11:44:44.178Z</time>
</trkpt>
<trkpt lat="32.5341700" lon="35.3750300">
<ele>271.100006</ele>
<time>2024-04-03T11:44:44.178Z</time>
</trkpt>
<trkpt lat="32.5344200" lon="35.3748400">
<ele>268.509979</ele>
<time>2024-04-03T11:44:44.178Z</time>
</trkpt>
<trkpt lat="32.5356700" lon="35.3742700">
<ele>281.289978</ele>
<time>2024-04-03T11:44:44.178Z</time>
</trkpt>
<trkpt lat="32.5357800" lon="35.3742700">
<ele>282.769989</ele>
<time>2024-04-03T11:44:44.178Z</time>
</trkpt>
<trkpt lat="32.5358600" lon="35.3742900">
<ele>284.209991</ele>
<time>2024-04-03T11:44:44.178Z</time>
</trkpt>
<trkpt lat="32.5359300" lon="35.3744100">
<ele>286.940002</ele>
<time>2024-04-03T11:44:44.178Z</time>
</trkpt>
<trkpt lat="32.5359300" lon="35.3746000">
<ele>288.489990</ele>
<time>2024-04-03T11:44:44.178Z</time>
</trkpt>
<trkpt lat="32.5359100" lon="35.3747500">
<ele>289.089996</ele>
<time>2024-04-03T11:44:44.178Z</time>
</trkpt>
<trkpt lat="32.5358700" lon="35.3749100">
<ele>288.190002</ele>
<time>2024-04-03T11:44:44.178Z</time>
</trkpt>
<trkpt lat="32.5358300" lon="35.3749500">
<ele>288.149994</ele>
<time>2024-04-03T11:44:44.178Z</time>
</trkpt>
<trkpt lat="32.5357300" lon="35.3749700">
<ele>287.279999</ele>
<time>2024-04-03T11:44:44.178Z</time>
</trkpt>
<trkpt lat="32.5356600" lon="35.3749700">
<ele>286.730011</ele>
<time>2024-04-03T11:44:44.178Z</time>
</trkpt>
<trkpt lat="32.5355900" lon="35.3749900">
<ele>286.220001</ele>
<time>2024-04-03T11:44:44.178Z</time>
</trkpt>
<trkpt lat="32.5355100" lon="35.3750400">
<ele>285.510010</ele>
<time>2024-04-03T11:44:44.178Z</time>
</trkpt>
<trkpt lat="32.5354100" lon="35.3752600">
<ele>285.330017</ele>
<time>2024-04-03T11:44:44.178Z</time>
</trkpt>
<trkpt lat="32.5353900" lon="35.3753900">
<ele>285.929993</ele>
<time>2024-04-03T11:44:44.178Z</time>
</trkpt>
<trkpt lat="32.5353600" lon="35.3754300">
<ele>286.049988</ele>
<time>2024-04-03T11:44:44.178Z</time>
</trkpt>
<trkpt lat="32.5353200" lon="35.3754500">
<ele>286.029999</ele>
<time>2024-04-03T11:44:44.178Z</time>
</trkpt>
<trkpt lat="32.5352500" lon="35.3754600">
<ele>285.470001</ele>
<time>2024-04-03T11:44:44.178Z</time>
</trkpt>
<trkpt lat="32.5352300" lon="35.3754700">
<ele>285.220001</ele>
<time>2024-04-03T11:44:44.178Z</time>
</trkpt>
<trkpt lat="32.5351900" lon="35.3755000">
<ele>284.819977</ele>
<time>2024-04-03T11:44:44.178Z</time>
</trkpt>
<trkpt lat="32.5352300" lon="35.3754700">
<ele>285.220001</ele>
<time>2024-04-03T11:44:44.178Z</time>
</trkpt>
<trkpt lat="32.5352500" lon="35.3754600">
<ele>285.470001</ele>
<time>2024-04-03T11:44:44.178Z</time>
</trkpt>
<trkpt lat="32.5353200" lon="35.3754500">
<ele>286.029999</ele>
<time>2024-04-03T11:44:44.178Z</time>
</trkpt>
<trkpt lat="32.5353600" lon="35.3754300">
<ele>286.049988</ele>
<time>2024-04-03T11:44:44.178Z</time>
</trkpt>
<trkpt lat="32.5353900" lon="35.3753900">
<ele>285.929993</ele>
<time>2024-04-03T11:44:44.178Z</time>
</trkpt>
<trkpt lat="32.5354100" lon="35.3752600">
<ele>285.330017</ele>
<time>2024-04-03T11:44:44.178Z</time>
</trkpt>
<trkpt lat="32.5355100" lon="35.3750400">
<ele>285.510010</ele>
<time>2024-04-03T11:44:44.178Z</time>
</trkpt>
<trkpt lat="32.5355900" lon="35.3749900">
<ele>286.220001</ele>
<time>2024-04-03T11:44:44.178Z</time>
</trkpt>
<trkpt lat="32.5356600" lon="35.3749700">
<ele>286.730011</ele>
<time>2024-04-03T11:44:44.178Z</time>
</trkpt>
<trkpt lat="32.5357300" lon="35.3749700">
<ele>287.279999</ele>
<time>2024-04-03T11:44:44.178Z</time>
</trkpt>
<trkpt lat="32.5358200" lon="35.3749400">
<ele>288.100006</ele>
<time>2024-04-03T11:44:44.178Z</time>
</trkpt>
<trkpt lat="32.5358400" lon="35.3749000">
<ele>288.339996</ele>
<time>2024-04-03T11:44:44.178Z</time>
</trkpt>
<trkpt lat="32.5358700" lon="35.3747400">
<ele>289.040009</ele>
<time>2024-04-03T11:44:44.178Z</time>
</trkpt>
<trkpt lat="32.5358000" lon="35.3746700">
<ele>287.929993</ele>
<time>2024-04-03T11:44:44.178Z</time>
</trkpt>
<trkpt lat="32.5357200" lon="35.3746000">
<ele>285.869995</ele>
<time>2024-04-03T11:44:44.178Z</time>
</trkpt>
<trkpt lat="32.5355800" lon="35.3745800">
<ele>283.350006</ele>
<time>2024-04-03T11:44:44.178Z</time>
</trkpt>
<trkpt lat="32.5354700" lon="35.3746000">
<ele>281.660004</ele>
<time>2024-04-03T11:44:44.178Z</time>
</trkpt>
<trkpt lat="32.5352100" lon="35.3747500">
<ele>277.860016</ele>
<time>2024-04-03T11:44:44.178Z</time>
</trkpt>
<trkpt lat="32.5347400" lon="35.3750900">
<ele>273.269989</ele>
<time>2024-04-03T11:44:44.178Z</time>
</trkpt>
<trkpt lat="32.5343900" lon="35.3753400">
<ele>273.660004</ele>
<time>2024-04-03T11:44:44.178Z</time>
</trkpt>
<trkpt lat="32.5342700" lon="35.3754100">
<ele>273.980011</ele>
<time>2024-04-03T11:44:44.178Z</time>
</trkpt>
<trkpt lat="32.5343900" lon="35.3749100">
<ele>269.410004</ele>
<time>2024-04-03T11:44:44.178Z</time>
</trkpt>
<trkpt lat="32.5341900" lon="35.3750700">
<ele>271.209991</ele>
<time>2024-04-03T11:44:44.178Z</time>
</trkpt>
<trkpt lat="32.5333700" lon="35.3757000">
<ele>255.320007</ele>
<time>2024-04-03T11:44:44.178Z</time>
</trkpt>
<trkpt lat="32.5329300" lon="35.3758200">
<ele>256.380005</ele>
<time>2024-04-03T11:44:44.178Z</time>
</trkpt>
<trkpt lat="32.5326700" lon="35.3758000">
<ele>257.950012</ele>
<time>2024-04-03T11:44:44.178Z</time>
</trkpt>
<trkpt lat="32.5325900" lon="35.3757600">
<ele>257.820007</ele>
<time>2024-04-03T11:44:44.178Z</time>
</trkpt>
<trkpt lat="32.5324800" lon="35.3757200">
<ele>257.420013</ele>
<time>2024-04-03T11:44:44.178Z</time>
</trkpt>
<trkpt lat="32.5321500" lon="35.3753500">
<ele>251.449997</ele>
<time>2024-04-03T11:44:44.178Z</time>
</trkpt>
<trkpt lat="32.5319700" lon="35.3753200">
<ele>246.440002</ele>
<time>2024-04-03T11:44:44.178Z</time>
</trkpt>
<trkpt lat="32.5318000" lon="35.3753200">
<ele>244.040009</ele>
<time>2024-04-03T11:44:44.178Z</time>
</trkpt>
<trkpt lat="32.5307800" lon="35.3758800">
<ele>235.360001</ele>
<time>2024-04-03T11:44:44.178Z</time>
</trkpt>
<trkpt lat="32.5306200" lon="35.3759200">
<ele>233.889999</ele>
<time>2024-04-03T11:44:44.178Z</time>
</trkpt>
<trkpt lat="32.5304500" lon="35.3759300">
<ele>234.270004</ele>
<time>2024-04-03T11:44:44.178Z</time>
</trkpt>
<trkpt lat="32.5303000" lon="35.3759200">
<ele>235.430008</ele>
<time>2024-04-03T11:44:44.178Z</time>
</trkpt>
<trkpt lat="32.5301500" lon="35.3758400">
<ele>235.030014</ele>
<time>2024-04-03T11:44:44.178Z</time>
</trkpt>
<trkpt lat="32.5300900" lon="35.3756600">
<ele>234.979996</ele>
<time>2024-04-03T11:44:44.178Z</time>
</trkpt>
<trkpt lat="32.5300500" lon="35.3754800">
<ele>234.270004</ele>
<time>2024-04-03T11:44:44.178Z</time>
</trkpt>
<trkpt lat="32.5300300" lon="35.3746100">
<ele>230.680008</ele>
<time>2024-04-03T11:44:44.178Z</time>
</trkpt>
<trkpt lat="32.5298800" lon="35.3739600">
<ele>226.429993</ele>
<time>2024-04-03T11:44:44.178Z</time>
</trkpt>
<trkpt lat="32.5297400" lon="35.3740600">
<ele>225.209991</ele>
<time>2024-04-03T11:44:44.178Z</time>
</trkpt>
<trkpt lat="32.5296600" lon="35.3742000">
<ele>225.549988</ele>
<time>2024-04-03T11:44:44.178Z</time>
</trkpt>
<trkpt lat="32.5294800" lon="35.3743700">
<ele>225.019989</ele>
<time>2024-04-03T11:44:44.178Z</time>
</trkpt>
<trkpt lat="32.5292100" lon="35.3745900">
<ele>224.119995</ele>
<time>2024-04-03T11:44:44.178Z</time>
</trkpt>
<trkpt lat="32.5290000" lon="35.3747400">
<ele>222.309998</ele>
<time>2024-04-03T11:44:44.178Z</time>
</trkpt>
<trkpt lat="32.5288400" lon="35.3748100">
<ele>220.580002</ele>
<time>2024-04-03T11:44:44.178Z</time>
</trkpt>
<trkpt lat="32.5283800" lon="35.3748900">
<ele>212.970001</ele>
<time>2024-04-03T11:44:44.178Z</time>
</trkpt>
<trkpt lat="32.5279200" lon="35.3750100">
<ele>206.949997</ele>
<time>2024-04-03T11:44:44.178Z</time>
</trkpt>
<trkpt lat="32.5277400" lon="35.3750800">
<ele>205.669998</ele>
<time>2024-04-03T11:44:44.178Z</time>
</trkpt>
<trkpt lat="32.5274500" lon="35.3752200">
<ele>203.430008</ele>
<time>2024-04-03T11:44:44.178Z</time>
</trkpt>
<trkpt lat="32.5272300" lon="35.3753400">
<ele>208.149994</ele>
<time>2024-04-03T11:44:44.178Z</time>
</trkpt>
<trkpt lat="32.5270700" lon="35.3754600">
<ele>207.940002</ele>
<time>2024-04-03T11:44:44.178Z</time>
</trkpt>
<trkpt lat="32.5270200" lon="35.3755200">
<ele>207.750000</ele>
<time>2024-04-03T11:44:44.178Z</time>
</trkpt>
<trkpt lat="32.5269400" lon="35.3756900">
<ele>208.040009</ele>
<time>2024-04-03T11:44:44.178Z</time>
</trkpt>
<trkpt lat="32.5267900" lon="35.3766700">
<ele>208.989990</ele>
<time>2024-04-03T11:44:44.178Z</time>
</trkpt>
<trkpt lat="32.5266700" lon="35.3775300">
<ele>206.589996</ele>
<time>2024-04-03T11:44:44.178Z</time>
</trkpt>
<trkpt lat="32.5266400" lon="35.3777200">
<ele>204.590012</ele>
<time>2024-04-03T11:44:44.178Z</time>
</trkpt>
<trkpt lat="32.5265300" lon="35.3779900">
<ele>203.130005</ele>
<time>2024-04-03T11:44:44.178Z</time>
</trkpt>
<trkpt lat="32.5261100" lon="35.3787900">
<ele>191.709991</ele>
<time>2024-04-03T11:44:44.178Z</time>
</trkpt>
<trkpt lat="32.5259600" lon="35.3790200">
<ele>190.720001</ele>
<time>2024-04-03T11:44:44.178Z</time>
</trkpt>
<trkpt lat="32.5258400" lon="35.3791100">
<ele>192.660004</ele>
<time>2024-04-03T11:44:44.178Z</time>
</trkpt>
<trkpt lat="32.5255700" lon="35.3795300">
<ele>199.000000</ele>
<time>2024-04-03T11:44:44.178Z</time>
</trkpt>
<trkpt lat="32.5252200" lon="35.3802900">
<ele>200.169998</ele>
<time>2024-04-03T11:44:44.178Z</time>
</trkpt>
<trkpt lat="32.5251100" lon="35.3809900">
<ele>202.519989</ele>
<time>2024-04-03T11:44:44.178Z</time>
</trkpt>
<trkpt lat="32.5250900" lon="35.3812000">
<ele>203.959991</ele>
<time>2024-04-03T11:44:44.178Z</time>
</trkpt>
<trkpt lat="32.5250100" lon="35.3816100">
<ele>206.600006</ele>
<time>2024-04-03T11:44:44.178Z</time>
</trkpt>
<trkpt lat="32.5246800" lon="35.3821000">
<ele>209.880005</ele>
<time>2024-04-03T11:44:44.178Z</time>
</trkpt>
<trkpt lat="32.5245600" lon="35.3825100">
<ele>207.480011</ele>
<time>2024-04-03T11:44:44.178Z</time>
</trkpt>
<trkpt lat="32.5244500" lon="35.3828200">
<ele>204.380005</ele>
<time>2024-04-03T11:44:44.178Z</time>
</trkpt>
<trkpt lat="32.5244000" lon="35.3830900">
<ele>200.829987</ele>
<time>2024-04-03T11:44:44.178Z</time>
</trkpt>
<trkpt lat="32.5242600" lon="35.3833100">
<ele>197.400009</ele>
<time>2024-04-03T11:44:44.178Z</time>
</trkpt>
<trkpt lat="32.5241100" lon="35.3836500">
<ele>197.220001</ele>
<time>2024-04-03T11:44:44.178Z</time>
</trkpt>
<trkpt lat="32.5238800" lon="35.3840500">
<ele>197.139999</ele>
<time>2024-04-03T11:44:44.178Z</time>
</trkpt>
<trkpt lat="32.5237500" lon="35.3843600">
<ele>194.199997</ele>
<time>2024-04-03T11:44:44.178Z</time>
</trkpt>
<trkpt lat="32.5236900" lon="35.3847200">
<ele>196.259995</ele>
<time>2024-04-03T11:44:44.178Z</time>
</trkpt>
<trkpt lat="32.5236900" lon="35.3847800">
<ele>196.849991</ele>
<time>2024-04-03T11:44:44.178Z</time>
</trkpt>
<trkpt lat="32.5236900" lon="35.3848700">
<ele>197.729996</ele>
<time>2024-04-03T11:44:44.178Z</time>
</trkpt>
<trkpt lat="32.5236900" lon="35.3850000">
<ele>199.000000</ele>
<time>2024-04-03T11:44:44.178Z</time>
</trkpt>
<trkpt lat="32.5241400" lon="35.3855400">
<ele>197.410004</ele>
<time>2024-04-03T11:44:44.178Z</time>
</trkpt>
<trkpt lat="32.5241800" lon="35.3856200">
<ele>197.709991</ele>
<time>2024-04-03T11:44:44.178Z</time>
</trkpt>
<trkpt lat="32.5246400" lon="35.3861800">
<ele>195.799988</ele>
<time>2024-04-03T11:44:44.178Z</time>
</trkpt>
<trkpt lat="32.5253200" lon="35.3868800">
<ele>191.130005</ele>
<time>2024-04-03T11:44:44.178Z</time>
</trkpt>
<trkpt lat="32.5256600" lon="35.3871600">
<ele>187.709991</ele>
<time>2024-04-03T11:44:44.178Z</time>
</trkpt>
<trkpt lat="32.5258900" lon="35.3871700">
<ele>184.430008</ele>
<time>2024-04-03T11:44:44.178Z</time>
</trkpt>
<trkpt lat="32.5263200" lon="35.3872700">
<ele>187.440002</ele>
<time>2024-04-03T11:44:44.178Z</time>
</trkpt>
<trkpt lat="32.5265700" lon="35.3873700">
<ele>187.270004</ele>
<time>2024-04-03T11:44:44.178Z</time>
</trkpt>
<trkpt lat="32.5268000" lon="35.3875100">
<ele>187.630005</ele>
<time>2024-04-03T11:44:44.178Z</time>
</trkpt>
<trkpt lat="32.5268800" lon="35.3876400">
<ele>188.739990</ele>
<time>2024-04-03T11:44:44.178Z</time>
</trkpt>
<trkpt lat="32.5268900" lon="35.3877300">
<ele>189.679993</ele>
<time>2024-04-03T11:44:44.178Z</time>
</trkpt>
<trkpt lat="32.5268700" lon="35.3878800">
<ele>190.199997</ele>
<time>2024-04-03T11:44:44.178Z</time>
</trkpt>
<trkpt lat="32.5267500" lon="35.3882800">
<ele>191.880005</ele>
<time>2024-04-03T11:44:44.178Z</time>
</trkpt>
<trkpt lat="32.5266200" lon="35.3885900">
<ele>195.940002</ele>
<time>2024-04-03T11:44:44.178Z</time>
</trkpt>
<trkpt lat="32.5262600" lon="35.3892600">
<ele>200.029999</ele>
<time>2024-04-03T11:44:44.178Z</time>
</trkpt>
<trkpt lat="32.5261500" lon="35.3895600">
<ele>200.669998</ele>
<time>2024-04-03T11:44:44.178Z</time>
</trkpt>
<trkpt lat="32.5258200" lon="35.3902500">
<ele>200.360001</ele>
<time>2024-04-03T11:44:44.178Z</time>
</trkpt>
<trkpt lat="32.5257400" lon="35.3903400">
<ele>197.199997</ele>
<time>2024-04-03T11:44:44.178Z</time>
</trkpt>
<trkpt lat="32.5255100" lon="35.3907000">
<ele>193.199997</ele>
<time>2024-04-03T11:44:44.178Z</time>
</trkpt>
<trkpt lat="32.5247600" lon="35.3918600">
<ele>198.340012</ele>
<time>2024-04-03T11:44:44.178Z</time>
</trkpt>
<trkpt lat="32.5243900" lon="35.3925600">
<ele>200.890015</ele>
<time>2024-04-03T11:44:44.178Z</time>
</trkpt>
<trkpt lat="32.5243100" lon="35.3926800">
<ele>202.710007</ele>
<time>2024-04-03T11:44:44.178Z</time>
</trkpt>
<trkpt lat="32.5241300" lon="35.3928700">
<ele>206.949997</ele>
<time>2024-04-03T11:44:44.178Z</time>
</trkpt>
<trkpt lat="32.5241000" lon="35.3929200">
<ele>207.180008</ele>
<time>2024-04-03T11:44:44.178Z</time>
</trkpt>
<trkpt lat="32.5240600" lon="35.3930600">
<ele>207.229996</ele>
<time>2024-04-03T11:44:44.178Z</time>
</trkpt>
<trkpt lat="32.5236600" lon="35.3946300">
<ele>202.649994</ele>
<time>2024-04-03T11:44:44.178Z</time>
</trkpt>
<trkpt lat="32.5234000" lon="35.3952300">
<ele>207.489990</ele>
<time>2024-04-03T11:44:44.178Z</time>
</trkpt>
<trkpt lat="32.5231100" lon="35.3962200">
<ele>204.220001</ele>
<time>2024-04-03T11:44:44.178Z</time>
</trkpt>
<trkpt lat="32.5230100" lon="35.3968300">
<ele>204.460007</ele>
<time>2024-04-03T11:44:44.178Z</time>
</trkpt>
<trkpt lat="32.5229700" lon="35.3975900">
<ele>205.459991</ele>
<time>2024-04-03T11:44:44.178Z</time>
</trkpt>
<trkpt lat="32.5229500" lon="35.3976400">
<ele>205.830002</ele>
<time>2024-04-03T11:44:44.178Z</time>
</trkpt>
<trkpt lat="32.5229400" lon="35.3981700">
<ele>204.949997</ele>
<time>2024-04-03T11:44:44.178Z</time>
</trkpt>
<trkpt lat="32.5229200" lon="35.3983200">
<ele>204.029999</ele>
<time>2024-04-03T11:44:44.178Z</time>
</trkpt>
<trkpt lat="32.5228700" lon="35.3984500">
<ele>201.429993</ele>
<time>2024-04-03T11:44:44.178Z</time>
</trkpt>
<trkpt lat="32.5223700" lon="35.3988700">
<ele>205.199997</ele>
<time>2024-04-03T11:44:44.178Z</time>
</trkpt>
<trkpt lat="32.5221100" lon="35.3989700">
<ele>204.250000</ele>
<time>2024-04-03T11:44:44.178Z</time>
</trkpt>
<trkpt lat="32.5219200" lon="35.3989900">
<ele>205.490005</ele>
<time>2024-04-03T11:44:44.178Z</time>
</trkpt>
<trkpt lat="32.5212600" lon="35.3989700">
<ele>215.250000</ele>
<time>2024-04-03T11:44:44.178Z</time>
</trkpt>
<trkpt lat="32.5208400" lon="35.3988800">
<ele>221.910004</ele>
<time>2024-04-03T11:44:44.178Z</time>
</trkpt>
<trkpt lat="32.5206900" lon="35.3988800">
<ele>225.110001</ele>
<time>2024-04-03T11:44:44.178Z</time>
</trkpt>
<trkpt lat="32.5197200" lon="35.3989900">
<ele>235.719986</ele>
<time>2024-04-03T11:44:44.178Z</time>
</trkpt>
<trkpt lat="32.5195100" lon="35.3991200">
<ele>234.759995</ele>
<time>2024-04-03T11:44:44.178Z</time>
</trkpt>
<trkpt lat="32.5192200" lon="35.3994800">
<ele>248.000000</ele>
<time>2024-04-03T11:44:44.178Z</time>
</trkpt>
<trkpt lat="32.5191000" lon="35.3995300">
<ele>251.920013</ele>
<time>2024-04-03T11:44:44.178Z</time>
</trkpt>
<trkpt lat="32.5189400" lon="35.3995400">
<ele>255.929993</ele>
<time>2024-04-03T11:44:44.178Z</time>
</trkpt>
<trkpt lat="32.5188100" lon="35.3996200">
<ele>259.959991</ele>
<time>2024-04-03T11:44:44.178Z</time>
</trkpt>
<trkpt lat="32.5183300" lon="35.4002700">
<ele>268.019989</ele>
<time>2024-04-03T11:44:44.178Z</time>
</trkpt>
<trkpt lat="32.5181000" lon="35.4012600">
<ele>283.449982</ele>
<time>2024-04-03T11:44:44.178Z</time>
</trkpt>
<trkpt lat="32.5177700" lon="35.4024300">
<ele>296.690002</ele>
<time>2024-04-03T11:44:44.178Z</time>
</trkpt>
<trkpt lat="32.5177700" lon="35.4027700">
<ele>297.029999</ele>
<time>2024-04-03T11:44:44.178Z</time>
</trkpt>
<trkpt lat="32.5177500" lon="35.4028700">
<ele>296.569977</ele>
<time>2024-04-03T11:44:44.178Z</time>
</trkpt>
<trkpt lat="32.5175000" lon="35.4031700">
<ele>298.000000</ele>
<time>2024-04-03T11:44:44.178Z</time>
</trkpt>
<trkpt lat="32.5174700" lon="35.4032300">
<ele>298.339996</ele>
<time>2024-04-03T11:44:44.178Z</time>
</trkpt>
<trkpt lat="32.5174700" lon="35.4033500">
<ele>298.040009</ele>
<time>2024-04-03T11:44:44.178Z</time>
</trkpt>
<trkpt lat="32.5175300" lon="35.4037200">
<ele>293.369995</ele>
<time>2024-04-03T11:44:44.178Z</time>
</trkpt>
<trkpt lat="32.5175400" lon="35.4038400">
<ele>291.679993</ele>
<time>2024-04-03T11:44:44.178Z</time>
</trkpt>
<trkpt lat="32.5175200" lon="35.4042300">
<ele>286.070007</ele>
<time>2024-04-03T11:44:44.178Z</time>
</trkpt>
<trkpt lat="32.5174400" lon="35.4047000">
<ele>283.140015</ele>
<time>2024-04-03T11:44:44.178Z</time>
</trkpt>
<trkpt lat="32.5174400" lon="35.4049000">
<ele>282.579987</ele>
<time>2024-04-03T11:44:44.178Z</time>
</trkpt>
<trkpt lat="32.5175300" lon="35.4052000">
<ele>281.019989</ele>
<time>2024-04-03T11:44:44.178Z</time>
</trkpt>
<trkpt lat="32.5181300" lon="35.4061700">
<ele>277.940002</ele>
<time>2024-04-03T11:44:44.178Z</time>
</trkpt>
<trkpt lat="32.5181600" lon="35.4064200">
<ele>278.510010</ele>
<time>2024-04-03T11:44:44.178Z</time>
</trkpt>
<trkpt lat="32.5181500" lon="35.4066000">
<ele>277.899994</ele>
<time>2024-04-03T11:44:44.178Z</time>
</trkpt>
<trkpt lat="32.5180300" lon="35.4069600">
<ele>273.519989</ele>
<time>2024-04-03T11:44:44.178Z</time>
</trkpt>
<trkpt lat="32.5173000" lon="35.4074700">
<ele>270.079987</ele>
<time>2024-04-03T11:44:44.178Z</time>
</trkpt>
<trkpt lat="32.5172500" lon="35.4076800">
<ele>273.889984</ele>
<time>2024-04-03T11:44:44.178Z</time>
</trkpt>
<trkpt lat="32.5172600" lon="35.4077600">
<ele>274.790009</ele>
<time>2024-04-03T11:44:44.178Z</time>
</trkpt>
<trkpt lat="32.5175100" lon="35.4081000">
<ele>268.850006</ele>
<time>2024-04-03T11:44:44.178Z</time>
</trkpt>
<trkpt lat="32.5176400" lon="35.4085300">
<ele>268.239990</ele>
<time>2024-04-03T11:44:44.178Z</time>
</trkpt>
<trkpt lat="32.5176500" lon="35.4088200">
<ele>268.330017</ele>
<time>2024-04-03T11:44:44.178Z</time>
</trkpt>
<trkpt lat="32.5176400" lon="35.4092900">
<ele>265.429993</ele>
<time>2024-04-03T11:44:44.178Z</time>
</trkpt>
<trkpt lat="32.5172100" lon="35.4099700">
<ele>263.320007</ele>
<time>2024-04-03T11:44:44.178Z</time>
</trkpt>
<trkpt lat="32.5170800" lon="35.4105200">
<ele>261.149994</ele>
<time>2024-04-03T11:44:44.178Z</time>
</trkpt>
<trkpt lat="32.5169300" lon="35.4107500">
<ele>261.929993</ele>
<time>2024-04-03T11:44:44.178Z</time>
</trkpt>
<trkpt lat="32.5167300" lon="35.4112700">
<ele>258.950012</ele>
<time>2024-04-03T11:44:44.178Z</time>
</trkpt>
<trkpt lat="32.5166300" lon="35.4113800">
<ele>258.329987</ele>
<time>2024-04-03T11:44:44.178Z</time>
</trkpt>
<trkpt lat="32.5163800" lon="35.4115600">
<ele>257.720001</ele>
<time>2024-04-03T11:44:44.178Z</time>
</trkpt>
<trkpt lat="32.5162800" lon="35.4119800">
<ele>250.849991</ele>
<time>2024-04-03T11:44:44.178Z</time>
</trkpt>
<trkpt lat="32.5161500" lon="35.4121800">
<ele>247.139999</ele>
<time>2024-04-03T11:44:44.178Z</time>
</trkpt>
<trkpt lat="32.5160800" lon="35.4123800">
<ele>241.660004</ele>
<time>2024-04-03T11:44:44.178Z</time>
</trkpt>
<trkpt lat="32.5159300" lon="35.4124800">
<ele>241.649994</ele>
<time>2024-04-03T11:44:44.178Z</time>
</trkpt>
<trkpt lat="32.5157400" lon="35.4125100">
<ele>244.400009</ele>
<time>2024-04-03T11:44:44.178Z</time>
</trkpt>
<trkpt lat="32.5154800" lon="35.4125200">
<ele>249.330002</ele>
<time>2024-04-03T11:44:44.178Z</time>
</trkpt>
<trkpt lat="32.5154500" lon="35.4125600">
<ele>249.449997</ele>
<time>2024-04-03T11:44:44.178Z</time>
</trkpt>
<trkpt lat="32.5154300" lon="35.4128100">
<ele>247.060013</ele>
<time>2024-04-03T11:44:44.178Z</time>
</trkpt>
<trkpt lat="32.5154300" lon="35.4131400">
<ele>246.419998</ele>
<time>2024-04-03T11:44:44.178Z</time>
</trkpt>
<trkpt lat="32.5154500" lon="35.4132300">
<ele>245.229996</ele>
<time>2024-04-03T11:44:44.178Z</time>
</trkpt>
<trkpt lat="32.5154500" lon="35.4135200">
<ele>244.150009</ele>
<time>2024-04-03T11:44:44.178Z</time>
</trkpt>
<trkpt lat="32.5154500" lon="35.4138100">
<ele>242.909988</ele>
<time>2024-04-03T11:44:44.178Z</time>
</trkpt>
<trkpt lat="32.5154300" lon="35.4140700">
<ele>241.500000</ele>
<time>2024-04-03T11:44:44.178Z</time>
</trkpt>
<trkpt lat="32.5153600" lon="35.4135700">
<ele>245.730011</ele>
<time>2024-04-03T11:44:44.178Z</time>
</trkpt>
<trkpt lat="32.5153100" lon="35.4134900">
<ele>247.189987</ele>
<time>2024-04-03T11:44:44.178Z</time>
</trkpt>
<trkpt lat="32.5152300" lon="35.4136000">
<ele>249.139999</ele>
<time>2024-04-03T11:44:44.178Z</time>
</trkpt>
<trkpt lat="32.5152300" lon="35.4138100">
<ele>247.630005</ele>
<time>2024-04-03T11:44:44.178Z</time>
</trkpt>
<trkpt lat="32.5150600" lon="35.4144100">
<ele>249.779984</ele>
<time>2024-04-03T11:44:44.178Z</time>
</trkpt>
<trkpt lat="32.5149200" lon="35.4146600">
<ele>252.490005</ele>
<time>2024-04-03T11:44:44.178Z</time>
</trkpt>
<trkpt lat="32.5144000" lon="35.4150900">
<ele>260.500000</ele>
<time>2024-04-03T11:44:44.178Z</time>
</trkpt>
<trkpt lat="32.5140700" lon="35.4153900">
<ele>262.720001</ele>
<time>2024-04-03T11:44:44.178Z</time>
</trkpt>
<trkpt lat="32.5140400" lon="35.4153900">
<ele>263.200012</ele>
<time>2024-04-03T11:44:44.178Z</time>
</trkpt>
<trkpt lat="32.5140400" lon="35.4153100">
<ele>263.640015</ele>
<time>2024-04-03T11:44:44.178Z</time>
</trkpt>
<trkpt lat="32.5141200" lon="35.4152300">
<ele>263.359985</ele>
<time>2024-04-03T11:44:44.178Z</time>
</trkpt>
<trkpt lat="32.5146400" lon="35.4144800">
<ele>268.010010</ele>
<time>2024-04-03T11:44:44.178Z</time>
</trkpt>
<trkpt lat="32.5146800" lon="35.4142500">
<ele>268.550018</ele>
<time>2024-04-03T11:44:44.178Z</time>
</trkpt>
<trkpt lat="32.5146900" lon="35.4139100">
<ele>272.109985</ele>
<time>2024-04-03T11:44:44.178Z</time>
</trkpt>
<trkpt lat="32.5146900" lon="35.4134600">
<ele>275.899994</ele>
<time>2024-04-03T11:44:44.178Z</time>
</trkpt>
<trkpt lat="32.5146700" lon="35.4134300">
<ele>276.970001</ele>
<time>2024-04-03T11:44:44.178Z</time>
</trkpt>
<trkpt lat="32.5146200" lon="35.4134300">
<ele>278.889984</ele>
<time>2024-04-03T11:44:44.178Z</time>
</trkpt>
<trkpt lat="32.5145600" lon="35.4135100">
<ele>280.669983</ele>
<time>2024-04-03T11:44:44.178Z</time>
</trkpt>
<trkpt lat="32.5145300" lon="35.4138700">
<ele>279.440002</ele>
<time>2024-04-03T11:44:44.178Z</time>
</trkpt>
<trkpt lat="32.5140300" lon="35.4145300">
<ele>286.179993</ele>
<time>2024-04-03T11:44:44.178Z</time>
</trkpt>
<trkpt lat="32.5139700" lon="35.4145500">
<ele>286.830017</ele>
<time>2024-04-03T11:44:44.178Z</time>
</trkpt>
<trkpt lat="32.5141000" lon="35.4138300">
<ele>297.919983</ele>
<time>2024-04-03T11:44:44.178Z</time>
</trkpt>
<trkpt lat="32.5141200" lon="35.4127400">
<ele>303.160004</ele>
<time>2024-04-03T11:44:44.178Z</time>
</trkpt>
<trkpt lat="32.5141400" lon="35.4124600">
<ele>305.479980</ele>
<time>2024-04-03T11:44:44.178Z</time>
</trkpt>
<trkpt lat="32.5142100" lon="35.4120800">
<ele>305.230011</ele>
<time>2024-04-03T11:44:44.178Z</time>
</trkpt>
<trkpt lat="32.5142000" lon="35.4119800">
<ele>305.580017</ele>
<time>2024-04-03T11:44:44.178Z</time>
</trkpt>
<trkpt lat="32.5141800" lon="35.4119500">
<ele>305.850006</ele>
<time>2024-04-03T11:44:44.178Z</time>
</trkpt>
<trkpt lat="32.5141400" lon="35.4119500">
<ele>306.769989</ele>
<time>2024-04-03T11:44:44.178Z</time>
</trkpt>
<trkpt lat="32.5140700" lon="35.4119700">
<ele>308.820007</ele>
<time>2024-04-03T11:44:44.178Z</time>
</trkpt>
<trkpt lat="32.5136700" lon="35.4132500">
<ele>315.459991</ele>
<time>2024-04-03T11:44:44.178Z</time>
</trkpt>
<trkpt lat="32.5134800" lon="35.4136900">
<ele>315.130005</ele>
<time>2024-04-03T11:44:44.178Z</time>
</trkpt>
<trkpt lat="32.5134100" lon="35.4137500">
<ele>315.980011</ele>
<time>2024-04-03T11:44:44.178Z</time>
</trkpt>
<trkpt lat="32.5133900" lon="35.4136700">
<ele>317.179993</ele>
<time>2024-04-03T11:44:44.178Z</time>
</trkpt>
<trkpt lat="32.5134500" lon="35.4134900">
<ele>317.279968</ele>
<time>2024-04-03T11:44:44.178Z</time>
</trkpt>
<trkpt lat="32.5135100" lon="35.4121300">
<ele>332.269989</ele>
<time>2024-04-03T11:44:44.178Z</time>
</trkpt>
<trkpt lat="32.5135700" lon="35.4118300">
<ele>333.509979</ele>
<time>2024-04-03T11:44:44.178Z</time>
</trkpt>
<trkpt lat="32.5135400" lon="35.4118000">
<ele>334.990021</ele>
<time>2024-04-03T11:44:44.178Z</time>
</trkpt>
<trkpt lat="32.5132900" lon="35.4124500">
<ele>335.300018</ele>
<time>2024-04-03T11:44:44.178Z</time>
</trkpt>
<trkpt lat="32.5128600" lon="35.4132700">
<ele>338.630005</ele>
<time>2024-04-03T11:44:44.178Z</time>
</trkpt>
<trkpt lat="32.5126700" lon="35.4134500">
<ele>342.199982</ele>
<time>2024-04-03T11:44:44.178Z</time>
</trkpt>
<trkpt lat="32.5126300" lon="35.4134600">
<ele>342.940002</ele>
<time>2024-04-03T11:44:44.178Z</time>
</trkpt>
<trkpt lat="32.5126200" lon="35.4134300">
<ele>343.170013</ele>
<time>2024-04-03T11:44:44.178Z</time>
</trkpt>
<trkpt lat="32.5127100" lon="35.4132400">
<ele>342.480011</ele>
<time>2024-04-03T11:44:44.178Z</time>
</trkpt>
<trkpt lat="32.5128600" lon="35.4126900">
<ele>343.600006</ele>
<time>2024-04-03T11:44:44.178Z</time>
</trkpt>
<trkpt lat="32.5128700" lon="35.4121200">
<ele>351.369995</ele>
<time>2024-04-03T11:44:44.178Z</time>
</trkpt>
<trkpt lat="32.5131200" lon="35.4111700">
<ele>356.510010</ele>
<time>2024-04-03T11:44:44.178Z</time>
</trkpt>
<trkpt lat="32.5132200" lon="35.4104100">
<ele>371.130005</ele>
<time>2024-04-03T11:44:44.178Z</time>
</trkpt>
<trkpt lat="32.5132000" lon="35.4103700">
<ele>371.949982</ele>
<time>2024-04-03T11:44:44.178Z</time>
</trkpt>
<trkpt lat="32.5131200" lon="35.4104400">
<ele>371.519989</ele>
<time>2024-04-03T11:44:44.178Z</time>
</trkpt>
<trkpt lat="32.5130200" lon="35.4107300">
<ele>368.540009</ele>
<time>2024-04-03T11:44:44.178Z</time>
</trkpt>
<trkpt lat="32.5125000" lon="35.4116100">
<ele>379.410004</ele>
<time>2024-04-03T11:44:44.178Z</time>
</trkpt>
<trkpt lat="32.5123300" lon="35.4120600">
<ele>378.289978</ele>
<time>2024-04-03T11:44:44.178Z</time>
</trkpt>
<trkpt lat="32.5123000" lon="35.4120700">
<ele>379.109985</ele>
<time>2024-04-03T11:44:44.178Z</time>
</trkpt>
<trkpt lat="32.5122800" lon="35.4118800">
<ele>381.449982</ele>
<time>2024-04-03T11:44:44.178Z</time>
</trkpt>
<trkpt lat="32.5128000" lon="35.4101300">
<ele>384.669983</ele>
<time>2024-04-03T11:44:44.178Z</time>
</trkpt>
<trkpt lat="32.5129200" lon="35.4093500">
<ele>398.839996</ele>
<time>2024-04-03T11:44:44.178Z</time>
</trkpt>
<trkpt lat="32.5130000" lon="35.4091200">
<ele>399.070007</ele>
<time>2024-04-03T11:44:44.178Z</time>
</trkpt>
<trkpt lat="32.5129300" lon="35.4090800">
<ele>400.540009</ele>
<time>2024-04-03T11:44:44.178Z</time>
</trkpt>
<trkpt lat="32.5120700" lon="35.4104800">
<ele>414.969971</ele>
<time>2024-04-03T11:44:44.178Z</time>
</trkpt>
<trkpt lat="32.5116700" lon="35.4113600">
<ele>416.149994</ele>
<time>2024-04-03T11:44:44.178Z</time>
</trkpt>
<trkpt lat="32.5116300" lon="35.4113800">
<ele>417.010010</ele>
<time>2024-04-03T11:44:44.178Z</time>
</trkpt>
<trkpt lat="32.5118500" lon="35.4105900">
<ele>418.990021</ele>
<time>2024-04-03T11:44:44.178Z</time>
</trkpt>
<trkpt lat="32.5119000" lon="35.4101300">
<ele>422.729980</ele>
<time>2024-04-03T11:44:44.178Z</time>
</trkpt>
<trkpt lat="32.5122900" lon="35.4080700">
<ele>438.689972</ele>
<time>2024-04-03T11:44:44.178Z</time>
</trkpt>
<trkpt lat="32.5122800" lon="35.4078400">
<ele>440.350006</ele>
<time>2024-04-03T11:44:44.178Z</time>
</trkpt>
<trkpt lat="32.5122100" lon="35.4075200">
<ele>443.410004</ele>
<time>2024-04-03T11:44:44.178Z</time>
</trkpt>
<trkpt lat="32.5120100" lon="35.4068600">
<ele>451.820007</ele>
<time>2024-04-03T11:44:44.178Z</time>
</trkpt>
<trkpt lat="32.5120100" lon="35.4065000">
<ele>450.299988</ele>
<time>2024-04-03T11:44:44.178Z</time>
</trkpt>
<trkpt lat="32.5119700" lon="35.4065000">
<ele>450.849976</ele>
<time>2024-04-03T11:44:44.178Z</time>
</trkpt>
<trkpt lat="32.5118800" lon="35.4068200">
<ele>453.130005</ele>
<time>2024-04-03T11:44:44.178Z</time>
</trkpt>
<trkpt lat="32.5117900" lon="35.4079400">
<ele>456.809998</ele>
<time>2024-04-03T11:44:44.178Z</time>
</trkpt>
<trkpt lat="32.5117100" lon="35.4082400">
<ele>459.260010</ele>
<time>2024-04-03T11:44:44.178Z</time>
</trkpt>
<trkpt lat="32.5114600" lon="35.4086200">
<ele>466.049988</ele>
<time>2024-04-03T11:44:44.178Z</time>
</trkpt>
<trkpt lat="32.5113100" lon="35.4085800">
<ele>471.750000</ele>
<time>2024-04-03T11:44:44.178Z</time>
</trkpt>
<trkpt lat="32.5112000" lon="35.4085800">
<ele>474.040009</ele>
<time>2024-04-03T11:44:44.178Z</time>
</trkpt>
<trkpt lat="32.5112800" lon="35.4085900">
<ele>472.370026</ele>
<time>2024-04-03T11:44:44.178Z</time>
</trkpt>
<trkpt lat="32.5108700" lon="35.4081100">
<ele>477.599976</ele>
<time>2024-04-03T11:44:44.178Z</time>
</trkpt>
<trkpt lat="32.5108300" lon="35.4080400">
<ele>478.000000</ele>
<time>2024-04-03T11:44:44.178Z</time>
</trkpt>
<trkpt lat="32.5107300" lon="35.4080100">
<ele>478.000000</ele>
<time>2024-04-03T11:44:44.178Z</time>
</trkpt>
<trkpt lat="32.5102300" lon="35.4084300">
<ele>483.979980</ele>
<time>2024-04-03T11:44:44.178Z</time>
</trkpt>
<trkpt lat="32.5102300" lon="35.4083300">
<ele>483.330017</ele>
<time>2024-04-03T11:44:44.178Z</time>
</trkpt>
<trkpt lat="32.5102000" lon="35.4083500">
<ele>483.660004</ele>
<time>2024-04-03T11:44:44.178Z</time>
</trkpt>
<trkpt lat="32.5102300" lon="35.4083300">
<ele>483.330017</ele>
<time>2024-04-03T11:44:44.178Z</time>
</trkpt>
<trkpt lat="32.5102300" lon="35.4084300">
<ele>483.979980</ele>
<time>2024-04-03T11:44:44.178Z</time>
</trkpt>
<trkpt lat="32.5107300" lon="35.4080100">
<ele>478.000000</ele>
<time>2024-04-03T11:44:44.178Z</time>
</trkpt>
<trkpt lat="32.5108300" lon="35.4080400">
<ele>478.000000</ele>
<time>2024-04-03T11:44:44.178Z</time>
</trkpt>
<trkpt lat="32.5108600" lon="35.4081100">
<ele>477.709991</ele>
<time>2024-04-03T11:44:44.178Z</time>
</trkpt>
<trkpt lat="32.5113100" lon="35.4085600">
<ele>471.779999</ele>
<time>2024-04-03T11:44:44.178Z</time>
</trkpt>
<trkpt lat="32.5114800" lon="35.4086200">
<ele>464.960022</ele>
<time>2024-04-03T11:44:44.178Z</time>
</trkpt>
<trkpt lat="32.5117100" lon="35.4082000">
<ele>459.449982</ele>
<time>2024-04-03T11:44:44.178Z</time>
</trkpt>
<trkpt lat="32.5117800" lon="35.4079400">
<ele>457.200012</ele>
<time>2024-04-03T11:44:44.178Z</time>
</trkpt>
<trkpt lat="32.5118900" lon="35.4066900">
<ele>453.020020</ele>
<time>2024-04-03T11:44:44.178Z</time>
</trkpt>
<trkpt lat="32.5119600" lon="35.4064700">
<ele>450.679993</ele>
<time>2024-04-03T11:44:44.178Z</time>
</trkpt>
<trkpt lat="32.5123500" lon="35.4056800">
<ele>438.630005</ele>
<time>2024-04-03T11:44:44.178Z</time>
</trkpt>
<trkpt lat="32.5126300" lon="35.4048600">
<ele>434.720001</ele>
<time>2024-04-03T11:44:44.178Z</time>
</trkpt>
<trkpt lat="32.5128000" lon="35.4040100">
<ele>433.899994</ele>
<time>2024-04-03T11:44:44.178Z</time>
</trkpt>
<trkpt lat="32.5130500" lon="35.4033500">
<ele>429.160004</ele>
<time>2024-04-03T11:44:44.178Z</time>
</trkpt>
<trkpt lat="32.5135400" lon="35.4025000">
<ele>424.019989</ele>
<time>2024-04-03T11:44:44.178Z</time>
</trkpt>
<trkpt lat="32.5137400" lon="35.4019800">
<ele>416.760010</ele>
<time>2024-04-03T11:44:44.178Z</time>
</trkpt>
<trkpt lat="32.5142200" lon="35.4003400">
<ele>413.440002</ele>
<time>2024-04-03T11:44:44.178Z</time>
</trkpt>
<trkpt lat="32.5143200" lon="35.3998400">
<ele>413.340027</ele>
<time>2024-04-03T11:44:44.178Z</time>
</trkpt>
<trkpt lat="32.5144200" lon="35.3975900">
<ele>405.379974</ele>
<time>2024-04-03T11:44:44.178Z</time>
</trkpt>
<trkpt lat="32.5141400" lon="35.3975900">
<ele>402.550018</ele>
<time>2024-04-03T11:44:44.178Z</time>
</trkpt>
<trkpt lat="32.5139900" lon="35.3976000">
<ele>402.080017</ele>
<time>2024-04-03T11:44:44.178Z</time>
</trkpt>
<trkpt lat="32.5139600" lon="35.3976200">
<ele>402.120026</ele>
<time>2024-04-03T11:44:44.178Z</time>
</trkpt>
<trkpt lat="32.5138500" lon="35.3977000">
<ele>402.540009</ele>
<time>2024-04-03T11:44:44.178Z</time>
</trkpt>
<trkpt lat="32.5136800" lon="35.3978500">
<ele>404.399994</ele>
<time>2024-04-03T11:44:44.178Z</time>
</trkpt>
<trkpt lat="32.5132900" lon="35.3981900">
<ele>404.250000</ele>
<time>2024-04-03T11:44:44.178Z</time>
</trkpt>
<trkpt lat="32.5129500" lon="35.3984300">
<ele>405.039978</ele>
<time>2024-04-03T11:44:44.178Z</time>
</trkpt>
<trkpt lat="32.5127500" lon="35.3986100">
<ele>407.090027</ele>
<time>2024-04-03T11:44:44.178Z</time>
</trkpt>
<trkpt lat="32.5123900" lon="35.3990500">
<ele>407.949982</ele>
<time>2024-04-03T11:44:44.178Z</time>
</trkpt>
<trkpt lat="32.5118500" lon="35.3996100">
<ele>405.110016</ele>
<time>2024-04-03T11:44:44.178Z</time>
</trkpt>
<trkpt lat="32.5108400" lon="35.4008500">
<ele>395.360016</ele>
<time>2024-04-03T11:44:44.178Z</time>
</trkpt>
<trkpt lat="32.5104300" lon="35.4013700">
<ele>391.149994</ele>
<time>2024-04-03T11:44:44.178Z</time>
</trkpt>
<trkpt lat="32.5098000" lon="35.4020000">
<ele>382.819977</ele>
<time>2024-04-03T11:44:44.178Z</time>
</trkpt>
<trkpt lat="32.5097700" lon="35.4019200">
<ele>382.359985</ele>
<time>2024-04-03T11:44:44.178Z</time>
</trkpt>
<trkpt lat="32.5097500" lon="35.4017800">
<ele>382.260010</ele>
<time>2024-04-03T11:44:44.178Z</time>
</trkpt>
<trkpt lat="32.5097500" lon="35.4016300">
<ele>382.309998</ele>
<time>2024-04-03T11:44:44.178Z</time>
</trkpt>
<trkpt lat="32.5097400" lon="35.4013700">
<ele>382.190002</ele>
<time>2024-04-03T11:44:44.178Z</time>
</trkpt>
<trkpt lat="32.5097400" lon="35.4010200">
<ele>380.930023</ele>
<time>2024-04-03T11:44:44.178Z</time>
</trkpt>
<trkpt lat="32.5097400" lon="35.4009700">
<ele>380.750000</ele>
<time>2024-04-03T11:44:44.178Z</time>
</trkpt>
<trkpt lat="32.5097300" lon="35.4008900">
<ele>380.320007</ele>
<time>2024-04-03T11:44:44.178Z</time>
</trkpt>
<trkpt lat="32.5094200" lon="35.4003500">
<ele>381.170013</ele>
<time>2024-04-03T11:44:44.178Z</time>
</trkpt>
<trkpt lat="32.5092200" lon="35.3998700">
<ele>377.859985</ele>
<time>2024-04-03T11:44:44.178Z</time>
</trkpt>
<trkpt lat="32.5090500" lon="35.3995500">
<ele>377.519989</ele>
<time>2024-04-03T11:44:44.178Z</time>
</trkpt>
<trkpt lat="32.5089000" lon="35.3991500">
<ele>378.159973</ele>
<time>2024-04-03T11:44:44.178Z</time>
</trkpt>
<trkpt lat="32.5088500" lon="35.3990600">
<ele>378.209991</ele>
<time>2024-04-03T11:44:44.178Z</time>
</trkpt>
<trkpt lat="32.5087900" lon="35.3990200">
<ele>377.630005</ele>
<time>2024-04-03T11:44:44.178Z</time>
</trkpt>
<trkpt lat="32.5087100" lon="35.3988800">
<ele>377.420013</ele>
<time>2024-04-03T11:44:44.178Z</time>
</trkpt>
<trkpt lat="32.5086200" lon="35.3988100">
<ele>376.380005</ele>
<time>2024-04-03T11:44:44.178Z</time>
</trkpt>
<trkpt lat="32.5085600" lon="35.3987800">
<ele>375.910004</ele>
<time>2024-04-03T11:44:44.178Z</time>
</trkpt>
<trkpt lat="32.5085000" lon="35.3987200">
<ele>375.649994</ele>
<time>2024-04-03T11:44:44.178Z</time>
</trkpt>
<trkpt lat="32.5084100" lon="35.3986900">
<ele>375.059998</ele>
<time>2024-04-03T11:44:44.178Z</time>
</trkpt>
<trkpt lat="32.5082800" lon="35.3986200">
<ele>373.980011</ele>
<time>2024-04-03T11:44:44.178Z</time>
</trkpt>
<trkpt lat="32.5080800" lon="35.3983700">
<ele>370.289978</ele>
<time>2024-04-03T11:44:44.178Z</time>
</trkpt>
<trkpt lat="32.5080400" lon="35.3983400">
<ele>369.890015</ele>
<time>2024-04-03T11:44:44.178Z</time>
</trkpt>
<trkpt lat="32.5080000" lon="35.3982900">
<ele>370.040009</ele>
<time>2024-04-03T11:44:44.178Z</time>
</trkpt>
<trkpt lat="32.5079300" lon="35.3982600">
<ele>369.769989</ele>
<time>2024-04-03T11:44:44.178Z</time>
</trkpt>
<trkpt lat="32.5078600" lon="35.3981800">
<ele>369.859985</ele>
<time>2024-04-03T11:44:44.178Z</time>
</trkpt>
<trkpt lat="32.5077800" lon="35.3980300">
<ele>369.839996</ele>
<time>2024-04-03T11:44:44.178Z</time>
</trkpt>
<trkpt lat="32.5077100" lon="35.3979300">
<ele>368.670013</ele>
<time>2024-04-03T11:44:44.178Z</time>
</trkpt>
<trkpt lat="32.5075500" lon="35.3977700">
<ele>368.839996</ele>
<time>2024-04-03T11:44:44.178Z</time>
</trkpt>
<trkpt lat="32.5075000" lon="35.3976600">
<ele>369.420013</ele>
<time>2024-04-03T11:44:44.178Z</time>
</trkpt>
<trkpt lat="32.5074900" lon="35.3975500">
<ele>369.809998</ele>
<time>2024-04-03T11:44:44.178Z</time>
</trkpt>
<trkpt lat="32.5074800" lon="35.3974200">
<ele>369.959991</ele>
<time>2024-04-03T11:44:44.178Z</time>
</trkpt>
<trkpt lat="32.5074900" lon="35.3970800">
<ele>369.399994</ele>
<time>2024-04-03T11:44:44.178Z</time>
</trkpt>
<trkpt lat="32.5074800" lon="35.3970000">
<ele>369.000000</ele>
<time>2024-04-03T11:44:44.178Z</time>
</trkpt>
<trkpt lat="32.5073200" lon="35.3966300">
<ele>366.410004</ele>
<time>2024-04-03T11:44:44.178Z</time>
</trkpt>
<trkpt lat="32.5073000" lon="35.3964300">
<ele>366.120026</ele>
<time>2024-04-03T11:44:44.178Z</time>
</trkpt>
<trkpt lat="32.5073000" lon="35.3962100">
<ele>365.119995</ele>
<time>2024-04-03T11:44:44.178Z</time>
</trkpt>
<trkpt lat="32.5072800" lon="35.3960400">
<ele>363.850006</ele>
<time>2024-04-03T11:44:44.178Z</time>
</trkpt>
<trkpt lat="32.5072700" lon="35.3959400">
<ele>363.009979</ele>
<time>2024-04-03T11:44:44.178Z</time>
</trkpt>
<trkpt lat="32.5072800" lon="35.3957000">
<ele>360.489990</ele>
<time>2024-04-03T11:44:44.178Z</time>
</trkpt>
<trkpt lat="32.5070800" lon="35.3957700">
<ele>358.989990</ele>
<time>2024-04-03T11:44:44.178Z</time>
</trkpt>
<trkpt lat="32.5069400" lon="35.3957500">
<ele>356.929993</ele>
<time>2024-04-03T11:44:44.178Z</time>
</trkpt>
<trkpt lat="32.5068200" lon="35.3956700">
<ele>355.290009</ele>
<time>2024-04-03T11:44:44.178Z</time>
</trkpt>
<trkpt lat="32.5067300" lon="35.3955500">
<ele>354.709991</ele>
<time>2024-04-03T11:44:44.178Z</time>
</trkpt>
<trkpt lat="32.5066200" lon="35.3954300">
<ele>354.399994</ele>
<time>2024-04-03T11:44:44.178Z</time>
</trkpt>
<trkpt lat="32.5065300" lon="35.3953700">
<ele>353.860016</ele>
<time>2024-04-03T11:44:44.178Z</time>
</trkpt>
<trkpt lat="32.5063500" lon="35.3953400">
<ele>352.019989</ele>
<time>2024-04-03T11:44:44.178Z</time>
</trkpt>
<trkpt lat="32.5063000" lon="35.3952900">
<ele>351.650024</ele>
<time>2024-04-03T11:44:44.178Z</time>
</trkpt>
<trkpt lat="32.5062000" lon="35.3951200">
<ele>351.799988</ele>
<time>2024-04-03T11:44:44.178Z</time>
</trkpt>
<trkpt lat="32.5061000" lon="35.3947700">
<ele>352.729980</ele>
<time>2024-04-03T11:44:44.178Z</time>
</trkpt>
<trkpt lat="32.5060600" lon="35.3947200">
<ele>352.639984</ele>
<time>2024-04-03T11:44:44.178Z</time>
</trkpt>
<trkpt lat="32.5059900" lon="35.3945900">
<ele>352.810028</ele>
<time>2024-04-03T11:44:44.178Z</time>
</trkpt>
<trkpt lat="32.5058600" lon="35.3940700">
<ele>353.029999</ele>
<time>2024-04-03T11:44:44.178Z</time>
</trkpt>
<trkpt lat="32.5058500" lon="35.3939500">
<ele>353.050018</ele>
<time>2024-04-03T11:44:44.178Z</time>
</trkpt>
<trkpt lat="32.5058500" lon="35.3938800">
<ele>353.059998</ele>
<time>2024-04-03T11:44:44.178Z</time>
</trkpt>
<trkpt lat="32.5058700" lon="35.3936700">
<ele>353.339996</ele>
<time>2024-04-03T11:44:44.178Z</time>
</trkpt>
<trkpt lat="32.5058800" lon="35.3934500">
<ele>352.639984</ele>
<time>2024-04-03T11:44:44.178Z</time>
</trkpt>
<trkpt lat="32.5059100" lon="35.3933300">
<ele>352.649994</ele>
<time>2024-04-03T11:44:44.178Z</time>
</trkpt>
<trkpt lat="32.5059800" lon="35.3932100">
<ele>353.459991</ele>
<time>2024-04-03T11:44:44.178Z</time>
</trkpt>
<trkpt lat="32.5059900" lon="35.3931200">
<ele>353.079987</ele>
<time>2024-04-03T11:44:44.178Z</time>
</trkpt>
<trkpt lat="32.5060000" lon="35.3929400">
<ele>352.720001</ele>
<time>2024-04-03T11:44:44.178Z</time>
</trkpt>
<trkpt lat="32.5060200" lon="35.3928700">
<ele>352.790009</ele>
<time>2024-04-03T11:44:44.178Z</time>
</trkpt>
<trkpt lat="32.5061900" lon="35.3928400">
<ele>353.380005</ele>
<time>2024-04-03T11:44:44.178Z</time>
</trkpt>
<trkpt lat="32.5062300" lon="35.3927900">
<ele>353.429993</ele>
<time>2024-04-03T11:44:44.178Z</time>
</trkpt>
<trkpt lat="32.5062500" lon="35.3926600">
<ele>354.350006</ele>
<time>2024-04-03T11:44:44.178Z</time>
</trkpt>
<trkpt lat="32.5062600" lon="35.3924800">
<ele>355.750000</ele>
<time>2024-04-03T11:44:44.178Z</time>
</trkpt>
<trkpt lat="32.5063000" lon="35.3923800">
<ele>356.980011</ele>
<time>2024-04-03T11:44:44.178Z</time>
</trkpt>
<trkpt lat="32.5063200" lon="35.3923600">
<ele>357.260010</ele>
<time>2024-04-03T11:44:44.178Z</time>
</trkpt>
<trkpt lat="32.5063500" lon="35.3923500">
<ele>357.479980</ele>
<time>2024-04-03T11:44:44.178Z</time>
</trkpt>
<trkpt lat="32.5066900" lon="35.3923300">
<ele>356.839996</ele>
<time>2024-04-03T11:44:44.178Z</time>
</trkpt>
<trkpt lat="32.5068100" lon="35.3922500">
<ele>357.000000</ele>
<time>2024-04-03T11:44:44.178Z</time>
</trkpt>
<trkpt lat="32.5069700" lon="35.3920100">
<ele>359.100006</ele>
<time>2024-04-03T11:44:44.178Z</time>
</trkpt>
<trkpt lat="32.5070300" lon="35.3919800">
<ele>359.570007</ele>
<time>2024-04-03T11:44:44.178Z</time>
</trkpt>
<trkpt lat="32.5070800" lon="35.3919300">
<ele>360.229980</ele>
<time>2024-04-03T11:44:44.178Z</time>
</trkpt>
<trkpt lat="32.5071100" lon="35.3919100">
<ele>360.550018</ele>
<time>2024-04-03T11:44:44.178Z</time>
</trkpt>
<trkpt lat="32.5072000" lon="35.3918000">
<ele>362.119995</ele>
<time>2024-04-03T11:44:44.178Z</time>
</trkpt>
<trkpt lat="32.5072300" lon="35.3916300">
<ele>364.040009</ele>
<time>2024-04-03T11:44:44.178Z</time>
</trkpt>
<trkpt lat="32.5073000" lon="35.3913700">
<ele>363.309998</ele>
<time>2024-04-03T11:44:44.178Z</time>
</trkpt>
<trkpt lat="32.5073200" lon="35.3912600">
<ele>362.699982</ele>
<time>2024-04-03T11:44:44.178Z</time>
</trkpt>
<trkpt lat="32.5074000" lon="35.3911200">
<ele>359.650024</ele>
<time>2024-04-03T11:44:44.178Z</time>
</trkpt>
<trkpt lat="32.5074500" lon="35.3909200">
<ele>357.109985</ele>
<time>2024-04-03T11:44:44.178Z</time>
</trkpt>
<trkpt lat="32.5074600" lon="35.3907600">
<ele>356.400024</ele>
<time>2024-04-03T11:44:44.178Z</time>
</trkpt>
<trkpt lat="32.5074700" lon="35.3905500">
<ele>355.989990</ele>
<time>2024-04-03T11:44:44.178Z</time>
</trkpt>
<trkpt lat="32.5074800" lon="35.3902000">
<ele>356.559998</ele>
<time>2024-04-03T11:44:44.178Z</time>
</trkpt>
<trkpt lat="32.5075000" lon="35.3900800">
<ele>356.000000</ele>
<time>2024-04-03T11:44:44.178Z</time>
</trkpt>
<trkpt lat="32.5076700" lon="35.3894600">
<ele>351.449982</ele>
<time>2024-04-03T11:44:44.178Z</time>
</trkpt>
<trkpt lat="32.5077100" lon="35.3894100">
<ele>349.949982</ele>
<time>2024-04-03T11:44:44.178Z</time>
</trkpt>
<trkpt lat="32.5077900" lon="35.3889400">
<ele>345.559998</ele>
<time>2024-04-03T11:44:44.178Z</time>
</trkpt>
<trkpt lat="32.5077900" lon="35.3887800">
<ele>344.809998</ele>
<time>2024-04-03T11:44:44.178Z</time>
</trkpt>
<trkpt lat="32.5077800" lon="35.3886600">
<ele>344.290009</ele>
<time>2024-04-03T11:44:44.178Z</time>
</trkpt>
<trkpt lat="32.5076500" lon="35.3882600">
<ele>344.370026</ele>
<time>2024-04-03T11:44:44.178Z</time>
</trkpt>
<trkpt lat="32.5075400" lon="35.3880300">
<ele>343.829987</ele>
<time>2024-04-03T11:44:44.178Z</time>
</trkpt>
<trkpt lat="32.5074200" lon="35.3878900">
<ele>344.820007</ele>
<time>2024-04-03T11:44:44.178Z</time>
</trkpt>
<trkpt lat="32.5073600" lon="35.3878600">
<ele>345.759979</ele>
<time>2024-04-03T11:44:44.178Z</time>
</trkpt>
<trkpt lat="32.5073200" lon="35.3878000">
<ele>346.080017</ele>
<time>2024-04-03T11:44:44.178Z</time>
</trkpt>
<trkpt lat="32.5072900" lon="35.3877800">
<ele>346.550018</ele>
<time>2024-04-03T11:44:44.178Z</time>
</trkpt>
<trkpt lat="32.5072300" lon="35.3876900">
<ele>347.169983</ele>
<time>2024-04-03T11:44:44.178Z</time>
</trkpt>
<trkpt lat="32.5071500" lon="35.3874400">
<ele>346.450012</ele>
<time>2024-04-03T11:44:44.178Z</time>
</trkpt>
<trkpt lat="32.5071400" lon="35.3872700">
<ele>344.949982</ele>
<time>2024-04-03T11:44:44.178Z</time>
</trkpt>
<trkpt lat="32.5071400" lon="35.3871100">
<ele>343.670013</ele>
<time>2024-04-03T11:44:44.178Z</time>
</trkpt>
<trkpt lat="32.5071400" lon="35.3868600">
<ele>342.050018</ele>
<time>2024-04-03T11:44:44.178Z</time>
</trkpt>
<trkpt lat="32.5072000" lon="35.3863400">
<ele>340.990021</ele>
<time>2024-04-03T11:44:44.178Z</time>
</trkpt>
<trkpt lat="32.5072900" lon="35.3861300">
<ele>339.209991</ele>
<time>2024-04-03T11:44:44.178Z</time>
</trkpt>
<trkpt lat="32.5075300" lon="35.3856300">
<ele>332.660004</ele>
<time>2024-04-03T11:44:44.178Z</time>
</trkpt>
<trkpt lat="32.5076700" lon="35.3852300">
<ele>326.290009</ele>
<time>2024-04-03T11:44:44.178Z</time>
</trkpt>
<trkpt lat="32.5078500" lon="35.3849200">
<ele>317.230011</ele>
<time>2024-04-03T11:44:44.178Z</time>
</trkpt>
<trkpt lat="32.5079800" lon="35.3845600">
<ele>318.940002</ele>
<time>2024-04-03T11:44:44.178Z</time>
</trkpt>
<trkpt lat="32.5080600" lon="35.3843900">
<ele>319.590027</ele>
<time>2024-04-03T11:44:44.178Z</time>
</trkpt>
<trkpt lat="32.5081500" lon="35.3841600">
<ele>319.719971</ele>
<time>2024-04-03T11:44:44.178Z</time>
</trkpt>
<trkpt lat="32.5082300" lon="35.3837800">
<ele>323.100006</ele>
<time>2024-04-03T11:44:44.178Z</time>
</trkpt>
<trkpt lat="32.5082700" lon="35.3835400">
<ele>323.089996</ele>
<time>2024-04-03T11:44:44.178Z</time>
</trkpt>
<trkpt lat="32.5083500" lon="35.3829700">
<ele>315.149994</ele>
<time>2024-04-03T11:44:44.178Z</time>
</trkpt>
<trkpt lat="32.5083500" lon="35.3828700">
<ele>314.850006</ele>
<time>2024-04-03T11:44:44.178Z</time>
</trkpt>
<trkpt lat="32.5083400" lon="35.3827900">
<ele>314.869995</ele>
<time>2024-04-03T11:44:44.178Z</time>
</trkpt>
<trkpt lat="32.5082200" lon="35.3823300">
<ele>319.089996</ele>
<time>2024-04-03T11:44:44.178Z</time>
</trkpt>
<trkpt lat="32.5080900" lon="35.3821500">
<ele>321.779999</ele>
<time>2024-04-03T11:44:44.178Z</time>
</trkpt>
<trkpt lat="32.5080100" lon="35.3818600">
<ele>319.350006</ele>
<time>2024-04-03T11:44:44.178Z</time>
</trkpt>
<trkpt lat="32.5078800" lon="35.3816000">
<ele>318.160004</ele>
<time>2024-04-03T11:44:44.178Z</time>
</trkpt>
<trkpt lat="32.5077700" lon="35.3814500">
<ele>318.890015</ele>
<time>2024-04-03T11:44:44.178Z</time>
</trkpt>
<trkpt lat="32.5077400" lon="35.3814300">
<ele>319.549988</ele>
<time>2024-04-03T11:44:44.178Z</time>
</trkpt>
<trkpt lat="32.5076700" lon="35.3812900">
<ele>319.899994</ele>
<time>2024-04-03T11:44:44.178Z</time>
</trkpt>
<trkpt lat="32.5075300" lon="35.3810800">
<ele>320.709991</ele>
<time>2024-04-03T11:44:44.178Z</time>
</trkpt>
<trkpt lat="32.5074900" lon="35.3809600">
<ele>319.440002</ele>
<time>2024-04-03T11:44:44.178Z</time>
</trkpt>
<trkpt lat="32.5074600" lon="35.3808500">
<ele>318.009979</ele>
<time>2024-04-03T11:44:44.178Z</time>
</trkpt>
<trkpt lat="32.5073800" lon="35.3805600">
<ele>316.899994</ele>
<time>2024-04-03T11:44:44.178Z</time>
</trkpt>
<trkpt lat="32.5073300" lon="35.3804400">
<ele>316.389984</ele>
<time>2024-04-03T11:44:44.178Z</time>
</trkpt>
<trkpt lat="32.5073200" lon="35.3803100">
<ele>315.529999</ele>
<time>2024-04-03T11:44:44.178Z</time>
</trkpt>
<trkpt lat="32.5073600" lon="35.3801300">
<ele>314.740021</ele>
<time>2024-04-03T11:44:44.178Z</time>
</trkpt>
<trkpt lat="32.5074000" lon="35.3799400">
<ele>314.440002</ele>
<time>2024-04-03T11:44:44.178Z</time>
</trkpt>
<trkpt lat="32.5074000" lon="35.3797200">
<ele>314.730011</ele>
<time>2024-04-03T11:44:44.178Z</time>
</trkpt>
<trkpt lat="32.5074000" lon="35.3795000">
<ele>315.739990</ele>
<time>2024-04-03T11:44:44.178Z</time>
</trkpt>
<trkpt lat="32.5073800" lon="35.3793500">
<ele>316.529999</ele>
<time>2024-04-03T11:44:44.178Z</time>
</trkpt>
<trkpt lat="32.5073800" lon="35.3792800">
<ele>316.930023</ele>
<time>2024-04-03T11:44:44.178Z</time>
</trkpt>
<trkpt lat="32.5074000" lon="35.3792100">
<ele>317.380005</ele>
<time>2024-04-03T11:44:44.178Z</time>
</trkpt>
<trkpt lat="32.5075100" lon="35.3791200">
<ele>318.250000</ele>
<time>2024-04-03T11:44:44.178Z</time>
</trkpt>
<trkpt lat="32.5076500" lon="35.3790900">
<ele>319.509979</ele>
<time>2024-04-03T11:44:44.178Z</time>
</trkpt>
<trkpt lat="32.5077400" lon="35.3789600">
<ele>321.109985</ele>
<time>2024-04-03T11:44:44.178Z</time>
</trkpt>
<trkpt lat="32.5078200" lon="35.3788800">
<ele>322.419983</ele>
<time>2024-04-03T11:44:44.178Z</time>
</trkpt>
<trkpt lat="32.5078500" lon="35.3788600">
<ele>322.679993</ele>
<time>2024-04-03T11:44:44.178Z</time>
</trkpt>
<trkpt lat="32.5079500" lon="35.3788300">
<ele>323.650024</ele>
<time>2024-04-03T11:44:44.178Z</time>
</trkpt>
<trkpt lat="32.5080100" lon="35.3787800">
<ele>324.120026</ele>
<time>2024-04-03T11:44:44.178Z</time>
</trkpt>
<trkpt lat="32.5080400" lon="35.3787700">
<ele>324.399994</ele>
<time>2024-04-03T11:44:44.178Z</time>
</trkpt>
<trkpt lat="32.5080700" lon="35.3787100">
<ele>324.420013</ele>
<time>2024-04-03T11:44:44.178Z</time>
</trkpt>
<trkpt lat="32.5080700" lon="35.3786400">
<ele>324.200012</ele>
<time>2024-04-03T11:44:44.178Z</time>
</trkpt>
<trkpt lat="32.5080700" lon="35.3784700">
<ele>322.580017</ele>
<time>2024-04-03T11:44:44.178Z</time>
</trkpt>
<trkpt lat="32.5080300" lon="35.3781800">
<ele>320.510010</ele>
<time>2024-04-03T11:44:44.178Z</time>
</trkpt>
<trkpt lat="32.5080300" lon="35.3781000">
<ele>320.299988</ele>
<time>2024-04-03T11:44:44.178Z</time>
</trkpt>
<trkpt lat="32.5080500" lon="35.3779000">
<ele>321.139984</ele>
<time>2024-04-03T11:44:44.178Z</time>
</trkpt>
<trkpt lat="32.5080300" lon="35.3776000">
<ele>320.720001</ele>
<time>2024-04-03T11:44:44.178Z</time>
</trkpt>
<trkpt lat="32.5080700" lon="35.3774800">
<ele>319.779999</ele>
<time>2024-04-03T11:44:44.178Z</time>
</trkpt>
<trkpt lat="32.5081500" lon="35.3774100">
<ele>318.990021</ele>
<time>2024-04-03T11:44:44.178Z</time>
</trkpt>
<trkpt lat="32.5082500" lon="35.3773700">
<ele>318.410004</ele>
<time>2024-04-03T11:44:44.178Z</time>
</trkpt>
<trkpt lat="32.5082900" lon="35.3772600">
<ele>318.789978</ele>
<time>2024-04-03T11:44:44.178Z</time>
</trkpt>
<trkpt lat="32.5082900" lon="35.3771900">
<ele>319.230011</ele>
<time>2024-04-03T11:44:44.178Z</time>
</trkpt>
<trkpt lat="32.5082900" lon="35.3771200">
<ele>319.739990</ele>
<time>2024-04-03T11:44:44.178Z</time>
</trkpt>
<trkpt lat="32.5081700" lon="35.3768100">
<ele>321.770020</ele>
<time>2024-04-03T11:44:44.178Z</time>
</trkpt>
<trkpt lat="32.5081000" lon="35.3763900">
<ele>323.839996</ele>
<time>2024-04-03T11:44:44.178Z</time>
</trkpt>
<trkpt lat="32.5081000" lon="35.3761800">
<ele>324.709991</ele>
<time>2024-04-03T11:44:44.178Z</time>
</trkpt>
<trkpt lat="32.5081100" lon="35.3759800">
<ele>324.239990</ele>
<time>2024-04-03T11:44:44.178Z</time>
</trkpt>
<trkpt lat="32.5081100" lon="35.3757700">
<ele>323.160004</ele>
<time>2024-04-03T11:44:44.178Z</time>
</trkpt>
<trkpt lat="32.5081200" lon="35.3756100">
<ele>322.660004</ele>
<time>2024-04-03T11:44:44.178Z</time>
</trkpt>
<trkpt lat="32.5081200" lon="35.3752600">
<ele>322.220001</ele>
<time>2024-04-03T11:44:44.178Z</time>
</trkpt>
<trkpt lat="32.5081200" lon="35.3750500">
<ele>322.039978</ele>
<time>2024-04-03T11:44:44.178Z</time>
</trkpt>
<trkpt lat="32.5081500" lon="35.3747100">
<ele>322.159973</ele>
<time>2024-04-03T11:44:44.178Z</time>
</trkpt>
<trkpt lat="32.5081800" lon="35.3746700">
<ele>321.440002</ele>
<time>2024-04-03T11:44:44.178Z</time>
</trkpt>
<trkpt lat="32.5082400" lon="35.3746600">
<ele>320.919983</ele>
<time>2024-04-03T11:44:44.178Z</time>
</trkpt>
<trkpt lat="32.5082900" lon="35.3746700">
<ele>320.720001</ele>
<time>2024-04-03T11:44:44.178Z</time>
</trkpt>
<trkpt lat="32.5084100" lon="35.3748000">
<ele>320.449982</ele>
<time>2024-04-03T11:44:44.178Z</time>
</trkpt>
<trkpt lat="32.5085500" lon="35.3750600">
<ele>320.380005</ele>
<time>2024-04-03T11:44:44.178Z</time>
</trkpt>
<trkpt lat="32.5085800" lon="35.3750900">
<ele>320.520020</ele>
<time>2024-04-03T11:44:44.178Z</time>
</trkpt>
<trkpt lat="32.5086200" lon="35.3751500">
<ele>321.049988</ele>
<time>2024-04-03T11:44:44.178Z</time>
</trkpt>
<trkpt lat="32.5086700" lon="35.3752000">
<ele>321.179993</ele>
<time>2024-04-03T11:44:44.178Z</time>
</trkpt>
<trkpt lat="32.5087400" lon="35.3753400">
<ele>322.059998</ele>
<time>2024-04-03T11:44:44.178Z</time>
</trkpt>
<trkpt lat="32.5087700" lon="35.3754600">
<ele>322.600006</ele>
<time>2024-04-03T11:44:44.178Z</time>
</trkpt>
<trkpt lat="32.5088700" lon="35.3756200">
<ele>322.200012</ele>
<time>2024-04-03T11:44:44.178Z</time>
</trkpt>
<trkpt lat="32.5086700" lon="35.3755700">
<ele>324.359985</ele>
<time>2024-04-03T11:44:44.178Z</time>
</trkpt>
<trkpt lat="32.5085700" lon="35.3757800">
<ele>324.970001</ele>
<time>2024-04-03T11:44:44.178Z</time>
</trkpt>
<trkpt lat="32.5088300" lon="35.3757900">
<ele>322.639984</ele>
<time>2024-04-03T11:44:44.178Z</time>
</trkpt>
<trkpt lat="32.5088400" lon="35.3758400">
<ele>322.509979</ele>
<time>2024-04-03T11:44:44.178Z</time>
</trkpt>
<trkpt lat="32.5088500" lon="35.3760000">
<ele>321.900024</ele>
<time>2024-04-03T11:44:44.178Z</time>
</trkpt>
<trkpt lat="32.5088300" lon="35.3762600">
<ele>321.200012</ele>
<time>2024-04-03T11:44:44.178Z</time>
</trkpt>
<trkpt lat="32.5088200" lon="35.3763800">
<ele>320.779999</ele>
<time>2024-04-03T11:44:44.178Z</time>
</trkpt>
<trkpt lat="32.5087600" lon="35.3767700">
<ele>319.649994</ele>
<time>2024-04-03T11:44:44.178Z</time>
</trkpt>
<trkpt lat="32.5087500" lon="35.3768400">
<ele>319.249969</ele>
<time>2024-04-03T11:44:44.178Z</time>
</trkpt>
<trkpt lat="32.5087800" lon="35.3769400">
<ele>318.210022</ele>
<time>2024-04-03T11:44:44.178Z</time>
</trkpt>
<trkpt lat="32.5087900" lon="35.3769900">
<ele>317.799988</ele>
<time>2024-04-03T11:44:44.178Z</time>
</trkpt>
<trkpt lat="32.5088000" lon="35.3771100">
<ele>316.959991</ele>
<time>2024-04-03T11:44:44.178Z</time>
</trkpt>
<trkpt lat="32.5087600" lon="35.3774000">
<ele>316.559998</ele>
<time>2024-04-03T11:44:44.178Z</time>
</trkpt>
<trkpt lat="32.5087300" lon="35.3777000">
<ele>317.230011</ele>
<time>2024-04-03T11:44:44.178Z</time>
</trkpt>
<trkpt lat="32.5086600" lon="35.3779700">
<ele>318.500000</ele>
<time>2024-04-03T11:44:44.178Z</time>
</trkpt>
<trkpt lat="32.5086600" lon="35.3783800">
<ele>320.559998</ele>
<time>2024-04-03T11:44:44.178Z</time>
</trkpt>
<trkpt lat="32.5086700" lon="35.3784900">
<ele>321.389984</ele>
<time>2024-04-03T11:44:44.178Z</time>
</trkpt>
<trkpt lat="32.5086800" lon="35.3785600">
<ele>321.800018</ele>
<time>2024-04-03T11:44:44.178Z</time>
</trkpt>
<trkpt lat="32.5087400" lon="35.3786000">
<ele>320.669983</ele>
<time>2024-04-03T11:44:44.178Z</time>
</trkpt>
<trkpt lat="32.5088300" lon="35.3786100">
<ele>318.479980</ele>
<time>2024-04-03T11:44:44.178Z</time>
</trkpt>
<trkpt lat="32.5088600" lon="35.3785400">
<ele>317.419983</ele>
<time>2024-04-03T11:44:44.178Z</time>
</trkpt>
<trkpt lat="32.5088900" lon="35.3784900">
<ele>316.519989</ele>
<time>2024-04-03T11:44:44.178Z</time>
</trkpt>
<trkpt lat="32.5089500" lon="35.3785000">
<ele>314.360016</ele>
<time>2024-04-03T11:44:44.178Z</time>
</trkpt>
<trkpt lat="32.5089700" lon="35.3785500">
<ele>313.699982</ele>
<time>2024-04-03T11:44:44.178Z</time>
</trkpt>
<trkpt lat="32.5089600" lon="35.3789100">
<ele>314.169983</ele>
<time>2024-04-03T11:44:44.178Z</time>
</trkpt>
<trkpt lat="32.5089700" lon="35.3789900">
<ele>313.869995</ele>
<time>2024-04-03T11:44:44.178Z</time>
</trkpt>
<trkpt lat="32.5089500" lon="35.3791100">
<ele>313.920013</ele>
<time>2024-04-03T11:44:44.178Z</time>
</trkpt>
<trkpt lat="32.5088000" lon="35.3791900">
<ele>314.190002</ele>
<time>2024-04-03T11:44:44.178Z</time>
</trkpt>
<trkpt lat="32.5085600" lon="35.3792000">
<ele>315.650024</ele>
<time>2024-04-03T11:44:44.178Z</time>
</trkpt>
<trkpt lat="32.5085000" lon="35.3792200">
<ele>315.650024</ele>
<time>2024-04-03T11:44:44.178Z</time>
</trkpt>
<trkpt lat="32.5084500" lon="35.3792700">
<ele>314.929993</ele>
<time>2024-04-03T11:44:44.178Z</time>
</trkpt>
<trkpt lat="32.5083800" lon="35.3793000">
<ele>314.779999</ele>
<time>2024-04-03T11:44:44.178Z</time>
</trkpt>
<trkpt lat="32.5083300" lon="35.3793600">
<ele>313.859985</ele>
<time>2024-04-03T11:44:44.178Z</time>
</trkpt>
<trkpt lat="32.5082300" lon="35.3793800">
<ele>314.589996</ele>
<time>2024-04-03T11:44:44.178Z</time>
</trkpt>
<trkpt lat="32.5081400" lon="35.3794400">
<ele>314.199982</ele>
<time>2024-04-03T11:44:44.178Z</time>
</trkpt>
<trkpt lat="32.5080700" lon="35.3794800">
<ele>314.580017</ele>
<time>2024-04-03T11:44:44.178Z</time>
</trkpt>
<trkpt lat="32.5079000" lon="35.3797000">
<ele>313.200012</ele>
<time>2024-04-03T11:44:44.178Z</time>
</trkpt>
<trkpt lat="32.5078000" lon="35.3797400">
<ele>312.929993</ele>
<time>2024-04-03T11:44:44.178Z</time>
</trkpt>
<trkpt lat="32.5077400" lon="35.3797800">
<ele>312.959991</ele>
<time>2024-04-03T11:44:44.178Z</time>
</trkpt>
<trkpt lat="32.5076700" lon="35.3798000">
<ele>313.220001</ele>
<time>2024-04-03T11:44:44.178Z</time>
</trkpt>
<trkpt lat="32.5074900" lon="35.3800600">
<ele>314.040009</ele>
<time>2024-04-03T11:44:44.178Z</time>
</trkpt>
<trkpt lat="32.5074500" lon="35.3804400">
<ele>315.529999</ele>
<time>2024-04-03T11:44:44.178Z</time>
</trkpt>
<trkpt lat="32.5074700" lon="35.3805000">
<ele>315.820007</ele>
<time>2024-04-03T11:44:44.178Z</time>
</trkpt>
<trkpt lat="32.5075000" lon="35.3805500">
<ele>315.959991</ele>
<time>2024-04-03T11:44:44.178Z</time>
</trkpt>
<trkpt lat="32.5075900" lon="35.3807200">
<ele>314.969971</ele>
<time>2024-04-03T11:44:44.178Z</time>
</trkpt>
<trkpt lat="32.5076600" lon="35.3807500">
<ele>313.819977</ele>
<time>2024-04-03T11:44:44.178Z</time>
</trkpt>
<trkpt lat="32.5077100" lon="35.3808000">
<ele>313.100006</ele>
<time>2024-04-03T11:44:44.178Z</time>
</trkpt>
<trkpt lat="32.5077800" lon="35.3808400">
<ele>312.020020</ele>
<time>2024-04-03T11:44:44.178Z</time>
</trkpt>
<trkpt lat="32.5078400" lon="35.3809300">
<ele>311.540009</ele>
<time>2024-04-03T11:44:44.178Z</time>
</trkpt>
<trkpt lat="32.5078700" lon="35.3809900">
<ele>311.329987</ele>
<time>2024-04-03T11:44:44.178Z</time>
</trkpt>
<trkpt lat="32.5079600" lon="35.3812400">
<ele>312.059998</ele>
<time>2024-04-03T11:44:44.178Z</time>
</trkpt>
<trkpt lat="32.5079900" lon="35.3812800">
<ele>312.109985</ele>
<time>2024-04-03T11:44:44.178Z</time>
</trkpt>
<trkpt lat="32.5080300" lon="35.3813400">
<ele>312.449982</ele>
<time>2024-04-03T11:44:44.178Z</time>
</trkpt>
<trkpt lat="32.5080600" lon="35.3813600">
<ele>312.250000</ele>
<time>2024-04-03T11:44:44.178Z</time>
</trkpt>
<trkpt lat="32.5081200" lon="35.3814600">
<ele>311.600006</ele>
<time>2024-04-03T11:44:44.178Z</time>
</trkpt>
<trkpt lat="32.5081700" lon="35.3816200">
<ele>311.029999</ele>
<time>2024-04-03T11:44:44.178Z</time>
</trkpt>
<trkpt lat="32.5082000" lon="35.3818400">
<ele>313.760010</ele>
<time>2024-04-03T11:44:44.178Z</time>
</trkpt>
<trkpt lat="32.5082200" lon="35.3819200">
<ele>314.769989</ele>
<time>2024-04-03T11:44:44.178Z</time>
</trkpt>
<trkpt lat="32.5083800" lon="35.3822100">
<ele>312.390015</ele>
<time>2024-04-03T11:44:44.178Z</time>
</trkpt>
<trkpt lat="32.5084300" lon="35.3822700">
<ele>311.200012</ele>
<time>2024-04-03T11:44:44.178Z</time>
</trkpt>
<trkpt lat="32.5085200" lon="35.3823100">
<ele>308.259979</ele>
<time>2024-04-03T11:44:44.178Z</time>
</trkpt>
<trkpt lat="32.5085700" lon="35.3824500">
<ele>306.699982</ele>
<time>2024-04-03T11:44:44.178Z</time>
</trkpt>
<trkpt lat="32.5086300" lon="35.3824200">
<ele>304.329987</ele>
<time>2024-04-03T11:44:44.178Z</time>
</trkpt>
<trkpt lat="32.5085700" lon="35.3822000">
<ele>306.100006</ele>
<time>2024-04-03T11:44:44.178Z</time>
</trkpt>
<trkpt lat="32.5084700" lon="35.3809100">
<ele>296.209991</ele>
<time>2024-04-03T11:44:44.178Z</time>
</trkpt>
<trkpt lat="32.5083500" lon="35.3808000">
<ele>299.429993</ele>
<time>2024-04-03T11:44:44.178Z</time>
</trkpt>
<trkpt lat="32.5083600" lon="35.3807600">
<ele>299.070007</ele>
<time>2024-04-03T11:44:44.178Z</time>
</trkpt>
<trkpt lat="32.5084600" lon="35.3808200">
<ele>296.390015</ele>
<time>2024-04-03T11:44:44.178Z</time>
</trkpt>
<trkpt lat="32.5085500" lon="35.3808300">
<ele>293.789978</ele>
<time>2024-04-03T11:44:44.178Z</time>
</trkpt>
<trkpt lat="32.5087700" lon="35.3810000">
<ele>286.250000</ele>
<time>2024-04-03T11:44:44.178Z</time>
</trkpt>
<trkpt lat="32.5089300" lon="35.3812000">
<ele>284.350006</ele>
<time>2024-04-03T11:44:44.178Z</time>
</trkpt>
<trkpt lat="32.5090300" lon="35.3814200">
<ele>284.250000</ele>
<time>2024-04-03T11:44:44.178Z</time>
</trkpt>
<trkpt lat="32.5090800" lon="35.3814500">
<ele>283.760010</ele>
<time>2024-04-03T11:44:44.178Z</time>
</trkpt>
<trkpt lat="32.5091200" lon="35.3815600">
<ele>284.010010</ele>
<time>2024-04-03T11:44:44.178Z</time>
</trkpt>
<trkpt lat="32.5091900" lon="35.3815300">
<ele>282.299988</ele>
<time>2024-04-03T11:44:44.178Z</time>
</trkpt>
<trkpt lat="32.5091700" lon="35.3814400">
<ele>282.279999</ele>
<time>2024-04-03T11:44:44.178Z</time>
</trkpt>
<trkpt lat="32.5091800" lon="35.3813500">
<ele>281.800018</ele>
<time>2024-04-03T11:44:44.178Z</time>
</trkpt>
<trkpt lat="32.5091700" lon="35.3810400">
<ele>282.429993</ele>
<time>2024-04-03T11:44:44.178Z</time>
</trkpt>
<trkpt lat="32.5091900" lon="35.3808800">
<ele>281.240021</ele>
<time>2024-04-03T11:44:44.178Z</time>
</trkpt>
<trkpt lat="32.5092800" lon="35.3807900">
<ele>280.750000</ele>
<time>2024-04-03T11:44:44.178Z</time>
</trkpt>
<trkpt lat="32.5094200" lon="35.3807500">
<ele>280.669983</ele>
<time>2024-04-03T11:44:44.178Z</time>
</trkpt>
<trkpt lat="32.5097600" lon="35.3807300">
<ele>275.440002</ele>
<time>2024-04-03T11:44:44.178Z</time>
</trkpt>
<trkpt lat="32.5098600" lon="35.3806700">
<ele>275.070007</ele>
<time>2024-04-03T11:44:44.178Z</time>
</trkpt>
<trkpt lat="32.5099100" lon="35.3806500">
<ele>274.609985</ele>
<time>2024-04-03T11:44:44.178Z</time>
</trkpt>
<trkpt lat="32.5099900" lon="35.3805900">
<ele>273.920013</ele>
<time>2024-04-03T11:44:44.178Z</time>
</trkpt>
<trkpt lat="32.5100300" lon="35.3805600">
<ele>273.649994</ele>
<time>2024-04-03T11:44:44.178Z</time>
</trkpt>
<trkpt lat="32.5102300" lon="35.3803100">
<ele>275.359985</ele>
<time>2024-04-03T11:44:44.178Z</time>
</trkpt>
<trkpt lat="32.5103800" lon="35.3802200">
<ele>274.730011</ele>
<time>2024-04-03T11:44:44.178Z</time>
</trkpt>
<trkpt lat="32.5104300" lon="35.3801500">
<ele>275.200012</ele>
<time>2024-04-03T11:44:44.178Z</time>
</trkpt>
<trkpt lat="32.5104800" lon="35.3801200">
<ele>275.089996</ele>
<time>2024-04-03T11:44:44.178Z</time>
</trkpt>
<trkpt lat="32.5106900" lon="35.3798900">
<ele>275.049988</ele>
<time>2024-04-03T11:44:44.178Z</time>
</trkpt>
<trkpt lat="32.5107900" lon="35.3797100">
<ele>275.410004</ele>
<time>2024-04-03T11:44:44.178Z</time>
</trkpt>
<trkpt lat="32.5109700" lon="35.3793300">
<ele>273.589996</ele>
<time>2024-04-03T11:44:44.178Z</time>
</trkpt>
<trkpt lat="32.5111100" lon="35.3789200">
<ele>269.239990</ele>
<time>2024-04-03T11:44:44.178Z</time>
</trkpt>
<trkpt lat="32.5111400" lon="35.3786800">
<ele>265.550018</ele>
<time>2024-04-03T11:44:44.178Z</time>
</trkpt>
<trkpt lat="32.5111400" lon="35.3785300">
<ele>264.000000</ele>
<time>2024-04-03T11:44:44.178Z</time>
</trkpt>
<trkpt lat="32.5111500" lon="35.3780800">
<ele>261.270020</ele>
<time>2024-04-03T11:44:44.178Z</time>
</trkpt>
<trkpt lat="32.5111200" lon="35.3778200">
<ele>256.860016</ele>
<time>2024-04-03T11:44:44.178Z</time>
</trkpt>
<trkpt lat="32.5110700" lon="35.3776800">
<ele>259.570007</ele>
<time>2024-04-03T11:44:44.178Z</time>
</trkpt>
<trkpt lat="32.5110700" lon="35.3776400">
<ele>260.059998</ele>
<time>2024-04-03T11:44:44.178Z</time>
</trkpt>
<trkpt lat="32.5110400" lon="35.3775700">
<ele>262.320007</ele>
<time>2024-04-03T11:44:44.178Z</time>
</trkpt>
<trkpt lat="32.5110500" lon="35.3775300">
<ele>262.300018</ele>
<time>2024-04-03T11:44:44.178Z</time>
</trkpt>
<trkpt lat="32.5111900" lon="35.3775500">
<ele>258.299988</ele>
<time>2024-04-03T11:44:44.178Z</time>
</trkpt>
<trkpt lat="32.5112600" lon="35.3775400">
<ele>257.509979</ele>
<time>2024-04-03T11:44:44.178Z</time>
</trkpt>
<trkpt lat="32.5112900" lon="35.3775200">
<ele>257.279999</ele>
<time>2024-04-03T11:44:44.178Z</time>
</trkpt>
<trkpt lat="32.5114300" lon="35.3772400">
<ele>257.709991</ele>
<time>2024-04-03T11:44:44.178Z</time>
</trkpt>
<trkpt lat="32.5114900" lon="35.3771400">
<ele>257.610016</ele>
<time>2024-04-03T11:44:44.178Z</time>
</trkpt>
<trkpt lat="32.5116500" lon="35.3769600">
<ele>255.340012</ele>
<time>2024-04-03T11:44:44.178Z</time>
</trkpt>
<trkpt lat="32.5117500" lon="35.3767800">
<ele>254.169998</ele>
<time>2024-04-03T11:44:44.178Z</time>
</trkpt>
<trkpt lat="32.5118700" lon="35.3767100">
<ele>252.410004</ele>
<time>2024-04-03T11:44:44.178Z</time>
</trkpt>
<trkpt lat="32.5120400" lon="35.3766900">
<ele>250.910004</ele>
<time>2024-04-03T11:44:44.178Z</time>
</trkpt>
<trkpt lat="32.5121900" lon="35.3767100">
<ele>250.580002</ele>
<time>2024-04-03T11:44:44.178Z</time>
</trkpt>
<trkpt lat="32.5122900" lon="35.3767200">
<ele>250.529999</ele>
<time>2024-04-03T11:44:44.178Z</time>
</trkpt>
<trkpt lat="32.5123700" lon="35.3767900">
<ele>251.100006</ele>
<time>2024-04-03T11:44:44.178Z</time>
</trkpt>
<trkpt lat="32.5124400" lon="35.3768000">
<ele>251.060013</ele>
<time>2024-04-03T11:44:44.178Z</time>
</trkpt>
<trkpt lat="32.5125600" lon="35.3768500">
<ele>251.320007</ele>
<time>2024-04-03T11:44:44.178Z</time>
</trkpt>
<trkpt lat="32.5128100" lon="35.3768500">
<ele>251.649994</ele>
<time>2024-04-03T11:44:44.178Z</time>
</trkpt>
<trkpt lat="32.5128900" lon="35.3768500">
<ele>252.410004</ele>
<time>2024-04-03T11:44:44.178Z</time>
</trkpt>
<trkpt lat="32.5129400" lon="35.3768400">
<ele>252.909988</ele>
<time>2024-04-03T11:44:44.178Z</time>
</trkpt>
<trkpt lat="32.5130100" lon="35.3768400">
<ele>253.569992</ele>
<time>2024-04-03T11:44:44.178Z</time>
</trkpt>
<trkpt lat="32.5132200" lon="35.3770500">
<ele>258.830017</ele>
<time>2024-04-03T11:44:44.178Z</time>
</trkpt>
<trkpt lat="32.5133000" lon="35.3771800">
<ele>261.209991</ele>
<time>2024-04-03T11:44:44.178Z</time>
</trkpt>
<trkpt lat="32.5133300" lon="35.3772000">
<ele>261.859985</ele>
<time>2024-04-03T11:44:44.178Z</time>
</trkpt>
<trkpt lat="32.5134000" lon="35.3773100">
<ele>265.210022</ele>
<time>2024-04-03T11:44:44.178Z</time>
</trkpt>
<trkpt lat="32.5134300" lon="35.3772100">
<ele>265.449982</ele>
<time>2024-04-03T11:44:44.178Z</time>
</trkpt>
<trkpt lat="32.5136800" lon="35.3775600">
<ele>271.109985</ele>
<time>2024-04-03T11:44:44.178Z</time>
</trkpt>
<trkpt lat="32.5137100" lon="35.3775800">
<ele>271.419983</ele>
<time>2024-04-03T11:44:44.178Z</time>
</trkpt>
<trkpt lat="32.5138200" lon="35.3777500">
<ele>269.770020</ele>
<time>2024-04-03T11:44:44.178Z</time>
</trkpt>
<trkpt lat="32.5139900" lon="35.3778700">
<ele>269.950012</ele>
<time>2024-04-03T11:44:44.178Z</time>
</trkpt>
<trkpt lat="32.5140400" lon="35.3778700">
<ele>270.910004</ele>
<time>2024-04-03T11:44:44.178Z</time>
</trkpt>
<trkpt lat="32.5140800" lon="35.3778600">
<ele>271.910004</ele>
<time>2024-04-03T11:44:44.178Z</time>
</trkpt>
<trkpt lat="32.5140500" lon="35.3777400">
<ele>273.929993</ele>
<time>2024-04-03T11:44:44.178Z</time>
</trkpt>
<trkpt lat="32.5141100" lon="35.3777400">
<ele>275.420013</ele>
<time>2024-04-03T11:44:44.178Z</time>
</trkpt>
<trkpt lat="32.5141500" lon="35.3777100">
<ele>277.059998</ele>
<time>2024-04-03T11:44:44.178Z</time>
</trkpt>
<trkpt lat="32.5142100" lon="35.3777400">
<ele>277.730011</ele>
<time>2024-04-03T11:44:44.178Z</time>
</trkpt>
<trkpt lat="32.5143800" lon="35.3777800">
<ele>280.559998</ele>
<time>2024-04-03T11:44:44.178Z</time>
</trkpt>
<trkpt lat="32.5145300" lon="35.3777800">
<ele>282.880005</ele>
<time>2024-04-03T11:44:44.178Z</time>
</trkpt>
<trkpt lat="32.5145600" lon="35.3777700">
<ele>283.380005</ele>
<time>2024-04-03T11:44:44.178Z</time>
</trkpt>
<trkpt lat="32.5143500" lon="35.3773800">
<ele>285.880005</ele>
<time>2024-04-03T11:44:44.178Z</time>
</trkpt>
<trkpt lat="32.5142900" lon="35.3772100">
<ele>285.709991</ele>
<time>2024-04-03T11:44:44.178Z</time>
</trkpt>
<trkpt lat="32.5143400" lon="35.3772100">
<ele>286.420013</ele>
<time>2024-04-03T11:44:44.178Z</time>
</trkpt>
<trkpt lat="32.5143800" lon="35.3772500">
<ele>286.950012</ele>
<time>2024-04-03T11:44:44.178Z</time>
</trkpt>
<trkpt lat="32.5144700" lon="35.3772900">
<ele>287.940002</ele>
<time>2024-04-03T11:44:44.178Z</time>
</trkpt>
<trkpt lat="32.5145400" lon="35.3773200">
<ele>288.339996</ele>
<time>2024-04-03T11:44:44.178Z</time>
</trkpt>
<trkpt lat="32.5145900" lon="35.3773800">
<ele>288.479980</ele>
<time>2024-04-03T11:44:44.178Z</time>
</trkpt>
<trkpt lat="32.5147000" lon="35.3774600">
<ele>288.980011</ele>
<time>2024-04-03T11:44:44.178Z</time>
</trkpt>
<trkpt lat="32.5147300" lon="35.3774900">
<ele>289.149994</ele>
<time>2024-04-03T11:44:44.178Z</time>
</trkpt>
<trkpt lat="32.5149000" lon="35.3776500">
<ele>289.050018</ele>
<time>2024-04-03T11:44:44.178Z</time>
</trkpt>
<trkpt lat="32.5149900" lon="35.3777200">
<ele>288.920013</ele>
<time>2024-04-03T11:44:44.178Z</time>
</trkpt>
<trkpt lat="32.5150200" lon="35.3777400">
<ele>288.850006</ele>
<time>2024-04-03T11:44:44.178Z</time>
</trkpt>
<trkpt lat="32.5150700" lon="35.3777900">
<ele>288.359985</ele>
<time>2024-04-03T11:44:44.178Z</time>
</trkpt>
<trkpt lat="32.5151500" lon="35.3778200">
<ele>288.540009</ele>
<time>2024-04-03T11:44:44.178Z</time>
</trkpt>
<trkpt lat="32.5152000" lon="35.3778200">
<ele>288.869995</ele>
<time>2024-04-03T11:44:44.178Z</time>
</trkpt>
<trkpt lat="32.5151200" lon="35.3776600">
<ele>291.529999</ele>
<time>2024-04-03T11:44:44.178Z</time>
</trkpt>
<trkpt lat="32.5150600" lon="35.3775700">
<ele>292.660004</ele>
<time>2024-04-03T11:44:44.178Z</time>
</trkpt>
<trkpt lat="32.5150400" lon="35.3775200">
<ele>293.330017</ele>
<time>2024-04-03T11:44:44.178Z</time>
</trkpt>
<trkpt lat="32.5150800" lon="35.3775100">
<ele>294.230011</ele>
<time>2024-04-03T11:44:44.178Z</time>
</trkpt>
<trkpt lat="32.5151400" lon="35.3775200">
<ele>295.050018</ele>
<time>2024-04-03T11:44:44.178Z</time>
</trkpt>
<trkpt lat="32.5152000" lon="35.3775400">
<ele>295.570007</ele>
<time>2024-04-03T11:44:44.178Z</time>
</trkpt>
<trkpt lat="32.5152600" lon="35.3775800">
<ele>295.429993</ele>
<time>2024-04-03T11:44:44.178Z</time>
</trkpt>
<trkpt lat="32.5154200" lon="35.3776600">
<ele>297.329987</ele>
<time>2024-04-03T11:44:44.178Z</time>
</trkpt>
<trkpt lat="32.5157000" lon="35.3778900">
<ele>298.369995</ele>
<time>2024-04-03T11:44:44.178Z</time>
</trkpt>
<trkpt lat="32.5157700" lon="35.3779300">
<ele>299.880005</ele>
<time>2024-04-03T11:44:44.178Z</time>
</trkpt>
<trkpt lat="32.5158500" lon="35.3779900">
<ele>301.010010</ele>
<time>2024-04-03T11:44:44.178Z</time>
</trkpt>
<trkpt lat="32.5159500" lon="35.3780100">
<ele>302.670013</ele>
<time>2024-04-03T11:44:44.178Z</time>
</trkpt>
<trkpt lat="32.5160400" lon="35.3780600">
<ele>303.390015</ele>
<time>2024-04-03T11:44:44.178Z</time>
</trkpt>
<trkpt lat="32.5161500" lon="35.3780900">
<ele>304.660004</ele>
<time>2024-04-03T11:44:44.178Z</time>
</trkpt>
<trkpt lat="32.5161800" lon="35.3781000">
<ele>304.700012</ele>
<time>2024-04-03T11:44:44.178Z</time>
</trkpt>
<trkpt lat="32.5163200" lon="35.3782200">
<ele>303.540009</ele>
<time>2024-04-03T11:44:44.178Z</time>
</trkpt>
<trkpt lat="32.5163600" lon="35.3783100">
<ele>302.209991</ele>
<time>2024-04-03T11:44:44.178Z</time>
</trkpt>
<trkpt lat="32.5164700" lon="35.3785200">
<ele>302.700012</ele>
<time>2024-04-03T11:44:44.178Z</time>
</trkpt>
<trkpt lat="32.5165200" lon="35.3785500">
<ele>303.740021</ele>
<time>2024-04-03T11:44:44.178Z</time>
</trkpt>
<trkpt lat="32.5165900" lon="35.3785500">
<ele>305.510010</ele>
<time>2024-04-03T11:44:44.178Z</time>
</trkpt>
<trkpt lat="32.5167000" lon="35.3784900">
<ele>308.709991</ele>
<time>2024-04-03T11:44:44.178Z</time>
</trkpt>
<trkpt lat="32.5167500" lon="35.3783600">
<ele>310.910004</ele>
<time>2024-04-03T11:44:44.178Z</time>
</trkpt>
<trkpt lat="32.5167600" lon="35.3782300">
<ele>312.839996</ele>
<time>2024-04-03T11:44:44.178Z</time>
</trkpt>
<trkpt lat="32.5167400" lon="35.3780400">
<ele>315.130005</ele>
<time>2024-04-03T11:44:44.178Z</time>
</trkpt>
<trkpt lat="32.5165800" lon="35.3778300">
<ele>313.129974</ele>
<time>2024-04-03T11:44:44.178Z</time>
</trkpt>
<trkpt lat="32.5165100" lon="35.3778000">
<ele>312.010010</ele>
<time>2024-04-03T11:44:44.178Z</time>
</trkpt>
<trkpt lat="32.5164600" lon="35.3777500">
<ele>311.700012</ele>
<time>2024-04-03T11:44:44.178Z</time>
</trkpt>
<trkpt lat="32.5163900" lon="35.3777300">
<ele>310.880005</ele>
<time>2024-04-03T11:44:44.178Z</time>
</trkpt>
<trkpt lat="32.5163000" lon="35.3776600">
<ele>313.029999</ele>
<time>2024-04-03T11:44:44.178Z</time>
</trkpt>
<trkpt lat="32.5162300" lon="35.3776400">
<ele>314.190002</ele>
<time>2024-04-03T11:44:44.178Z</time>
</trkpt>
<trkpt lat="32.5161800" lon="35.3775800">
<ele>316.129974</ele>
<time>2024-04-03T11:44:44.178Z</time>
</trkpt>
<trkpt lat="32.5161100" lon="35.3775600">
<ele>317.470001</ele>
<time>2024-04-03T11:44:44.178Z</time>
</trkpt>
<trkpt lat="32.5160600" lon="35.3775000">
<ele>318.260010</ele>
<time>2024-04-03T11:44:44.178Z</time>
</trkpt>
<trkpt lat="32.5160300" lon="35.3774800">
<ele>318.090027</ele>
<time>2024-04-03T11:44:44.178Z</time>
</trkpt>
<trkpt lat="32.5159300" lon="35.3773600">
<ele>318.560028</ele>
<time>2024-04-03T11:44:44.178Z</time>
</trkpt>
<trkpt lat="32.5158700" lon="35.3772600">
<ele>319.619995</ele>
<time>2024-04-03T11:44:44.178Z</time>
</trkpt>
<trkpt lat="32.5158200" lon="35.3772000">
<ele>319.849976</ele>
<time>2024-04-03T11:44:44.178Z</time>
</trkpt>
<trkpt lat="32.5157100" lon="35.3770500">
<ele>318.949982</ele>
<time>2024-04-03T11:44:44.178Z</time>
</trkpt>
<trkpt lat="32.5154700" lon="35.3767100">
<ele>316.899994</ele>
<time>2024-04-03T11:44:44.178Z</time>
</trkpt>
<trkpt lat="32.5154300" lon="35.3766900">
<ele>316.129974</ele>
<time>2024-04-03T11:44:44.178Z</time>
</trkpt>
<trkpt lat="32.5153200" lon="35.3765500">
<ele>315.820007</ele>
<time>2024-04-03T11:44:44.178Z</time>
</trkpt>
<trkpt lat="32.5152600" lon="35.3765100">
<ele>315.459991</ele>
<time>2024-04-03T11:44:44.178Z</time>
</trkpt>
<trkpt lat="32.5151700" lon="35.3763900">
<ele>315.650024</ele>
<time>2024-04-03T11:44:44.178Z</time>
</trkpt>
<trkpt lat="32.5151400" lon="35.3763600">
<ele>315.279999</ele>
<time>2024-04-03T11:44:44.178Z</time>
</trkpt>
<trkpt lat="32.5150400" lon="35.3761300">
<ele>315.529999</ele>
<time>2024-04-03T11:44:44.178Z</time>
</trkpt>
<trkpt lat="32.5149900" lon="35.3760900">
<ele>314.899994</ele>
<time>2024-04-03T11:44:44.178Z</time>
</trkpt>
<trkpt lat="32.5149500" lon="35.3760200">
<ele>314.490021</ele>
<time>2024-04-03T11:44:44.178Z</time>
</trkpt>
<trkpt lat="32.5148300" lon="35.3757100">
<ele>313.819977</ele>
<time>2024-04-03T11:44:44.178Z</time>
</trkpt>
<trkpt lat="32.5147100" lon="35.3749600">
<ele>311.919983</ele>
<time>2024-04-03T11:44:44.178Z</time>
</trkpt>
<trkpt lat="32.5146700" lon="35.3748200">
<ele>311.589996</ele>
<time>2024-04-03T11:44:44.178Z</time>
</trkpt>
<trkpt lat="32.5145900" lon="35.3743500">
<ele>314.390015</ele>
<time>2024-04-03T11:44:44.178Z</time>
</trkpt>
<trkpt lat="32.5145800" lon="35.3741500">
<ele>316.389984</ele>
<time>2024-04-03T11:44:44.178Z</time>
</trkpt>
<trkpt lat="32.5145800" lon="35.3739900">
<ele>316.389984</ele>
<time>2024-04-03T11:44:44.178Z</time>
</trkpt>
<trkpt lat="32.5146000" lon="35.3735500">
<ele>314.839996</ele>
<time>2024-04-03T11:44:44.178Z</time>
</trkpt>
<trkpt lat="32.5146400" lon="35.3732900">
<ele>312.959991</ele>
<time>2024-04-03T11:44:44.178Z</time>
</trkpt>
<trkpt lat="32.5146900" lon="35.3732000">
<ele>313.320007</ele>
<time>2024-04-03T11:44:44.178Z</time>
</trkpt>
<trkpt lat="32.5147300" lon="35.3731800">
<ele>314.620026</ele>
<time>2024-04-03T11:44:44.178Z</time>
</trkpt>
<trkpt lat="32.5147700" lon="35.3731100">
<ele>315.250000</ele>
<time>2024-04-03T11:44:44.178Z</time>
</trkpt>
<trkpt lat="32.5148300" lon="35.3730700">
<ele>317.320007</ele>
<time>2024-04-03T11:44:44.178Z</time>
</trkpt>
<trkpt lat="32.5150000" lon="35.3728600">
<ele>320.069977</ele>
<time>2024-04-03T11:44:44.178Z</time>
</trkpt>
<trkpt lat="32.5150600" lon="35.3728200">
<ele>320.980011</ele>
<time>2024-04-03T11:44:44.178Z</time>
</trkpt>
<trkpt lat="32.5151400" lon="35.3727400">
<ele>321.989990</ele>
<time>2024-04-03T11:44:44.178Z</time>
</trkpt>
<trkpt lat="32.5152400" lon="35.3725600">
<ele>323.209991</ele>
<time>2024-04-03T11:44:44.178Z</time>
</trkpt>
<trkpt lat="32.5152600" lon="35.3724000">
<ele>322.169983</ele>
<time>2024-04-03T11:44:44.178Z</time>
</trkpt>
<trkpt lat="32.5152500" lon="35.3722300">
<ele>319.790009</ele>
<time>2024-04-03T11:44:44.178Z</time>
</trkpt>
<trkpt lat="32.5152500" lon="35.3717800">
<ele>316.269989</ele>
<time>2024-04-03T11:44:44.178Z</time>
</trkpt>
<trkpt lat="32.5152100" lon="35.3715400">
<ele>314.769989</ele>
<time>2024-04-03T11:44:44.178Z</time>
</trkpt>
<trkpt lat="32.5151600" lon="35.3713600">
<ele>313.380005</ele>
<time>2024-04-03T11:44:44.178Z</time>
</trkpt>
<trkpt lat="32.5151300" lon="35.3712700">
<ele>312.380005</ele>
<time>2024-04-03T11:44:44.178Z</time>
</trkpt>
<trkpt lat="32.5151200" lon="35.3711100">
<ele>312.319977</ele>
<time>2024-04-03T11:44:44.178Z</time>
</trkpt>
<trkpt lat="32.5151200" lon="35.3709400">
<ele>312.489990</ele>
<time>2024-04-03T11:44:44.178Z</time>
</trkpt>
<trkpt lat="32.5151300" lon="35.3705900">
<ele>312.399994</ele>
<time>2024-04-03T11:44:44.178Z</time>
</trkpt>
<trkpt lat="32.5151700" lon="35.3703300">
<ele>312.070007</ele>
<time>2024-04-03T11:44:44.178Z</time>
</trkpt>
<trkpt lat="32.5152200" lon="35.3702100">
<ele>312.329987</ele>
<time>2024-04-03T11:44:44.178Z</time>
</trkpt>
<trkpt lat="32.5153300" lon="35.3698800">
<ele>313.049988</ele>
<time>2024-04-03T11:44:44.178Z</time>
</trkpt>
<trkpt lat="32.5153800" lon="35.3696300">
<ele>312.189972</ele>
<time>2024-04-03T11:44:44.178Z</time>
</trkpt>
<trkpt lat="32.5154400" lon="35.3695700">
<ele>312.390015</ele>
<time>2024-04-03T11:44:44.178Z</time>
</trkpt>
<trkpt lat="32.5155300" lon="35.3695500">
<ele>313.139984</ele>
<time>2024-04-03T11:44:44.178Z</time>
</trkpt>
<trkpt lat="32.5156300" lon="35.3695000">
<ele>313.149994</ele>
<time>2024-04-03T11:44:44.178Z</time>
</trkpt>
<trkpt lat="32.5158200" lon="35.3694800">
<ele>312.659973</ele>
<time>2024-04-03T11:44:44.178Z</time>
</trkpt>
<trkpt lat="32.5159400" lon="35.3694300">
<ele>311.000000</ele>
<time>2024-04-03T11:44:44.178Z</time>
</trkpt>
<trkpt lat="32.5160900" lon="35.3694300">
<ele>309.899994</ele>
<time>2024-04-03T11:44:44.178Z</time>
</trkpt>
<trkpt lat="32.5162600" lon="35.3694300">
<ele>309.179993</ele>
<time>2024-04-03T11:44:44.178Z</time>
</trkpt>
<trkpt lat="32.5164500" lon="35.3695600">
<ele>311.250000</ele>
<time>2024-04-03T11:44:44.178Z</time>
</trkpt>
<trkpt lat="32.5165100" lon="35.3695900">
<ele>311.360016</ele>
<time>2024-04-03T11:44:44.178Z</time>
</trkpt>
<trkpt lat="32.5166000" lon="35.3696700">
<ele>312.399994</ele>
<time>2024-04-03T11:44:44.178Z</time>
</trkpt>
<trkpt lat="32.5166800" lon="35.3697400">
<ele>313.519989</ele>
<time>2024-04-03T11:44:44.178Z</time>
</trkpt>
<trkpt lat="32.5167900" lon="35.3697600">
<ele>313.660004</ele>
<time>2024-04-03T11:44:44.178Z</time>
</trkpt>
<trkpt lat="32.5168700" lon="35.3698300">
<ele>315.190002</ele>
<time>2024-04-03T11:44:44.178Z</time>
</trkpt>
<trkpt lat="32.5170500" lon="35.3698500">
<ele>314.600006</ele>
<time>2024-04-03T11:44:44.178Z</time>
</trkpt>
<trkpt lat="32.5171100" lon="35.3699100">
<ele>316.149994</ele>
<time>2024-04-03T11:44:44.178Z</time>
</trkpt>
<trkpt lat="32.5172000" lon="35.3699400">
<ele>316.890015</ele>
<time>2024-04-03T11:44:44.178Z</time>
</trkpt>
<trkpt lat="32.5172500" lon="35.3699900">
<ele>317.749969</ele>
<time>2024-04-03T11:44:44.178Z</time>
</trkpt>
<trkpt lat="32.5176000" lon="35.3700200">
<ele>308.540009</ele>
<time>2024-04-03T11:44:44.178Z</time>
</trkpt>
<trkpt lat="32.5176900" lon="35.3700800">
<ele>308.880005</ele>
<time>2024-04-03T11:44:44.178Z</time>
</trkpt>
<trkpt lat="32.5177400" lon="35.3701100">
<ele>309.059998</ele>
<time>2024-04-03T11:44:44.178Z</time>
</trkpt>
<trkpt lat="32.5178000" lon="35.3701700">
<ele>310.299988</ele>
<time>2024-04-03T11:44:44.178Z</time>
</trkpt>
<trkpt lat="32.5178500" lon="35.3701900">
<ele>310.140015</ele>
<time>2024-04-03T11:44:44.178Z</time>
</trkpt>
<trkpt lat="32.5179100" lon="35.3702500">
<ele>311.470001</ele>
<time>2024-04-03T11:44:44.178Z</time>
</trkpt>
<trkpt lat="32.5182100" lon="35.3702700">
<ele>308.660004</ele>
<time>2024-04-03T11:44:44.178Z</time>
</trkpt>
<trkpt lat="32.5182700" lon="35.3703200">
<ele>309.470001</ele>
<time>2024-04-03T11:44:44.178Z</time>
</trkpt>
<trkpt lat="32.5183600" lon="35.3703600">
<ele>309.640015</ele>
<time>2024-04-03T11:44:44.178Z</time>
</trkpt>
<trkpt lat="32.5184200" lon="35.3704000">
<ele>310.290009</ele>
<time>2024-04-03T11:44:44.178Z</time>
</trkpt>
<trkpt lat="32.5184700" lon="35.3704300">
<ele>310.839996</ele>
<time>2024-04-03T11:44:44.178Z</time>
</trkpt>
<trkpt lat="32.5186800" lon="35.3706700">
<ele>312.839996</ele>
<time>2024-04-03T11:44:44.178Z</time>
</trkpt>
<trkpt lat="32.5188300" lon="35.3707900">
<ele>309.380005</ele>
<time>2024-04-03T11:44:44.178Z</time>
</trkpt>
<trkpt lat="32.5189300" lon="35.3708900">
<ele>308.309998</ele>
<time>2024-04-03T11:44:44.178Z</time>
</trkpt>
<trkpt lat="32.5190200" lon="35.3710200">
<ele>308.880005</ele>
<time>2024-04-03T11:44:44.178Z</time>
</trkpt>
<trkpt lat="32.5192100" lon="35.3714600">
<ele>313.829987</ele>
<time>2024-04-03T11:44:44.178Z</time>
</trkpt>
<trkpt lat="32.5192900" lon="35.3715900">
<ele>315.130005</ele>
<time>2024-04-03T11:44:44.178Z</time>
</trkpt>
<trkpt lat="32.5193200" lon="35.3717400">
<ele>316.779999</ele>
<time>2024-04-03T11:44:44.178Z</time>
</trkpt>
<trkpt lat="32.5193200" lon="35.3718700">
<ele>318.339996</ele>
<time>2024-04-03T11:44:44.178Z</time>
</trkpt>
<trkpt lat="32.5192900" lon="35.3719600">
<ele>319.920013</ele>
<time>2024-04-03T11:44:44.178Z</time>
</trkpt>
<trkpt lat="32.5192600" lon="35.3720100">
<ele>320.870026</ele>
<time>2024-04-03T11:44:44.178Z</time>
</trkpt>
<trkpt lat="32.5192600" lon="35.3720900">
<ele>321.540009</ele>
<time>2024-04-03T11:44:44.178Z</time>
</trkpt>
<trkpt lat="32.5192500" lon="35.3721700">
<ele>322.370026</ele>
<time>2024-04-03T11:44:44.178Z</time>
</trkpt>
<trkpt lat="32.5192600" lon="35.3722800">
<ele>323.279999</ele>
<time>2024-04-03T11:44:44.178Z</time>
</trkpt>
<trkpt lat="32.5192600" lon="35.3724000">
<ele>324.580017</ele>
<time>2024-04-03T11:44:44.178Z</time>
</trkpt>
<trkpt lat="32.5192500" lon="35.3724800">
<ele>325.580017</ele>
<time>2024-04-03T11:44:44.178Z</time>
</trkpt>
<trkpt lat="32.5191000" lon="35.3725100">
<ele>328.020020</ele>
<time>2024-04-03T11:44:44.178Z</time>
</trkpt>
<trkpt lat="32.5190900" lon="35.3725900">
<ele>328.700012</ele>
<time>2024-04-03T11:44:44.178Z</time>
</trkpt>
<trkpt lat="32.5190900" lon="35.3726700">
<ele>329.220001</ele>
<time>2024-04-03T11:44:44.178Z</time>
</trkpt>
<trkpt lat="32.5191200" lon="35.3727600">
<ele>329.080017</ele>
<time>2024-04-03T11:44:44.178Z</time>
</trkpt>
<trkpt lat="32.5193100" lon="35.3729900">
<ele>327.729980</ele>
<time>2024-04-03T11:44:44.178Z</time>
</trkpt>
<trkpt lat="32.5195100" lon="35.3732600">
<ele>327.910004</ele>
<time>2024-04-03T11:44:44.178Z</time>
</trkpt>
<trkpt lat="32.5195900" lon="35.3733100">
<ele>328.400024</ele>
<time>2024-04-03T11:44:44.178Z</time>
</trkpt>
<trkpt lat="32.5196500" lon="35.3733400">
<ele>328.820007</ele>
<time>2024-04-03T11:44:44.178Z</time>
</trkpt>
<trkpt lat="32.5197500" lon="35.3733700">
<ele>329.720001</ele>
<time>2024-04-03T11:44:44.178Z</time>
</trkpt>
<trkpt lat="32.5197600" lon="35.3734600">
<ele>330.899994</ele>
<time>2024-04-03T11:44:44.178Z</time>
</trkpt>
<trkpt lat="32.5197600" lon="35.3735400">
<ele>331.839996</ele>
<time>2024-04-03T11:44:44.178Z</time>
</trkpt>
<trkpt lat="32.5197200" lon="35.3736300">
<ele>332.410004</ele>
<time>2024-04-03T11:44:44.178Z</time>
</trkpt>
<trkpt lat="32.5197100" lon="35.3736600">
<ele>333.049988</ele>
<time>2024-04-03T11:44:44.178Z</time>
</trkpt>
<trkpt lat="32.5197700" lon="35.3736600">
<ele>333.889984</ele>
<time>2024-04-03T11:44:44.178Z</time>
</trkpt>
<trkpt lat="32.5198600" lon="35.3736200">
<ele>334.659973</ele>
<time>2024-04-03T11:44:44.178Z</time>
</trkpt>
<trkpt lat="32.5199600" lon="35.3736000">
<ele>336.089996</ele>
<time>2024-04-03T11:44:44.178Z</time>
</trkpt>
<trkpt lat="32.5201000" lon="35.3734900">
<ele>336.010010</ele>
<time>2024-04-03T11:44:44.178Z</time>
</trkpt>
<trkpt lat="32.5202200" lon="35.3733400">
<ele>336.020020</ele>
<time>2024-04-03T11:44:44.178Z</time>
</trkpt>
<trkpt lat="32.5206000" lon="35.3726100">
<ele>332.589996</ele>
<time>2024-04-03T11:44:44.178Z</time>
</trkpt>
<trkpt lat="32.5206700" lon="35.3723700">
<ele>332.440002</ele>
<time>2024-04-03T11:44:44.178Z</time>
</trkpt>
<trkpt lat="32.5206900" lon="35.3721700">
<ele>332.359985</ele>
<time>2024-04-03T11:44:44.178Z</time>
</trkpt>
<trkpt lat="32.5207200" lon="35.3718800">
<ele>335.479980</ele>
<time>2024-04-03T11:44:44.178Z</time>
</trkpt>
<trkpt lat="32.5207200" lon="35.3718000">
<ele>336.629974</ele>
<time>2024-04-03T11:44:44.178Z</time>
</trkpt>
<trkpt lat="32.5207100" lon="35.3714100">
<ele>339.159973</ele>
<time>2024-04-03T11:44:44.178Z</time>
</trkpt>
<trkpt lat="32.5206400" lon="35.3710500">
<ele>337.390015</ele>
<time>2024-04-03T11:44:44.178Z</time>
</trkpt>
<trkpt lat="32.5206300" lon="35.3705700">
<ele>335.850006</ele>
<time>2024-04-03T11:44:44.178Z</time>
</trkpt>
<trkpt lat="32.5206200" lon="35.3705300">
<ele>335.880005</ele>
<time>2024-04-03T11:44:44.178Z</time>
</trkpt>
<trkpt lat="32.5206100" lon="35.3703400">
<ele>337.549988</ele>
<time>2024-04-03T11:44:44.178Z</time>
</trkpt>
<trkpt lat="32.5205900" lon="35.3700300">
<ele>338.640015</ele>
<time>2024-04-03T11:44:44.178Z</time>
</trkpt>
<trkpt lat="32.5206000" lon="35.3697700">
<ele>339.660004</ele>
<time>2024-04-03T11:44:44.178Z</time>
</trkpt>
<trkpt lat="32.5205900" lon="35.3696200">
<ele>339.209991</ele>
<time>2024-04-03T11:44:44.178Z</time>
</trkpt>
<trkpt lat="32.5205800" lon="35.3693200">
<ele>337.380005</ele>
<time>2024-04-03T11:44:44.178Z</time>
</trkpt>
<trkpt lat="32.5206000" lon="35.3686100">
<ele>334.480011</ele>
<time>2024-04-03T11:44:44.178Z</time>
</trkpt>
<trkpt lat="32.5205900" lon="35.3683700">
<ele>334.589996</ele>
<time>2024-04-03T11:44:44.178Z</time>
</trkpt>
<trkpt lat="32.5205800" lon="35.3681200">
<ele>332.900024</ele>
<time>2024-04-03T11:44:44.178Z</time>
</trkpt>
<trkpt lat="32.5205500" lon="35.3678800">
<ele>330.690002</ele>
<time>2024-04-03T11:44:44.178Z</time>
</trkpt>
<trkpt lat="32.5205400" lon="35.3677600">
<ele>329.940002</ele>
<time>2024-04-03T11:44:44.178Z</time>
</trkpt>
<trkpt lat="32.5205500" lon="35.3674500">
<ele>328.860016</ele>
<time>2024-04-03T11:44:44.178Z</time>
</trkpt>
<trkpt lat="32.5205900" lon="35.3673000">
<ele>328.559998</ele>
<time>2024-04-03T11:44:44.178Z</time>
</trkpt>
<trkpt lat="32.5206500" lon="35.3672000">
<ele>328.549988</ele>
<time>2024-04-03T11:44:44.178Z</time>
</trkpt>
<trkpt lat="32.5207100" lon="35.3671600">
<ele>328.639984</ele>
<time>2024-04-03T11:44:44.178Z</time>
</trkpt>
<trkpt lat="32.5208300" lon="35.3670700">
<ele>328.350006</ele>
<time>2024-04-03T11:44:44.178Z</time>
</trkpt>
<trkpt lat="32.5209000" lon="35.3670400">
<ele>328.109985</ele>
<time>2024-04-03T11:44:44.178Z</time>
</trkpt>
<trkpt lat="32.5209500" lon="35.3670200">
<ele>327.930023</ele>
<time>2024-04-03T11:44:44.178Z</time>
</trkpt>
<trkpt lat="32.5210000" lon="35.3669800">
<ele>327.460022</ele>
<time>2024-04-03T11:44:44.178Z</time>
</trkpt>
<trkpt lat="32.5210800" lon="35.3669600">
<ele>327.220001</ele>
<time>2024-04-03T11:44:44.178Z</time>
</trkpt>
<trkpt lat="32.5211500" lon="35.3668200">
<ele>325.519989</ele>
<time>2024-04-03T11:44:44.178Z</time>
</trkpt>
<trkpt lat="32.5212300" lon="35.3667600">
<ele>324.920013</ele>
<time>2024-04-03T11:44:44.178Z</time>
</trkpt>
<trkpt lat="32.5213400" lon="35.3667300">
<ele>324.660004</ele>
<time>2024-04-03T11:44:44.178Z</time>
</trkpt>
<trkpt lat="32.5213900" lon="35.3666800">
<ele>323.410004</ele>
<time>2024-04-03T11:44:44.178Z</time>
</trkpt>
<trkpt lat="32.5215700" lon="35.3666300">
<ele>326.209991</ele>
<time>2024-04-03T11:44:44.178Z</time>
</trkpt>
<trkpt lat="32.5216200" lon="35.3665900">
<ele>326.430023</ele>
<time>2024-04-03T11:44:44.178Z</time>
</trkpt>
<trkpt lat="32.5216800" lon="35.3665600">
<ele>326.950012</ele>
<time>2024-04-03T11:44:44.178Z</time>
</trkpt>
<trkpt lat="32.5219400" lon="35.3663200">
<ele>325.690002</ele>
<time>2024-04-03T11:44:44.178Z</time>
</trkpt>
<trkpt lat="32.5220800" lon="35.3662900">
<ele>326.860016</ele>
<time>2024-04-03T11:44:44.178Z</time>
</trkpt>
<trkpt lat="32.5222100" lon="35.3662400">
<ele>327.700012</ele>
<time>2024-04-03T11:44:44.178Z</time>
</trkpt>
<trkpt lat="32.5223700" lon="35.3662200">
<ele>329.369995</ele>
<time>2024-04-03T11:44:44.178Z</time>
</trkpt>
<trkpt lat="32.5224400" lon="35.3661700">
<ele>329.369995</ele>
<time>2024-04-03T11:44:44.178Z</time>
</trkpt>
<trkpt lat="32.5224800" lon="35.3661700">
<ele>329.829987</ele>
<time>2024-04-03T11:44:44.178Z</time>
</trkpt>
<trkpt lat="32.5225900" lon="35.3661600">
<ele>330.910004</ele>
<time>2024-04-03T11:44:44.178Z</time>
</trkpt>
<trkpt lat="32.5226800" lon="35.3661700">
<ele>332.139984</ele>
<time>2024-04-03T11:44:44.178Z</time>
</trkpt>
<trkpt lat="32.5227100" lon="35.3661700">
<ele>332.489990</ele>
<time>2024-04-03T11:44:44.178Z</time>
</trkpt>
<trkpt lat="32.5228800" lon="35.3661200">
<ele>333.279999</ele>
<time>2024-04-03T11:44:44.178Z</time>
</trkpt>
<trkpt lat="32.5229300" lon="35.3660700">
<ele>332.900024</ele>
<time>2024-04-03T11:44:44.178Z</time>
</trkpt>
<trkpt lat="32.5230000" lon="35.3660400">
<ele>333.119995</ele>
<time>2024-04-03T11:44:44.178Z</time>
</trkpt>
<trkpt lat="32.5230600" lon="35.3659900">
<ele>332.860016</ele>
<time>2024-04-03T11:44:44.178Z</time>
</trkpt>
<trkpt lat="32.5232000" lon="35.3659600">
<ele>333.559998</ele>
<time>2024-04-03T11:44:44.178Z</time>
</trkpt>
<trkpt lat="32.5232500" lon="35.3659100">
<ele>332.970001</ele>
<time>2024-04-03T11:44:44.178Z</time>
</trkpt>
<trkpt lat="32.5233000" lon="35.3658700">
<ele>332.540009</ele>
<time>2024-04-03T11:44:44.178Z</time>
</trkpt>
<trkpt lat="32.5235200" lon="35.3656400">
<ele>329.600006</ele>
<time>2024-04-03T11:44:44.178Z</time>
</trkpt>
<trkpt lat="32.5237500" lon="35.3656100">
<ele>330.269989</ele>
<time>2024-04-03T11:44:44.178Z</time>
</trkpt>
<trkpt lat="32.5239400" lon="35.3655100">
<ele>329.660004</ele>
<time>2024-04-03T11:44:44.178Z</time>
</trkpt>
<trkpt lat="32.5240300" lon="35.3655100">
<ele>329.929993</ele>
<time>2024-04-03T11:44:44.178Z</time>
</trkpt>
<trkpt lat="32.5240500" lon="35.3656000">
<ele>331.730011</ele>
<time>2024-04-03T11:44:44.178Z</time>
</trkpt>
<trkpt lat="32.5241100" lon="35.3656900">
<ele>334.470001</ele>
<time>2024-04-03T11:44:44.178Z</time>
</trkpt>
<trkpt lat="32.5242500" lon="35.3657200">
<ele>335.929993</ele>
<time>2024-04-03T11:44:44.178Z</time>
</trkpt>
<trkpt lat="32.5243400" lon="35.3657500">
<ele>336.720001</ele>
<time>2024-04-03T11:44:44.178Z</time>
</trkpt>
<trkpt lat="32.5244100" lon="35.3657500">
<ele>336.779999</ele>
<time>2024-04-03T11:44:44.178Z</time>
</trkpt>
<trkpt lat="32.5244600" lon="35.3657200">
<ele>336.410004</ele>
<time>2024-04-03T11:44:44.178Z</time>
</trkpt>
<trkpt lat="32.5245200" lon="35.3656900">
<ele>336.220001</ele>
<time>2024-04-03T11:44:44.178Z</time>
</trkpt>
<trkpt lat="32.5245600" lon="35.3656400">
<ele>335.800018</ele>
<time>2024-04-03T11:44:44.178Z</time>
</trkpt>
<trkpt lat="32.5248000" lon="35.3653900">
<ele>333.309998</ele>
<time>2024-04-03T11:44:44.178Z</time>
</trkpt>
<trkpt lat="32.5249200" lon="35.3652200">
<ele>331.660004</ele>
<time>2024-04-03T11:44:44.178Z</time>
</trkpt>
<trkpt lat="32.5249500" lon="35.3650500">
<ele>331.879974</ele>
<time>2024-04-03T11:44:44.178Z</time>
</trkpt>
<trkpt lat="32.5252700" lon="35.3640600">
<ele>334.870026</ele>
<time>2024-04-03T11:44:44.178Z</time>
</trkpt>
<trkpt lat="32.5251100" lon="35.3631400">
<ele>334.760010</ele>
<time>2024-04-03T11:44:44.178Z</time>
</trkpt>
<trkpt lat="32.5246700" lon="35.3627200">
<ele>338.129974</ele>
<time>2024-04-03T11:44:44.178Z</time>
</trkpt>
<trkpt lat="32.5243200" lon="35.3622800">
<ele>345.910004</ele>
<time>2024-04-03T11:44:44.178Z</time>
</trkpt>
<trkpt lat="32.5240800" lon="35.3615000">
<ele>343.929993</ele>
<time>2024-04-03T11:44:44.178Z</time>
</trkpt>
<trkpt lat="32.5240200" lon="35.3604700">
<ele>347.159973</ele>
<time>2024-04-03T11:44:44.178Z</time>
</trkpt>
<trkpt lat="32.5237400" lon="35.3597800">
<ele>342.549988</ele>
<time>2024-04-03T11:44:44.178Z</time>
</trkpt>
<trkpt lat="32.5232500" lon="35.3596100">
<ele>339.360016</ele>
<time>2024-04-03T11:44:44.178Z</time>
</trkpt>
<trkpt lat="32.5229400" lon="35.3595200">
<ele>335.149994</ele>
<time>2024-04-03T11:44:44.178Z</time>
</trkpt>
<trkpt lat="32.5226500" lon="35.3591800">
<ele>333.049988</ele>
<time>2024-04-03T11:44:44.178Z</time>
</trkpt>
<trkpt lat="32.5227500" lon="35.3589300">
<ele>337.359985</ele>
<time>2024-04-03T11:44:44.178Z</time>
</trkpt>
<trkpt lat="32.5226000" lon="35.3589100">
<ele>335.779999</ele>
<time>2024-04-03T11:44:44.178Z</time>
</trkpt>
<trkpt lat="32.5225100" lon="35.3588700">
<ele>335.309998</ele>
<time>2024-04-03T11:44:44.178Z</time>
</trkpt>
<trkpt lat="32.5224100" lon="35.3585800">
<ele>337.310028</ele>
<time>2024-04-03T11:44:44.178Z</time>
</trkpt>
<trkpt lat="32.5223300" lon="35.3584200">
<ele>336.929993</ele>
<time>2024-04-03T11:44:44.178Z</time>
</trkpt>
<trkpt lat="32.5223000" lon="35.3582500">
<ele>336.480011</ele>
<time>2024-04-03T11:44:44.178Z</time>
</trkpt>
<trkpt lat="32.5222800" lon="35.3581300">
<ele>335.689972</ele>
<time>2024-04-03T11:44:44.178Z</time>
</trkpt>
<trkpt lat="32.5222700" lon="35.3579600">
<ele>334.889984</ele>
<time>2024-04-03T11:44:44.178Z</time>
</trkpt>
<trkpt lat="32.5222600" lon="35.3578400">
<ele>334.470001</ele>
<time>2024-04-03T11:44:44.178Z</time>
</trkpt>
<trkpt lat="32.5222500" lon="35.3577400">
<ele>333.930023</ele>
<time>2024-04-03T11:44:44.178Z</time>
</trkpt>
<trkpt lat="32.5220500" lon="35.3578200">
<ele>335.819977</ele>
<time>2024-04-03T11:44:44.178Z</time>
</trkpt>
<trkpt lat="32.5219500" lon="35.3578400">
<ele>336.720001</ele>
<time>2024-04-03T11:44:44.178Z</time>
</trkpt>
<trkpt lat="32.5218700" lon="35.3578600">
<ele>337.959991</ele>
<time>2024-04-03T11:44:44.178Z</time>
</trkpt>
<trkpt lat="32.5218100" lon="35.3578700">
<ele>338.930023</ele>
<time>2024-04-03T11:44:44.178Z</time>
</trkpt>
<trkpt lat="32.5216100" lon="35.3579000">
<ele>341.139984</ele>
<time>2024-04-03T11:44:44.178Z</time>
</trkpt>
<trkpt lat="32.5213300" lon="35.3579100">
<ele>339.410004</ele>
<time>2024-04-03T11:44:44.178Z</time>
</trkpt>
<trkpt lat="32.5211300" lon="35.3578600">
<ele>334.740021</ele>
<time>2024-04-03T11:44:44.178Z</time>
</trkpt>
<trkpt lat="32.5210000" lon="35.3576800">
<ele>333.970001</ele>
<time>2024-04-03T11:44:44.178Z</time>
</trkpt>
<trkpt lat="32.5210000" lon="35.3576200">
<ele>334.449982</ele>
<time>2024-04-03T11:44:44.178Z</time>
</trkpt>
<trkpt lat="32.5210000" lon="35.3575700">
<ele>334.850006</ele>
<time>2024-04-03T11:44:44.178Z</time>
</trkpt>
<trkpt lat="32.5210100" lon="35.3572600">
<ele>335.959991</ele>
<time>2024-04-03T11:44:44.178Z</time>
</trkpt>
<trkpt lat="32.5210900" lon="35.3570400">
<ele>339.820007</ele>
<time>2024-04-03T11:44:44.178Z</time>
</trkpt>
<trkpt lat="32.5211400" lon="35.3567900">
<ele>340.780029</ele>
<time>2024-04-03T11:44:44.178Z</time>
</trkpt>
<trkpt lat="32.5212300" lon="35.3565500">
<ele>337.799988</ele>
<time>2024-04-03T11:44:44.178Z</time>
</trkpt>
<trkpt lat="32.5212900" lon="35.3562600">
<ele>333.320007</ele>
<time>2024-04-03T11:44:44.178Z</time>
</trkpt>
<trkpt lat="32.5214200" lon="35.3560000">
<ele>329.860016</ele>
<time>2024-04-03T11:44:44.178Z</time>
</trkpt>
<trkpt lat="32.5214800" lon="35.3558200">
<ele>327.859985</ele>
<time>2024-04-03T11:44:44.178Z</time>
</trkpt>
<trkpt lat="32.5214900" lon="35.3556800">
<ele>325.470001</ele>
<time>2024-04-03T11:44:44.178Z</time>
</trkpt>
<trkpt lat="32.5219100" lon="35.3547500">
<ele>316.049988</ele>
<time>2024-04-03T11:44:44.178Z</time>
</trkpt>
<trkpt lat="32.5220700" lon="35.3542500">
<ele>317.649994</ele>
<time>2024-04-03T11:44:44.178Z</time>
</trkpt>
<trkpt lat="32.5220900" lon="35.3541100">
<ele>318.550018</ele>
<time>2024-04-03T11:44:44.178Z</time>
</trkpt>
<trkpt lat="32.5221200" lon="35.3540600">
<ele>318.149994</ele>
<time>2024-04-03T11:44:44.178Z</time>
</trkpt>
<trkpt lat="32.5222000" lon="35.3538800">
<ele>318.640015</ele>
<time>2024-04-03T11:44:44.178Z</time>
</trkpt>
<trkpt lat="32.5223400" lon="35.3534100">
<ele>309.360016</ele>
<time>2024-04-03T11:44:44.178Z</time>
</trkpt>
<trkpt lat="32.5223500" lon="35.3532400">
<ele>305.799988</ele>
<time>2024-04-03T11:44:44.178Z</time>
</trkpt>
<trkpt lat="32.5223500" lon="35.3531500">
<ele>303.649994</ele>
<time>2024-04-03T11:44:44.178Z</time>
</trkpt>
<trkpt lat="32.5223500" lon="35.3529200">
<ele>299.180023</ele>
<time>2024-04-03T11:44:44.178Z</time>
</trkpt>
<trkpt lat="32.5223400" lon="35.3527100">
<ele>296.350006</ele>
<time>2024-04-03T11:44:44.178Z</time>
</trkpt>
<trkpt lat="32.5221800" lon="35.3522100">
<ele>297.869995</ele>
<time>2024-04-03T11:44:44.178Z</time>
</trkpt>
<trkpt lat="32.5220400" lon="35.3518700">
<ele>298.239990</ele>
<time>2024-04-03T11:44:44.178Z</time>
</trkpt>
<trkpt lat="32.5220200" lon="35.3518100">
<ele>298.199982</ele>
<time>2024-04-03T11:44:44.178Z</time>
</trkpt>
<trkpt lat="32.5219700" lon="35.3511900">
<ele>287.570007</ele>
<time>2024-04-03T11:44:44.178Z</time>
</trkpt>
<trkpt lat="32.5219500" lon="35.3509500">
<ele>286.890015</ele>
<time>2024-04-03T11:44:44.178Z</time>
</trkpt>
<trkpt lat="32.5219400" lon="35.3508000">
<ele>287.040009</ele>
<time>2024-04-03T11:44:44.178Z</time>
</trkpt>
<trkpt lat="32.5219300" lon="35.3502700">
<ele>284.720001</ele>
<time>2024-04-03T11:44:44.178Z</time>
</trkpt>
<trkpt lat="32.5218900" lon="35.3497500">
<ele>279.869995</ele>
<time>2024-04-03T11:44:44.178Z</time>
</trkpt>
<trkpt lat="32.5218300" lon="35.3494700">
<ele>281.510010</ele>
<time>2024-04-03T11:44:44.178Z</time>
</trkpt>
<trkpt lat="32.5216600" lon="35.3489400">
<ele>285.480011</ele>
<time>2024-04-03T11:44:44.178Z</time>
</trkpt>
<trkpt lat="32.5216400" lon="35.3486900">
<ele>284.720001</ele>
<time>2024-04-03T11:44:44.178Z</time>
</trkpt>
<trkpt lat="32.5216300" lon="35.3484400">
<ele>283.890015</ele>
<time>2024-04-03T11:44:44.178Z</time>
</trkpt>
<trkpt lat="32.5216300" lon="35.3482800">
<ele>283.089996</ele>
<time>2024-04-03T11:44:44.178Z</time>
</trkpt>
<trkpt lat="32.5216800" lon="35.3480000">
<ele>279.070007</ele>
<time>2024-04-03T11:44:44.178Z</time>
</trkpt>
<trkpt lat="32.5218800" lon="35.3475700">
<ele>268.209991</ele>
<time>2024-04-03T11:44:44.178Z</time>
</trkpt>
<trkpt lat="32.5220000" lon="35.3471100">
<ele>265.600006</ele>
<time>2024-04-03T11:44:44.178Z</time>
</trkpt>
<trkpt lat="32.5221200" lon="35.3468700">
<ele>262.410004</ele>
<time>2024-04-03T11:44:44.178Z</time>
</trkpt>
<trkpt lat="32.5222200" lon="35.3466100">
<ele>259.079987</ele>
<time>2024-04-03T11:44:44.178Z</time>
</trkpt>
<trkpt lat="32.5224500" lon="35.3455300">
<ele>257.809998</ele>
<time>2024-04-03T11:44:44.178Z</time>
</trkpt>
<trkpt lat="32.5224600" lon="35.3451500">
<ele>255.800003</ele>
<time>2024-04-03T11:44:44.178Z</time>
</trkpt>
<trkpt lat="32.5224900" lon="35.3448700">
<ele>252.730011</ele>
<time>2024-04-03T11:44:44.178Z</time>
</trkpt>
<trkpt lat="32.5224900" lon="35.3448000">
<ele>251.940002</ele>
<time>2024-04-03T11:44:44.178Z</time>
</trkpt>
<trkpt lat="32.5224200" lon="35.3445800">
<ele>250.039993</ele>
<time>2024-04-03T11:44:44.178Z</time>
</trkpt>
<trkpt lat="32.5221900" lon="35.3443000">
<ele>248.029999</ele>
<time>2024-04-03T11:44:44.178Z</time>
</trkpt>
<trkpt lat="32.5220900" lon="35.3441900">
<ele>247.440002</ele>
<time>2024-04-03T11:44:44.178Z</time>
</trkpt>
<trkpt lat="32.5217500" lon="35.3439200">
<ele>246.089996</ele>
<time>2024-04-03T11:44:44.178Z</time>
</trkpt>
<trkpt lat="32.5216500" lon="35.3438200">
<ele>245.020004</ele>
<time>2024-04-03T11:44:44.178Z</time>
</trkpt>
<trkpt lat="32.5214600" lon="35.3434000">
<ele>243.639999</ele>
<time>2024-04-03T11:44:44.178Z</time>
</trkpt>
<trkpt lat="32.5214600" lon="35.3432100">
<ele>240.220001</ele>
<time>2024-04-03T11:44:44.178Z</time>
</trkpt>
<trkpt lat="32.5214500" lon="35.3431200">
<ele>238.960007</ele>
<time>2024-04-03T11:44:44.178Z</time>
</trkpt>
<trkpt lat="32.5215100" lon="35.3429400">
<ele>233.919998</ele>
<time>2024-04-03T11:44:44.178Z</time>
</trkpt>
<trkpt lat="32.5216100" lon="35.3427300">
<ele>228.630005</ele>
<time>2024-04-03T11:44:44.178Z</time>
</trkpt>
<trkpt lat="32.5216300" lon="35.3425100">
<ele>228.379990</ele>
<time>2024-04-03T11:44:44.178Z</time>
</trkpt>
<trkpt lat="32.5217000" lon="35.3423800">
<ele>227.159988</ele>
<time>2024-04-03T11:44:44.178Z</time>
</trkpt>
<trkpt lat="32.5217600" lon="35.3422700">
<ele>225.650009</ele>
<time>2024-04-03T11:44:44.178Z</time>
</trkpt>
<trkpt lat="32.5218600" lon="35.3421600">
<ele>223.459991</ele>
<time>2024-04-03T11:44:44.178Z</time>
</trkpt>
<trkpt lat="32.5220100" lon="35.3419000">
<ele>221.839996</ele>
<time>2024-04-03T11:44:44.178Z</time>
</trkpt>
<trkpt lat="32.5221900" lon="35.3416900">
<ele>215.230011</ele>
<time>2024-04-03T11:44:44.178Z</time>
</trkpt>
<trkpt lat="32.5222900" lon="35.3415300">
<ele>210.950012</ele>
<time>2024-04-03T11:44:44.178Z</time>
</trkpt>
<trkpt lat="32.5225000" lon="35.3412200">
<ele>203.220001</ele>
<time>2024-04-03T11:44:44.178Z</time>
</trkpt>
<trkpt lat="32.5225600" lon="35.3410200">
<ele>204.059998</ele>
<time>2024-04-03T11:44:44.178Z</time>
</trkpt>
<trkpt lat="32.5226700" lon="35.3408000">
<ele>204.489990</ele>
<time>2024-04-03T11:44:44.178Z</time>
</trkpt>
<trkpt lat="32.5227200" lon="35.3406000">
<ele>205.669998</ele>
<time>2024-04-03T11:44:44.178Z</time>
</trkpt>
<trkpt lat="32.5228100" lon="35.3404800">
<ele>204.380005</ele>
<time>2024-04-03T11:44:44.178Z</time>
</trkpt>
<trkpt lat="32.5229500" lon="35.3401100">
<ele>200.910004</ele>
<time>2024-04-03T11:44:44.178Z</time>
</trkpt>
<trkpt lat="32.5230200" lon="35.3399900">
<ele>198.150009</ele>
<time>2024-04-03T11:44:44.178Z</time>
</trkpt>
<trkpt lat="32.5231000" lon="35.3397000">
<ele>195.090012</ele>
<time>2024-04-03T11:44:44.178Z</time>
</trkpt>
<trkpt lat="32.5231500" lon="35.3393000">
<ele>189.330002</ele>
<time>2024-04-03T11:44:44.178Z</time>
</trkpt>
<trkpt lat="32.5232100" lon="35.3389700">
<ele>182.249985</ele>
<time>2024-04-03T11:44:44.178Z</time>
</trkpt>
<trkpt lat="32.5232100" lon="35.3389000">
<ele>181.550003</ele>
<time>2024-04-03T11:44:44.178Z</time>
</trkpt>
<trkpt lat="32.5232300" lon="35.3388600">
<ele>180.709991</ele>
<time>2024-04-03T11:44:44.178Z</time>
</trkpt>
<trkpt lat="32.5232300" lon="35.3388000">
<ele>180.680008</ele>
<time>2024-04-03T11:44:44.178Z</time>
</trkpt>
<trkpt lat="32.5232400" lon="35.3386500">
<ele>180.349991</ele>
<time>2024-04-03T11:44:44.178Z</time>
</trkpt>
<trkpt lat="32.5233600" lon="35.3389400">
<ele>176.750000</ele>
<time>2024-04-03T11:44:44.178Z</time>
</trkpt>
<trkpt lat="32.5234200" lon="35.3397400">
<ele>183.879990</ele>
<time>2024-04-03T11:44:44.178Z</time>
</trkpt>
<trkpt lat="32.5234100" lon="35.3399400">
<ele>184.850006</ele>
<time>2024-04-03T11:44:44.178Z</time>
</trkpt>
<trkpt lat="32.5233700" lon="35.3403100">
<ele>189.240005</ele>
<time>2024-04-03T11:44:44.178Z</time>
</trkpt>
<trkpt lat="32.5233700" lon="35.3406400">
<ele>187.889999</ele>
<time>2024-04-03T11:44:44.178Z</time>
</trkpt>
<trkpt lat="32.5233300" lon="35.3412600">
<ele>185.130005</ele>
<time>2024-04-03T11:44:44.178Z</time>
</trkpt>
<trkpt lat="32.5233100" lon="35.3413700">
<ele>186.139999</ele>
<time>2024-04-03T11:44:44.178Z</time>
</trkpt>
<trkpt lat="32.5232800" lon="35.3416700">
<ele>190.259995</ele>
<time>2024-04-03T11:44:44.178Z</time>
</trkpt>
<trkpt lat="32.5232700" lon="35.3418400">
<ele>193.630005</ele>
<time>2024-04-03T11:44:44.178Z</time>
</trkpt>
<trkpt lat="32.5233000" lon="35.3419800">
<ele>195.739990</ele>
<time>2024-04-03T11:44:44.178Z</time>
</trkpt>
<trkpt lat="32.5234100" lon="35.3420200">
<ele>194.110001</ele>
<time>2024-04-03T11:44:44.178Z</time>
</trkpt>
<trkpt lat="32.5238700" lon="35.3420200">
<ele>191.160004</ele>
<time>2024-04-03T11:44:44.178Z</time>
</trkpt>
<trkpt lat="32.5239400" lon="35.3420200">
<ele>190.539993</ele>
<time>2024-04-03T11:44:44.178Z</time>
</trkpt>
<trkpt lat="32.5240400" lon="35.3420200">
<ele>189.099991</ele>
<time>2024-04-03T11:44:44.178Z</time>
</trkpt>
<trkpt lat="32.5242500" lon="35.3420200">
<ele>187.109985</ele>
<time>2024-04-03T11:44:44.178Z</time>
</trkpt>
<trkpt lat="32.5243200" lon="35.3420300">
<ele>186.970001</ele>
<time>2024-04-03T11:44:44.178Z</time>
</trkpt>
<trkpt lat="32.5244400" lon="35.3421000">
<ele>186.460007</ele>
<time>2024-04-03T11:44:44.178Z</time>
</trkpt>
<trkpt lat="32.5245900" lon="35.3422800">
<ele>184.639999</ele>
<time>2024-04-03T11:44:44.178Z</time>
</trkpt>
<trkpt lat="32.5246700" lon="35.3424300">
<ele>183.490005</ele>
<time>2024-04-03T11:44:44.178Z</time>
</trkpt>
<trkpt lat="32.5247500" lon="35.3426600">
<ele>183.299988</ele>
<time>2024-04-03T11:44:44.178Z</time>
</trkpt>
<trkpt lat="32.5248300" lon="35.3430100">
<ele>186.350006</ele>
<time>2024-04-03T11:44:44.178Z</time>
</trkpt>
<trkpt lat="32.5249200" lon="35.3432400">
<ele>185.809998</ele>
<time>2024-04-03T11:44:44.178Z</time>
</trkpt>
<trkpt lat="32.5249800" lon="35.3434500">
<ele>183.800003</ele>
<time>2024-04-03T11:44:44.178Z</time>
</trkpt>
<trkpt lat="32.5250000" lon="35.3436100">
<ele>182.010010</ele>
<time>2024-04-03T11:44:44.178Z</time>
</trkpt>
<trkpt lat="32.5250200" lon="35.3436500">
<ele>182.630005</ele>
<time>2024-04-03T11:44:44.178Z</time>
</trkpt>
<trkpt lat="32.5250300" lon="35.3437800">
<ele>184.080002</ele>
<time>2024-04-03T11:44:44.178Z</time>
</trkpt>
<trkpt lat="32.5250700" lon="35.3438000">
<ele>184.620010</ele>
<time>2024-04-03T11:44:44.178Z</time>
</trkpt>
<trkpt lat="32.5251300" lon="35.3438000">
<ele>185.130005</ele>
<time>2024-04-03T11:44:44.178Z</time>
</trkpt>
<trkpt lat="32.5253300" lon="35.3437300">
<ele>186.389999</ele>
<time>2024-04-03T11:44:44.178Z</time>
</trkpt>
<trkpt lat="32.5253800" lon="35.3436700">
<ele>186.319992</ele>
<time>2024-04-03T11:44:44.178Z</time>
</trkpt>
<trkpt lat="32.5254700" lon="35.3433800">
<ele>184.339996</ele>
<time>2024-04-03T11:44:44.178Z</time>
</trkpt>
<trkpt lat="32.5257200" lon="35.3427800">
<ele>180.210007</ele>
<time>2024-04-03T11:44:44.178Z</time>
</trkpt>
<trkpt lat="32.5257600" lon="35.3427900">
<ele>180.649994</ele>
<time>2024-04-03T11:44:44.178Z</time>
</trkpt>
<trkpt lat="32.5257700" lon="35.3428400">
<ele>181.459991</ele>
<time>2024-04-03T11:44:44.178Z</time>
</trkpt>
<trkpt lat="32.5257700" lon="35.3430200">
<ele>184.110016</ele>
<time>2024-04-03T11:44:44.178Z</time>
</trkpt>
<trkpt lat="32.5257800" lon="35.3431800">
<ele>186.550003</ele>
<time>2024-04-03T11:44:44.178Z</time>
</trkpt>
<trkpt lat="32.5258200" lon="35.3431900">
<ele>187.620010</ele>
<time>2024-04-03T11:44:44.178Z</time>
</trkpt>
<trkpt lat="32.5258700" lon="35.3431800">
<ele>188.759995</ele>
<time>2024-04-03T11:44:44.178Z</time>
</trkpt>
<trkpt lat="32.5259500" lon="35.3430100">
<ele>187.699997</ele>
<time>2024-04-03T11:44:44.178Z</time>
</trkpt>
<trkpt lat="32.5260300" lon="35.3427600">
<ele>185.070007</ele>
<time>2024-04-03T11:44:44.178Z</time>
</trkpt>
<trkpt lat="32.5262400" lon="35.3424000">
<ele>187.860001</ele>
<time>2024-04-03T11:44:44.178Z</time>
</trkpt>
<trkpt lat="32.5264100" lon="35.3420000">
<ele>188.770004</ele>
<time>2024-04-03T11:44:44.178Z</time>
</trkpt>
<trkpt lat="32.5264800" lon="35.3418000">
<ele>192.130005</ele>
<time>2024-04-03T11:44:44.178Z</time>
</trkpt>
<trkpt lat="32.5265400" lon="35.3417500">
<ele>195.090012</ele>
<time>2024-04-03T11:44:44.178Z</time>
</trkpt>
<trkpt lat="32.5265700" lon="35.3417500">
<ele>196.419998</ele>
<time>2024-04-03T11:44:44.178Z</time>
</trkpt>
<trkpt lat="32.5265800" lon="35.3418500">
<ele>196.389999</ele>
<time>2024-04-03T11:44:44.178Z</time>
</trkpt>
<trkpt lat="32.5265500" lon="35.3423400">
<ele>199.159988</ele>
<time>2024-04-03T11:44:44.178Z</time>
</trkpt>
<trkpt lat="32.5265200" lon="35.3424400">
<ele>199.059998</ele>
<time>2024-04-03T11:44:44.178Z</time>
</trkpt>
<trkpt lat="32.5264600" lon="35.3429200">
<ele>202.949997</ele>
<time>2024-04-03T11:44:44.178Z</time>
</trkpt>
<trkpt lat="32.5264600" lon="35.3430400">
<ele>203.919998</ele>
<time>2024-04-03T11:44:44.178Z</time>
</trkpt>
<trkpt lat="32.5265200" lon="35.3428700">
<ele>204.120010</ele>
<time>2024-04-03T11:44:44.178Z</time>
</trkpt>
<trkpt lat="32.5266000" lon="35.3427700">
<ele>205.239990</ele>
<time>2024-04-03T11:44:44.178Z</time>
</trkpt>
<trkpt lat="32.5268800" lon="35.3421700">
<ele>209.159988</ele>
<time>2024-04-03T11:44:44.178Z</time>
</trkpt>
<trkpt lat="32.5269700" lon="35.3419500">
<ele>212.539993</ele>
<time>2024-04-03T11:44:44.178Z</time>
</trkpt>
<trkpt lat="32.5270000" lon="35.3419300">
<ele>213.150009</ele>
<time>2024-04-03T11:44:44.178Z</time>
</trkpt>
<trkpt lat="32.5270100" lon="35.3420000">
<ele>213.309998</ele>
<time>2024-04-03T11:44:44.178Z</time>
</trkpt>
<trkpt lat="32.5269100" lon="35.3427000">
<ele>212.330002</ele>
<time>2024-04-03T11:44:44.178Z</time>
</trkpt>
<trkpt lat="32.5268800" lon="35.3431700">
<ele>215.429993</ele>
<time>2024-04-03T11:44:44.178Z</time>
</trkpt>
<trkpt lat="32.5268600" lon="35.3432300">
<ele>215.429993</ele>
<time>2024-04-03T11:44:44.178Z</time>
</trkpt>
<trkpt lat="32.5266300" lon="35.3437400">
<ele>215.250000</ele>
<time>2024-04-03T11:44:44.178Z</time>
</trkpt>
<trkpt lat="32.5265500" lon="35.3439800">
<ele>217.759995</ele>
<time>2024-04-03T11:44:44.178Z</time>
</trkpt>
<trkpt lat="32.5264600" lon="35.3442100">
<ele>220.979996</ele>
<time>2024-04-03T11:44:44.178Z</time>
</trkpt>
<trkpt lat="32.5264600" lon="35.3442900">
<ele>222.279999</ele>
<time>2024-04-03T11:44:44.178Z</time>
</trkpt>
<trkpt lat="32.5264600" lon="35.3443700">
<ele>223.580002</ele>
<time>2024-04-03T11:44:44.178Z</time>
</trkpt>
<trkpt lat="32.5264600" lon="35.3443300">
<ele>222.930008</ele>
<time>2024-04-03T11:44:44.178Z</time>
</trkpt>
<trkpt lat="32.5265300" lon="35.3441900">
<ele>221.959991</ele>
<time>2024-04-03T11:44:44.178Z</time>
</trkpt>
<trkpt lat="32.5267600" lon="35.3439000">
<ele>218.959991</ele>
<time>2024-04-03T11:44:44.178Z</time>
</trkpt>
<trkpt lat="32.5268700" lon="35.3438200">
<ele>219.800003</ele>
<time>2024-04-03T11:44:44.178Z</time>
</trkpt>
<trkpt lat="32.5272600" lon="35.3433900">
<ele>224.169998</ele>
<time>2024-04-03T11:44:44.178Z</time>
</trkpt>
<trkpt lat="32.5273600" lon="35.3432100">
<ele>225.480011</ele>
<time>2024-04-03T11:44:44.178Z</time>
</trkpt>
<trkpt lat="32.5276100" lon="35.3428900">
<ele>226.400009</ele>
<time>2024-04-03T11:44:44.178Z</time>
</trkpt>
<trkpt lat="32.5276900" lon="35.3429000">
<ele>226.440002</ele>
<time>2024-04-03T11:44:44.178Z</time>
</trkpt>
<trkpt lat="32.5277000" lon="35.3429600">
<ele>226.660004</ele>
<time>2024-04-03T11:44:44.178Z</time>
</trkpt>
<trkpt lat="32.5277000" lon="35.3430400">
<ele>226.940002</ele>
<time>2024-04-03T11:44:44.178Z</time>
</trkpt>
<trkpt lat="32.5277100" lon="35.3432600">
<ele>228.849991</ele>
<time>2024-04-03T11:44:44.178Z</time>
</trkpt>
<trkpt lat="32.5277100" lon="35.3439700">
<ele>241.440002</ele>
<time>2024-04-03T11:44:44.178Z</time>
</trkpt>
<trkpt lat="32.5277100" lon="35.3440600">
<ele>242.159988</ele>
<time>2024-04-03T11:44:44.178Z</time>
</trkpt>
<trkpt lat="32.5276300" lon="35.3441400">
<ele>241.629990</ele>
<time>2024-04-03T11:44:44.178Z</time>
</trkpt>
<trkpt lat="32.5275400" lon="35.3441900">
<ele>240.980011</ele>
<time>2024-04-03T11:44:44.178Z</time>
</trkpt>
<trkpt lat="32.5274900" lon="35.3443000">
<ele>242.180008</ele>
<time>2024-04-03T11:44:44.178Z</time>
</trkpt>
<trkpt lat="32.5274600" lon="35.3446600">
<ele>247.460007</ele>
<time>2024-04-03T11:44:44.178Z</time>
</trkpt>
<trkpt lat="32.5274600" lon="35.3448600">
<ele>248.639999</ele>
<time>2024-04-03T11:44:44.178Z</time>
</trkpt>
<trkpt lat="32.5274500" lon="35.3449000">
<ele>248.629990</ele>
<time>2024-04-03T11:44:44.178Z</time>
</trkpt>
<trkpt lat="32.5274200" lon="35.3450100">
<ele>248.680008</ele>
<time>2024-04-03T11:44:44.178Z</time>
</trkpt>
<trkpt lat="32.5274000" lon="35.3451400">
<ele>248.360001</ele>
<time>2024-04-03T11:44:44.178Z</time>
</trkpt>
<trkpt lat="32.5273700" lon="35.3452100">
<ele>248.440002</ele>
<time>2024-04-03T11:44:44.178Z</time>
</trkpt>
<trkpt lat="32.5273100" lon="35.3452600">
<ele>249.000000</ele>
<time>2024-04-03T11:44:44.178Z</time>
</trkpt>
<trkpt lat="32.5272200" lon="35.3453000">
<ele>250.149994</ele>
<time>2024-04-03T11:44:44.178Z</time>
</trkpt>
<trkpt lat="32.5271900" lon="35.3453700">
<ele>250.700012</ele>
<time>2024-04-03T11:44:44.178Z</time>
</trkpt>
<trkpt lat="32.5271800" lon="35.3454500">
<ele>251.460007</ele>
<time>2024-04-03T11:44:44.178Z</time>
</trkpt>
<trkpt lat="32.5271800" lon="35.3455700">
<ele>252.569992</ele>
<time>2024-04-03T11:44:44.178Z</time>
</trkpt>
<trkpt lat="32.5271700" lon="35.3456500">
<ele>253.310013</ele>
<time>2024-04-03T11:44:44.178Z</time>
</trkpt>
<trkpt lat="32.5271400" lon="35.3457000">
<ele>254.080002</ele>
<time>2024-04-03T11:44:44.178Z</time>
</trkpt>
<trkpt lat="32.5270500" lon="35.3458200">
<ele>256.350006</ele>
<time>2024-04-03T11:44:44.178Z</time>
</trkpt>
<trkpt lat="32.5270300" lon="35.3460000">
<ele>255.839996</ele>
<time>2024-04-03T11:44:44.178Z</time>
</trkpt>
<trkpt lat="32.5269800" lon="35.3461700">
<ele>256.529999</ele>
<time>2024-04-03T11:44:44.178Z</time>
</trkpt>
<trkpt lat="32.5269300" lon="35.3462200">
<ele>257.660004</ele>
<time>2024-04-03T11:44:44.178Z</time>
</trkpt>
<trkpt lat="32.5268400" lon="35.3462400">
<ele>258.029999</ele>
<time>2024-04-03T11:44:44.178Z</time>
</trkpt>
<trkpt lat="32.5268100" lon="35.3462900">
<ele>258.429993</ele>
<time>2024-04-03T11:44:44.178Z</time>
</trkpt>
<trkpt lat="32.5268000" lon="35.3463700">
<ele>258.970001</ele>
<time>2024-04-03T11:44:44.178Z</time>
</trkpt>
<trkpt lat="32.5268400" lon="35.3464900">
<ele>258.100006</ele>
<time>2024-04-03T11:44:44.178Z</time>
</trkpt>
<trkpt lat="32.5268500" lon="35.3465300">
<ele>257.699982</ele>
<time>2024-04-03T11:44:44.178Z</time>
</trkpt>
<trkpt lat="32.5268400" lon="35.3465700">
<ele>257.769989</ele>
<time>2024-04-03T11:44:44.178Z</time>
</trkpt>
<trkpt lat="32.5268100" lon="35.3466200">
<ele>258.449982</ele>
<time>2024-04-03T11:44:44.178Z</time>
</trkpt>
<trkpt lat="32.5267400" lon="35.3467700">
<ele>260.130005</ele>
<time>2024-04-03T11:44:44.178Z</time>
</trkpt>
<trkpt lat="32.5265400" lon="35.3469000">
<ele>264.079987</ele>
<time>2024-04-03T11:44:44.178Z</time>
</trkpt>
<trkpt lat="32.5264800" lon="35.3469900">
<ele>264.910004</ele>
<time>2024-04-03T11:44:44.178Z</time>
</trkpt>
<trkpt lat="32.5264400" lon="35.3471600">
<ele>265.160004</ele>
<time>2024-04-03T11:44:44.178Z</time>
</trkpt>
<trkpt lat="32.5263900" lon="35.3472600">
<ele>265.839996</ele>
<time>2024-04-03T11:44:44.178Z</time>
</trkpt>
<trkpt lat="32.5263900" lon="35.3473000">
<ele>265.700012</ele>
<time>2024-04-03T11:44:44.178Z</time>
</trkpt>
<trkpt lat="32.5263700" lon="35.3474600">
<ele>264.979980</ele>
<time>2024-04-03T11:44:44.178Z</time>
</trkpt>
<trkpt lat="32.5263700" lon="35.3476800">
<ele>265.510010</ele>
<time>2024-04-03T11:44:44.178Z</time>
</trkpt>
<trkpt lat="32.5263700" lon="35.3477500">
<ele>265.760010</ele>
<time>2024-04-03T11:44:44.178Z</time>
</trkpt>
<trkpt lat="32.5261600" lon="35.3480800">
<ele>265.350006</ele>
<time>2024-04-03T11:44:44.178Z</time>
</trkpt>
<trkpt lat="32.5260500" lon="35.3485900">
<ele>267.000000</ele>
<time>2024-04-03T11:44:44.178Z</time>
</trkpt>
<trkpt lat="32.5260500" lon="35.3487100">
<ele>266.899994</ele>
<time>2024-04-03T11:44:44.178Z</time>
</trkpt>
<trkpt lat="32.5260600" lon="35.3488100">
<ele>266.470001</ele>
<time>2024-04-03T11:44:44.178Z</time>
</trkpt>
<trkpt lat="32.5260600" lon="35.3489800">
<ele>266.410004</ele>
<time>2024-04-03T11:44:44.178Z</time>
</trkpt>
<trkpt lat="32.5260800" lon="35.3491000">
<ele>265.950012</ele>
<time>2024-04-03T11:44:44.178Z</time>
</trkpt>
<trkpt lat="32.5261800" lon="35.3492900">
<ele>266.479980</ele>
<time>2024-04-03T11:44:44.178Z</time>
</trkpt>
<trkpt lat="32.5262100" lon="35.3490100">
<ele>262.109985</ele>
<time>2024-04-03T11:44:44.178Z</time>
</trkpt>
<trkpt lat="32.5262800" lon="35.3488800">
<ele>259.580017</ele>
<time>2024-04-03T11:44:44.178Z</time>
</trkpt>
<trkpt lat="32.5264800" lon="35.3492500">
<ele>260.429993</ele>
<time>2024-04-03T11:44:44.178Z</time>
</trkpt>
<trkpt lat="32.5265100" lon="35.3492700">
<ele>260.930023</ele>
<time>2024-04-03T11:44:44.178Z</time>
</trkpt>
<trkpt lat="32.5267200" lon="35.3493300">
<ele>261.220001</ele>
<time>2024-04-03T11:44:44.178Z</time>
</trkpt>
<trkpt lat="32.5268200" lon="35.3493300">
<ele>259.860016</ele>
<time>2024-04-03T11:44:44.178Z</time>
</trkpt>
<trkpt lat="32.5268300" lon="35.3492800">
<ele>259.139984</ele>
<time>2024-04-03T11:44:44.178Z</time>
</trkpt>
<trkpt lat="32.5266800" lon="35.3490000">
<ele>255.960007</ele>
<time>2024-04-03T11:44:44.178Z</time>
</trkpt>
<trkpt lat="32.5266700" lon="35.3489500">
<ele>255.089996</ele>
<time>2024-04-03T11:44:44.178Z</time>
</trkpt>
<trkpt lat="32.5267200" lon="35.3489500">
<ele>255.020004</ele>
<time>2024-04-03T11:44:44.178Z</time>
</trkpt>
<trkpt lat="32.5270200" lon="35.3489800">
<ele>254.350006</ele>
<time>2024-04-03T11:44:44.178Z</time>
</trkpt>
<trkpt lat="32.5271000" lon="35.3489800">
<ele>253.679993</ele>
<time>2024-04-03T11:44:44.178Z</time>
</trkpt>
<trkpt lat="32.5271100" lon="35.3488900">
<ele>252.819992</ele>
<time>2024-04-03T11:44:44.178Z</time>
</trkpt>
<trkpt lat="32.5270800" lon="35.3486900">
<ele>248.340012</ele>
<time>2024-04-03T11:44:44.178Z</time>
</trkpt>
<trkpt lat="32.5270600" lon="35.3486400">
<ele>247.120010</ele>
<time>2024-04-03T11:44:44.178Z</time>
</trkpt>
<trkpt lat="32.5270600" lon="35.3486000">
<ele>246.160004</ele>
<time>2024-04-03T11:44:44.178Z</time>
</trkpt>
<trkpt lat="32.5271000" lon="35.3485900">
<ele>246.059998</ele>
<time>2024-04-03T11:44:44.178Z</time>
</trkpt>
<trkpt lat="32.5273300" lon="35.3486600">
<ele>245.620010</ele>
<time>2024-04-03T11:44:44.178Z</time>
</trkpt>
<trkpt lat="32.5273000" lon="35.3485700">
<ele>244.450012</ele>
<time>2024-04-03T11:44:44.178Z</time>
</trkpt>
<trkpt lat="32.5272700" lon="35.3485400">
<ele>244.349991</ele>
<time>2024-04-03T11:44:44.178Z</time>
</trkpt>
<trkpt lat="32.5272700" lon="35.3484700">
<ele>242.759995</ele>
<time>2024-04-03T11:44:44.178Z</time>
</trkpt>
<trkpt lat="32.5272700" lon="35.3484300">
<ele>241.850006</ele>
<time>2024-04-03T11:44:44.178Z</time>
</trkpt>
<trkpt lat="32.5273000" lon="35.3484300">
<ele>241.490005</ele>
<time>2024-04-03T11:44:44.178Z</time>
</trkpt>
<trkpt lat="32.5274600" lon="35.3484600">
<ele>239.919998</ele>
<time>2024-04-03T11:44:44.178Z</time>
</trkpt>
<trkpt lat="32.5275700" lon="35.3484700">
<ele>237.699997</ele>
<time>2024-04-03T11:44:44.178Z</time>
</trkpt>
<trkpt lat="32.5276000" lon="35.3484200">
<ele>236.010010</ele>
<time>2024-04-03T11:44:44.178Z</time>
</trkpt>
<trkpt lat="32.5276000" lon="35.3483300">
<ele>234.330002</ele>
<time>2024-04-03T11:44:44.178Z</time>
</trkpt>
<trkpt lat="32.5275800" lon="35.3481900">
<ele>231.739990</ele>
<time>2024-04-03T11:44:44.178Z</time>
</trkpt>
<trkpt lat="32.5275800" lon="35.3480800">
<ele>229.139999</ele>
<time>2024-04-03T11:44:44.178Z</time>
</trkpt>
<trkpt lat="32.5277500" lon="35.3480900">
<ele>225.930008</ele>
<time>2024-04-03T11:44:44.178Z</time>
</trkpt>
<trkpt lat="32.5278200" lon="35.3480800">
<ele>224.830002</ele>
<time>2024-04-03T11:44:44.178Z</time>
</trkpt>
<trkpt lat="32.5278400" lon="35.3480400">
<ele>224.289993</ele>
<time>2024-04-03T11:44:44.178Z</time>
</trkpt>
<trkpt lat="32.5278500" lon="35.3477500">
<ele>223.020004</ele>
<time>2024-04-03T11:44:44.178Z</time>
</trkpt>
<trkpt lat="32.5278700" lon="35.3476300">
<ele>220.880005</ele>
<time>2024-04-03T11:44:44.178Z</time>
</trkpt>
<trkpt lat="32.5279300" lon="35.3475900">
<ele>219.440002</ele>
<time>2024-04-03T11:44:44.178Z</time>
</trkpt>
<trkpt lat="32.5282800" lon="35.3475800">
<ele>212.279999</ele>
<time>2024-04-03T11:44:44.178Z</time>
</trkpt>
<trkpt lat="32.5283200" lon="35.3475600">
<ele>210.840012</ele>
<time>2024-04-03T11:44:44.178Z</time>
</trkpt>
<trkpt lat="32.5283300" lon="35.3474700">
<ele>208.669998</ele>
<time>2024-04-03T11:44:44.178Z</time>
</trkpt>
<trkpt lat="32.5283000" lon="35.3472400">
<ele>206.329987</ele>
<time>2024-04-03T11:44:44.178Z</time>
</trkpt>
<trkpt lat="32.5282900" lon="35.3469700">
<ele>208.279999</ele>
<time>2024-04-03T11:44:44.178Z</time>
</trkpt>
<trkpt lat="32.5283000" lon="35.3467600">
<ele>208.279999</ele>
<time>2024-04-03T11:44:44.178Z</time>
</trkpt>
<trkpt lat="32.5283500" lon="35.3466200">
<ele>207.520004</ele>
<time>2024-04-03T11:44:44.178Z</time>
</trkpt>
<trkpt lat="32.5283900" lon="35.3465900">
<ele>206.370010</ele>
<time>2024-04-03T11:44:44.178Z</time>
</trkpt>
<trkpt lat="32.5284300" lon="35.3465800">
<ele>205.220001</ele>
<time>2024-04-03T11:44:44.178Z</time>
</trkpt>
<trkpt lat="32.5287700" lon="35.3465700">
<ele>198.080002</ele>
<time>2024-04-03T11:44:44.178Z</time>
</trkpt>
<trkpt lat="32.5288700" lon="35.3465500">
<ele>196.809998</ele>
<time>2024-04-03T11:44:44.178Z</time>
</trkpt>
<trkpt lat="32.5289300" lon="35.3464100">
<ele>195.540009</ele>
<time>2024-04-03T11:44:44.178Z</time>
</trkpt>
<trkpt lat="32.5289400" lon="35.3461800">
<ele>191.639999</ele>
<time>2024-04-03T11:44:44.178Z</time>
</trkpt>
<trkpt lat="32.5289700" lon="35.3460100">
<ele>190.019989</ele>
<time>2024-04-03T11:44:44.178Z</time>
</trkpt>
<trkpt lat="32.5289900" lon="35.3459900">
<ele>189.750000</ele>
<time>2024-04-03T11:44:44.178Z</time>
</trkpt>
<trkpt lat="32.5290100" lon="35.3459600">
<ele>189.449997</ele>
<time>2024-04-03T11:44:44.178Z</time>
</trkpt>
<trkpt lat="32.5291000" lon="35.3459400">
<ele>188.250000</ele>
<time>2024-04-03T11:44:44.178Z</time>
</trkpt>
<trkpt lat="32.5292600" lon="35.3459200">
<ele>186.180008</ele>
<time>2024-04-03T11:44:44.178Z</time>
</trkpt>
<trkpt lat="32.5294000" lon="35.3458900">
<ele>184.190002</ele>
<time>2024-04-03T11:44:44.178Z</time>
</trkpt>
<trkpt lat="32.5294900" lon="35.3458300">
<ele>182.529999</ele>
<time>2024-04-03T11:44:44.178Z</time>
</trkpt>
<trkpt lat="32.5295900" lon="35.3457100">
<ele>181.619995</ele>
<time>2024-04-03T11:44:44.178Z</time>
</trkpt>
<trkpt lat="32.5296600" lon="35.3455700">
<ele>180.360001</ele>
<time>2024-04-03T11:44:44.178Z</time>
</trkpt>
<trkpt lat="32.5297300" lon="35.3453000">
<ele>179.750000</ele>
<time>2024-04-03T11:44:44.178Z</time>
</trkpt>
<trkpt lat="32.5298000" lon="35.3452000">
<ele>177.799988</ele>
<time>2024-04-03T11:44:44.178Z</time>
</trkpt>
<trkpt lat="32.5298500" lon="35.3451900">
<ele>176.490005</ele>
<time>2024-04-03T11:44:44.178Z</time>
</trkpt>
<trkpt lat="32.5300200" lon="35.3452500">
<ele>173.270004</ele>
<time>2024-04-03T11:44:44.178Z</time>
</trkpt>
<trkpt lat="32.5301900" lon="35.3452700">
<ele>170.540009</ele>
<time>2024-04-03T11:44:44.178Z</time>
</trkpt>
<trkpt lat="32.5302600" lon="35.3452700">
<ele>169.309998</ele>
<time>2024-04-03T11:44:44.178Z</time>
</trkpt>
<trkpt lat="32.5303200" lon="35.3452700">
<ele>168.970001</ele>
<time>2024-04-03T11:44:44.178Z</time>
</trkpt>
<trkpt lat="32.5304000" lon="35.3452100">
<ele>168.360001</ele>
<time>2024-04-03T11:44:44.178Z</time>
</trkpt>
<trkpt lat="32.5305500" lon="35.3447500">
<ele>165.750000</ele>
<time>2024-04-03T11:44:44.178Z</time>
</trkpt>
<trkpt lat="32.5306000" lon="35.3447200">
<ele>165.029999</ele>
<time>2024-04-03T11:44:44.178Z</time>
</trkpt>
<trkpt lat="32.5306600" lon="35.3447100">
<ele>163.730011</ele>
<time>2024-04-03T11:44:44.178Z</time>
</trkpt>
<trkpt lat="32.5308500" lon="35.3447100">
<ele>159.920013</ele>
<time>2024-04-03T11:44:44.178Z</time>
</trkpt>
<trkpt lat="32.5310500" lon="35.3447800">
<ele>158.489990</ele>
<time>2024-04-03T11:44:44.178Z</time>
</trkpt>
<trkpt lat="32.5311500" lon="35.3447900">
<ele>157.360001</ele>
<time>2024-04-03T11:44:44.178Z</time>
</trkpt>
<trkpt lat="32.5311800" lon="35.3447900">
<ele>156.880005</ele>
<time>2024-04-03T11:44:44.178Z</time>
</trkpt>
<trkpt lat="32.5312800" lon="35.3444800">
<ele>154.539993</ele>
<time>2024-04-03T11:44:44.178Z</time>
</trkpt>
<trkpt lat="32.5313600" lon="35.3444400">
<ele>153.360001</ele>
<time>2024-04-03T11:44:44.178Z</time>
</trkpt>
<trkpt lat="32.5313900" lon="35.3444400">
<ele>152.940002</ele>
<time>2024-04-03T11:44:44.178Z</time>
</trkpt>
<trkpt lat="32.5314100" lon="35.3444600">
<ele>152.650009</ele>
<time>2024-04-03T11:44:44.178Z</time>
</trkpt>
<trkpt lat="32.5315900" lon="35.3445800">
<ele>150.319992</ele>
<time>2024-04-03T11:44:44.178Z</time>
</trkpt>
<trkpt lat="32.5316500" lon="35.3446000">
<ele>149.729996</ele>
<time>2024-04-03T11:44:44.178Z</time>
</trkpt>
<trkpt lat="32.5317300" lon="35.3446700">
<ele>150.040009</ele>
<time>2024-04-03T11:44:44.178Z</time>
</trkpt>
<trkpt lat="32.5320400" lon="35.3448000">
<ele>153.240005</ele>
<time>2024-04-03T11:44:44.178Z</time>
</trkpt>
<trkpt lat="32.5325700" lon="35.3448100">
<ele>153.490005</ele>
<time>2024-04-03T11:44:44.178Z</time>
</trkpt>
<trkpt lat="32.5326300" lon="35.3448300">
<ele>152.889999</ele>
<time>2024-04-03T11:44:44.178Z</time>
</trkpt>
<trkpt lat="32.5328200" lon="35.3450000">
<ele>152.539993</ele>
<time>2024-04-03T11:44:44.178Z</time>
</trkpt>
<trkpt lat="32.5329100" lon="35.3450900">
<ele>152.710007</ele>
<time>2024-04-03T11:44:44.178Z</time>
</trkpt>
<trkpt lat="32.5330400" lon="35.3451200">
<ele>151.490005</ele>
<time>2024-04-03T11:44:44.178Z</time>
</trkpt>
<trkpt lat="32.5332000" lon="35.3452100">
<ele>151.099991</ele>
<time>2024-04-03T11:44:44.178Z</time>
</trkpt>
<trkpt lat="32.5334300" lon="35.3454400">
<ele>150.459991</ele>
<time>2024-04-03T11:44:44.178Z</time>
</trkpt>
<trkpt lat="32.5336700" lon="35.3456600">
<ele>147.330002</ele>
<time>2024-04-03T11:44:44.178Z</time>
</trkpt>
<trkpt lat="32.5342400" lon="35.3461900">
<ele>144.360001</ele>
<time>2024-04-03T11:44:44.178Z</time>
</trkpt>
<trkpt lat="32.5343600" lon="35.3464600">
<ele>142.399994</ele>
<time>2024-04-03T11:44:44.178Z</time>
</trkpt>
<trkpt lat="32.5344700" lon="35.3466400">
<ele>139.710007</ele>
<time>2024-04-03T11:44:44.178Z</time>
</trkpt>
<trkpt lat="32.5344600" lon="35.3469700">
<ele>137.690002</ele>
<time>2024-04-03T11:44:44.178Z</time>
</trkpt>
<trkpt lat="32.5344700" lon="35.3470100">
<ele>137.440002</ele>
<time>2024-04-03T11:44:44.178Z</time>
</trkpt>
<trkpt lat="32.5345300" lon="35.3470200">
<ele>136.660004</ele>
<time>2024-04-03T11:44:44.178Z</time>
</trkpt>
<trkpt lat="32.5345800" lon="35.3469800">
<ele>136.040009</ele>
<time>2024-04-03T11:44:44.178Z</time>
</trkpt>
<trkpt lat="32.5347000" lon="35.3466400">
<ele>135.419998</ele>
<time>2024-04-03T11:44:44.178Z</time>
</trkpt>
<trkpt lat="32.5348800" lon="35.3463600">
<ele>131.410004</ele>
<time>2024-04-03T11:44:44.178Z</time>
</trkpt>
<trkpt lat="32.5349500" lon="35.3461200">
<ele>127.699997</ele>
<time>2024-04-03T11:44:44.178Z</time>
</trkpt>
<trkpt lat="32.5350100" lon="35.3460600">
<ele>125.900002</ele>
<time>2024-04-03T11:44:44.178Z</time>
</trkpt>
<trkpt lat="32.5351700" lon="35.3460200">
<ele>124.360001</ele>
<time>2024-04-03T11:44:44.178Z</time>
</trkpt>
<trkpt lat="32.5352300" lon="35.3459800">
<ele>123.909996</ele>
<time>2024-04-03T11:44:44.178Z</time>
</trkpt>
<trkpt lat="32.5353400" lon="35.3458300">
<ele>124.239998</ele>
<time>2024-04-03T11:44:44.178Z</time>
</trkpt>
<trkpt lat="32.5353900" lon="35.3457800">
<ele>124.750008</ele>
<time>2024-04-03T11:44:44.178Z</time>
</trkpt>
<trkpt lat="32.5354600" lon="35.3457700">
<ele>125.179993</ele>
<time>2024-04-03T11:44:44.178Z</time>
</trkpt>
<trkpt lat="32.5355300" lon="35.3457600">
<ele>125.649994</ele>
<time>2024-04-03T11:44:44.178Z</time>
</trkpt>
<trkpt lat="32.5356600" lon="35.3457700">
<ele>126.730003</ele>
<time>2024-04-03T11:44:44.178Z</time>
</trkpt>
<trkpt lat="32.5357500" lon="35.3458000">
<ele>127.380005</ele>
<time>2024-04-03T11:44:44.178Z</time>
</trkpt>
<trkpt lat="32.5358300" lon="35.3458900">
<ele>127.759995</ele>
<time>2024-04-03T11:44:44.178Z</time>
</trkpt>
<trkpt lat="32.5359800" lon="35.3461600">
<ele>125.680000</ele>
<time>2024-04-03T11:44:44.178Z</time>
</trkpt>
<trkpt lat="32.5360900" lon="35.3462100">
<ele>124.620003</ele>
<time>2024-04-03T11:44:44.178Z</time>
</trkpt>
<trkpt lat="32.5361700" lon="35.3462200">
<ele>123.029999</ele>
<time>2024-04-03T11:44:44.178Z</time>
</trkpt>
<trkpt lat="32.5362600" lon="35.3462200">
<ele>120.889999</ele>
<time>2024-04-03T11:44:44.178Z</time>
</trkpt>
<trkpt lat="32.5363700" lon="35.3462000">
<ele>118.489998</ele>
<time>2024-04-03T11:44:44.178Z</time>
</trkpt>
<trkpt lat="32.5365600" lon="35.3461300">
<ele>114.479996</ele>
<time>2024-04-03T11:44:44.178Z</time>
</trkpt>
<trkpt lat="32.5366300" lon="35.3461300">
<ele>112.720001</ele>
<time>2024-04-03T11:44:44.178Z</time>
</trkpt>
<trkpt lat="32.5367400" lon="35.3461400">
<ele>111.009995</ele>
<time>2024-04-03T11:44:44.178Z</time>
</trkpt>
<trkpt lat="32.5368800" lon="35.3461700">
<ele>109.709999</ele>
<time>2024-04-03T11:44:44.178Z</time>
</trkpt>
<trkpt lat="32.5369600" lon="35.3461700">
<ele>109.299995</ele>
<time>2024-04-03T11:44:44.178Z</time>
</trkpt>
<trkpt lat="32.5371400" lon="35.3461200">
<ele>110.389999</ele>
<time>2024-04-03T11:44:44.178Z</time>
</trkpt>
<trkpt lat="32.5372000" lon="35.3461000">
<ele>110.919998</ele>
<time>2024-04-03T11:44:44.178Z</time>
</trkpt>
<trkpt lat="32.5374500" lon="35.3460200">
<ele>116.309998</ele>
<time>2024-04-03T11:44:44.178Z</time>
</trkpt>
<trkpt lat="32.5376300" lon="35.3460200">
<ele>117.639999</ele>
<time>2024-04-03T11:44:44.178Z</time>
</trkpt>
<trkpt lat="32.5376600" lon="35.3460200">
<ele>117.709999</ele>
<time>2024-04-03T11:44:44.178Z</time>
</trkpt>
<trkpt lat="32.5377700" lon="35.3460800">
<ele>117.330002</ele>
<time>2024-04-03T11:44:44.178Z</time>
</trkpt>
<trkpt lat="32.5378800" lon="35.3461000">
<ele>117.440002</ele>
<time>2024-04-03T11:44:44.178Z</time>
</trkpt>
<trkpt lat="32.5381100" lon="35.3461400">
<ele>116.690002</ele>
<time>2024-04-03T11:44:44.178Z</time>
</trkpt>
<trkpt lat="32.5382600" lon="35.3462200">
<ele>113.909996</ele>
<time>2024-04-03T11:44:44.178Z</time>
</trkpt>
<trkpt lat="32.5386100" lon="35.3463800">
<ele>107.990005</ele>
<time>2024-04-03T11:44:44.178Z</time>
</trkpt>
<trkpt lat="32.5387400" lon="35.3464200">
<ele>107.070007</ele>
<time>2024-04-03T11:44:44.178Z</time>
</trkpt>
<trkpt lat="32.5389500" lon="35.3464900">
<ele>104.800003</ele>
<time>2024-04-03T11:44:44.178Z</time>
</trkpt>
<trkpt lat="32.5392300" lon="35.3465300">
<ele>99.510002</ele>
<time>2024-04-03T11:44:44.178Z</time>
</trkpt>
<trkpt lat="32.5394400" lon="35.3466100">
<ele>96.849998</ele>
<time>2024-04-03T11:44:44.178Z</time>
</trkpt>
<trkpt lat="32.5395700" lon="35.3466300">
<ele>100.019997</ele>
<time>2024-04-03T11:44:44.178Z</time>
</trkpt>
<trkpt lat="32.5397400" lon="35.3466300">
<ele>104.559998</ele>
<time>2024-04-03T11:44:44.178Z</time>
</trkpt>
<trkpt lat="32.5398900" lon="35.3466500">
<ele>107.029999</ele>
<time>2024-04-03T11:44:44.178Z</time>
</trkpt>
<trkpt lat="32.5399500" lon="35.3466900">
<ele>108.000000</ele>
<time>2024-04-03T11:44:44.178Z</time>
</trkpt>
<trkpt lat="32.5400800" lon="35.3468500">
<ele>109.110001</ele>
<time>2024-04-03T11:44:44.178Z</time>
</trkpt>
<trkpt lat="32.5403800" lon="35.3472600">
<ele>105.969994</ele>
<time>2024-04-03T11:44:44.178Z</time>
</trkpt>
<trkpt lat="32.5405600" lon="35.3475500">
<ele>100.949997</ele>
<time>2024-04-03T11:44:44.178Z</time>
</trkpt>
<trkpt lat="32.5407400" lon="35.3477700">
<ele>99.010002</ele>
<time>2024-04-03T11:44:44.178Z</time>
</trkpt>
<trkpt lat="32.5409200" lon="35.3479700">
<ele>97.660004</ele>
<time>2024-04-03T11:44:44.178Z</time>
</trkpt>
<trkpt lat="32.5409700" lon="35.3480400">
<ele>97.439995</ele>
<time>2024-04-03T11:44:44.178Z</time>
</trkpt>
<trkpt lat="32.5413600" lon="35.3489600">
<ele>96.509995</ele>
<time>2024-04-03T11:44:44.178Z</time>
</trkpt>
<trkpt lat="32.5414100" lon="35.3490300">
<ele>95.640007</ele>
<time>2024-04-03T11:44:44.178Z</time>
</trkpt>
<trkpt lat="32.5416000" lon="35.3491700">
<ele>91.919998</ele>
<time>2024-04-03T11:44:44.178Z</time>
</trkpt>
<trkpt lat="32.5418100" lon="35.3494800">
<ele>85.940002</ele>
<time>2024-04-03T11:44:44.178Z</time>
</trkpt>
<trkpt lat="32.5419700" lon="35.3495800">
<ele>83.529999</ele>
<time>2024-04-03T11:44:44.178Z</time>
</trkpt>
<trkpt lat="32.5420000" lon="35.3496100">
<ele>83.250000</ele>
<time>2024-04-03T11:44:44.178Z</time>
</trkpt>
<trkpt lat="32.5420100" lon="35.3497100">
<ele>82.349998</ele>
<time>2024-04-03T11:44:44.178Z</time>
</trkpt>
<trkpt lat="32.5420100" lon="35.3497900">
<ele>82.309998</ele>
<time>2024-04-03T11:44:44.178Z</time>
</trkpt>
<trkpt lat="32.5420100" lon="35.3499200">
<ele>82.440002</ele>
<time>2024-04-03T11:44:44.178Z</time>
</trkpt>
<trkpt lat="32.5419900" lon="35.3499800">
<ele>82.639999</ele>
<time>2024-04-03T11:44:44.178Z</time>
</trkpt>
<trkpt lat="32.5418000" lon="35.3502800">
<ele>80.420006</ele>
<time>2024-04-03T11:44:44.178Z</time>
</trkpt>
<trkpt lat="32.5417100" lon="35.3503600">
<ele>78.829994</ele>
<time>2024-04-03T11:44:44.178Z</time>
</trkpt>
<trkpt lat="32.5415300" lon="35.3505000">
<ele>76.909996</ele>
<time>2024-04-03T11:44:44.178Z</time>
</trkpt>
<trkpt lat="32.5415000" lon="35.3505600">
<ele>76.430000</ele>
<time>2024-04-03T11:44:44.178Z</time>
</trkpt>
<trkpt lat="32.5414900" lon="35.3506700">
<ele>77.150002</ele>
<time>2024-04-03T11:44:44.178Z</time>
</trkpt>
<trkpt lat="32.5414900" lon="35.3507200">
<ele>77.489998</ele>
<time>2024-04-03T11:44:44.178Z</time>
</trkpt>
<trkpt lat="32.5415200" lon="35.3508000">
<ele>77.870003</ele>
<time>2024-04-03T11:44:44.178Z</time>
</trkpt>
<trkpt lat="32.5418900" lon="35.3508600">
<ele>78.760002</ele>
<time>2024-04-03T11:44:44.178Z</time>
</trkpt>
<trkpt lat="32.5423800" lon="35.3508600">
<ele>80.500000</ele>
<time>2024-04-03T11:44:44.178Z</time>
</trkpt>
<trkpt lat="32.5425600" lon="35.3508800">
<ele>79.899994</ele>
<time>2024-04-03T11:44:44.178Z</time>
</trkpt>
<trkpt lat="32.5426400" lon="35.3509000">
<ele>79.469994</ele>
<time>2024-04-03T11:44:44.178Z</time>
</trkpt>
<trkpt lat="32.5427300" lon="35.3509400">
<ele>79.110001</ele>
<time>2024-04-03T11:44:44.178Z</time>
</trkpt>
<trkpt lat="32.5427300" lon="35.3509400">
<ele>79.110001</ele>
<time>2024-04-03T11:44:44.178Z</time>
</trkpt>
<trkpt lat="32.5427300" lon="35.3509400">
<ele>79.110001</ele>
<time>2024-04-03T11:44:44.178Z</time>
</trkpt>
<trkpt lat="32.5429000" lon="35.3510200">
<ele>79.340004</ele>
<time>2024-04-03T11:44:44.178Z</time>
</trkpt>
<trkpt lat="32.5431700" lon="35.3511700">
<ele>82.329994</ele>
<time>2024-04-03T11:44:44.178Z</time>
</trkpt>
<trkpt lat="32.5432400" lon="35.3512100">
<ele>84.080002</ele>
<time>2024-04-03T11:44:44.178Z</time>
</trkpt>
<trkpt lat="32.5432900" lon="35.3512100">
<ele>84.990005</ele>
<time>2024-04-03T11:44:44.178Z</time>
</trkpt>
<trkpt lat="32.5434000" lon="35.3511300">
<ele>85.779999</ele>
<time>2024-04-03T11:44:44.178Z</time>
</trkpt>
<trkpt lat="32.5435300" lon="35.3508800">
<ele>83.739998</ele>
<time>2024-04-03T11:44:44.178Z</time>
</trkpt>
<trkpt lat="32.5435600" lon="35.3508200">
<ele>83.080002</ele>
<time>2024-04-03T11:44:44.178Z</time>
</trkpt>
<trkpt lat="32.5437000" lon="35.3505000">
<ele>79.380005</ele>
<time>2024-04-03T11:44:44.178Z</time>
</trkpt>
<trkpt lat="32.5438800" lon="35.3502600">
<ele>76.870003</ele>
<time>2024-04-03T11:44:44.178Z</time>
</trkpt>
<trkpt lat="32.5439600" lon="35.3501500">
<ele>76.680000</ele>
<time>2024-04-03T11:44:44.178Z</time>
</trkpt>
<trkpt lat="32.5440100" lon="35.3500900">
<ele>76.470001</ele>
<time>2024-04-03T11:44:44.178Z</time>
</trkpt>
<trkpt lat="32.5441100" lon="35.3499100">
<ele>75.870003</ele>
<time>2024-04-03T11:44:44.178Z</time>
</trkpt>
<trkpt lat="32.5442100" lon="35.3497000">
<ele>75.919998</ele>
<time>2024-04-03T11:44:44.178Z</time>
</trkpt>
<trkpt lat="32.5442100" lon="35.3497000">
<ele>75.919998</ele>
<time>2024-04-03T11:44:44.178Z</time>
</trkpt>
<trkpt lat="32.5442100" lon="35.3497000">
<ele>75.919998</ele>
<time>2024-04-03T11:44:44.178Z</time>
</trkpt>
<trkpt lat="32.5442100" lon="35.3496900">
<ele>75.879997</ele>
<time>2024-04-03T11:44:44.178Z</time>
</trkpt>
<trkpt lat="32.5442100" lon="35.3496900">
<ele>75.879997</ele>
<time>2024-04-03T11:44:44.178Z</time>
</trkpt>
</trkseg>
</trk>
</gpx>
